Weather Data 2026-05-07

Time Wind Dr Wind Spd
mph
Wind Gust
mph
Hum In
%
Humid
%
TempI
F
Temp
F
Raw Bar
in
Tot Rain
in
UV Solar
W/sqm
DailyRain
in
HourRain
in
24HrRain
in
RainRate
in
05/07/26 12:01:30 AM 37 0.0 0.0 53 75 69.4 59.0 30.065 7.26 0.0 0 0.00 0.00 0.00 0.00
05/07/26 12:02:22 AM 38 0.0 0.0 53 75 69.4 59.0 30.065 7.26 0.0 0 0.00 0.00 0.00 0.00
05/07/26 12:03:28 AM 34 0.0 0.0 53 75 69.4 58.9 30.064 7.26 0.0 0 0.00 0.00 0.00 0.00
05/07/26 12:04:22 AM 36 0.0 0.0 53 75 69.4 58.9 30.063 7.26 0.0 0 0.00 0.00 0.00 0.00
05/07/26 12:05:32 AM 36 0.0 0.0 53 75 69.4 58.9 30.063 7.26 0.0 0 0.00 0.00 0.00 0.00
05/07/26 12:06:26 AM 38 0.0 0.0 53 75 69.4 58.9 30.065 7.26 0.0 0 0.00 0.00 0.00 0.00
05/07/26 12:07:18 AM 32 0.0 0.0 53 75 69.4 58.8 30.062 7.26 0.0 0 0.00 0.00 0.00 0.00
05/07/26 12:08:24 AM 35 0.0 0.0 53 76 69.4 58.8 30.060 7.26 0.0 0 0.00 0.00 0.00 0.00
05/07/26 12:09:16 AM 37 0.0 0.0 53 76 69.4 58.8 30.062 7.26 0.0 0 0.00 0.00 0.00 0.00
05/07/26 12:10:29 AM 32 0.0 0.0 53 76 69.4 58.8 30.062 7.26 0.0 0 0.00 0.00 0.00 0.00
05/07/26 12:11:20 AM 31 0.0 0.0 53 76 69.4 58.8 30.064 7.26 0.0 0 0.00 0.00 0.00 0.00
05/07/26 12:12:33 AM 31 0.0 0.0 53 76 69.4 58.8 30.063 7.26 0.0 0 0.00 0.00 0.00 0.00
05/07/26 12:13:22 AM 36 0.0 0.0 53 76 69.4 58.7 30.063 7.26 0.0 0 0.00 0.00 0.00 0.00
05/07/26 12:14:35 AM 37 0.0 0.0 53 76 69.4 58.7 30.061 7.26 0.0 0 0.00 0.00 0.00 0.00
05/07/26 12:15:48 AM 36 0.0 0.0 53 76 69.4 58.7 30.062 7.26 0.0 0 0.00 0.00 0.00 0.00
05/07/26 12:16:18 AM 36 0.0 0.0 53 76 69.4 58.7 30.059 7.26 0.0 0 0.00 0.00 0.00 0.00
05/07/26 12:17:31 AM 36 0.0 0.0 53 76 69.4 58.7 30.058 7.26 0.0 0 0.00 0.00 0.00 0.00
05/07/26 12:18:23 AM 38 0.0 0.0 53 76 69.4 58.7 30.059 7.26 0.0 0 0.00 0.00 0.00 0.00
05/07/26 12:19:30 AM 38 0.0 0.0 53 76 69.4 58.7 30.058 7.26 0.0 0 0.00 0.00 0.00 0.00
05/07/26 12:20:22 AM 34 0.0 0.0 53 76 69.4 58.7 30.059 7.26 0.0 0 0.00 0.00 0.00 0.00
05/07/26 12:21:34 AM 36 0.0 0.0 53 76 69.4 58.6 30.059 7.26 0.0 0 0.00 0.00 0.00 0.00
05/07/26 12:22:26 AM 36 0.0 0.0 53 76 69.4 58.6 30.059 7.26 0.0 0 0.00 0.00 0.00 0.00
05/07/26 12:23:18 AM 30 0.0 0.0 53 76 69.4 58.6 30.058 7.26 0.0 0 0.00 0.00 0.00 0.00
05/07/26 12:24:25 AM 36 0.0 0.0 53 76 69.4 58.6 30.056 7.26 0.0 0 0.00 0.00 0.00 0.00
05/07/26 12:25:16 AM 34 0.0 0.0 53 76 69.4 58.6 30.058 7.26 0.0 0 0.00 0.00 0.00 0.00
05/07/26 12:26:32 AM 37 0.0 0.0 53 76 69.4 58.6 30.058 7.26 0.0 0 0.00 0.00 0.00 0.00
05/07/26 12:27:24 AM 34 0.0 0.0 53 76 69.4 58.6 30.056 7.26 0.0 0 0.00 0.00 0.00 0.00
05/07/26 12:28:37 AM 37 0.0 0.0 53 76 69.4 58.6 30.059 7.26 0.0 0 0.00 0.00 0.00 0.00
05/07/26 12:29:29 AM 36 0.0 0.0 53 76 69.4 58.6 30.056 7.26 0.0 0 0.00 0.00 0.00 0.00
05/07/26 12:30:39 AM 34 0.0 0.0 53 76 69.4 58.6 30.058 7.26 0.0 0 0.00 0.00 0.00 0.00
05/07/26 12:31:27 AM 39 0.0 0.0 53 76 69.3 58.5 30.058 7.26 0.0 0 0.00 0.00 0.00 0.00
05/07/26 12:32:19 AM 32 0.0 0.0 53 76 69.4 58.5 30.056 7.26 0.0 0 0.00 0.00 0.00 0.00
05/07/26 12:33:32 AM 38 0.0 0.0 53 77 69.4 58.5 30.059 7.26 0.0 0 0.00 0.00 0.00 0.00
05/07/26 12:34:24 AM 31 0.0 0.0 53 77 69.4 58.5 30.057 7.26 0.0 0 0.00 0.00 0.00 0.00
05/07/26 12:35:31 AM 35 0.0 0.0 53 77 69.4 58.5 30.057 7.26 0.0 0 0.00 0.00 0.00 0.00
05/07/26 12:36:25 AM 36 0.0 0.0 53 77 69.4 58.4 30.058 7.26 0.0 0 0.00 0.00 0.00 0.00
05/07/26 12:37:35 AM 38 0.0 0.0 53 77 69.4 58.4 30.057 7.26 0.0 0 0.00 0.00 0.00 0.00
05/07/26 12:38:27 AM 36 0.0 0.0 53 77 69.4 58.4 30.058 7.26 0.0 0 0.00 0.00 0.00 0.00
05/07/26 12:39:19 AM 38 0.0 0.0 53 77 69.3 58.3 30.056 7.26 0.0 0 0.00 0.00 0.00 0.00
05/07/26 12:40:29 AM 38 0.0 0.0 53 77 69.4 58.3 30.056 7.26 0.0 0 0.00 0.00 0.00 0.00
05/07/26 12:41:20 AM 38 0.0 0.0 53 77 69.3 58.2 30.056 7.26 0.0 0 0.00 0.00 0.00 0.00
05/07/26 12:42:33 AM 37 0.0 0.0 53 77 69.3 58.2 30.057 7.26 0.0 0 0.00 0.00 0.00 0.00
05/07/26 12:43:22 AM 32 0.0 0.0 53 77 69.4 58.2 30.057 7.26 0.0 0 0.00 0.00 0.00 0.00
05/07/26 12:44:17 AM 34 0.0 0.0 53 77 69.4 58.1 30.058 7.26 0.0 0 0.00 0.00 0.00 0.00
05/07/26 12:45:30 AM 37 0.0 0.0 53 77 69.3 58.1 30.056 7.26 0.0 0 0.00 0.00 0.00 0.00
05/07/26 12:46:36 AM 38 0.0 0.0 53 77 69.3 58.1 30.056 7.26 0.0 0 0.00 0.00 0.00 0.00
05/07/26 12:47:28 AM 35 0.0 0.0 53 77 69.4 58.1 30.056 7.26 0.0 0 0.00 0.00 0.00 0.00
05/07/26 12:48:20 AM 37 0.0 0.0 53 77 69.3 58.0 30.055 7.26 0.0 0 0.00 0.00 0.00 0.00
05/07/26 12:49:33 AM 37 0.0 0.0 53 77 69.3 58.0 30.053 7.26 0.0 0 0.00 0.00 0.00 0.00
05/07/26 12:50:25 AM 37 0.0 0.0 53 77 69.3 58.0 30.055 7.26 0.0 0 0.00 0.00 0.00 0.00
05/07/26 12:51:32 AM 34 0.0 0.0 53 77 69.4 58.0 30.057 7.26 0.0 0 0.00 0.00 0.00 0.00
05/07/26 12:52:26 AM 35 0.0 0.0 53 77 69.3 57.9 30.054 7.26 0.0 0 0.00 0.00 0.00 0.00
05/07/26 12:53:18 AM 38 0.0 0.0 53 77 69.4 57.9 30.054 7.26 0.0 0 0.00 0.00 0.00 0.00
05/07/26 12:54:31 AM 34 0.0 0.0 53 77 69.3 57.9 30.055 7.26 0.0 0 0.00 0.00 0.00 0.00
05/07/26 12:55:23 AM 34 0.0 0.0 53 77 69.3 57.8 30.054 7.26 0.0 0 0.00 0.00 0.00 0.00
05/07/26 12:56:33 AM 36 0.0 0.0 53 77 69.4 57.8 30.056 7.26 0.0 0 0.00 0.00 0.00 0.00
05/07/26 12:57:24 AM 34 0.0 0.0 53 78 69.3 57.7 30.053 7.26 0.0 0 0.00 0.00 0.00 0.00
05/07/26 12:58:34 AM 34 0.0 0.0 53 78 69.4 57.7 30.057 7.26 0.0 0 0.00 0.00 0.00 0.00
05/07/26 12:59:26 AM 36 0.0 0.0 53 78 69.3 57.7 30.056 7.26 0.0 0 0.00 0.00 0.00 0.00
05/07/26 1:00:21 AM 37 0.0 0.0 53 78 69.3 57.7 30.056 7.26 0.0 0 0.00 0.00 0.00 0.00
05/07/26 1:01:34 AM 37 0.0 0.0 53 78 69.3 57.7 30.054 7.26 0.0 0 0.00 0.00 0.00 0.00
05/07/26 1:02:20 AM 34 0.0 0.0 53 78 69.3 57.7 30.055 7.26 0.0 0 0.00 0.00 0.00 0.00
05/07/26 1:03:32 AM 35 0.0 0.0 53 78 69.3 57.6 30.053 7.26 0.0 0 0.00 0.00 0.00 0.00
05/07/26 1:04:24 AM 36 0.0 0.0 53 78 69.4 57.6 30.054 7.26 0.0 0 0.00 0.00 0.00 0.00
05/07/26 1:05:16 AM 37 0.0 0.0 53 78 69.3 57.6 30.056 7.26 0.0 0 0.00 0.00 0.00 0.00
05/07/26 1:06:29 AM 34 0.0 0.0 53 78 69.3 57.5 30.055 7.26 0.0 0 0.00 0.00 0.00 0.00
05/07/26 1:07:18 AM 32 0.0 0.0 53 78 69.3 57.5 30.054 7.26 0.0 0 0.00 0.00 0.00 0.00
05/07/26 1:08:31 AM 36 0.0 0.0 53 78 69.3 57.5 30.056 7.26 0.0 0 0.00 0.00 0.00 0.00
05/07/26 1:09:22 AM 34 0.0 0.0 53 78 69.3 57.5 30.054 7.26 0.0 0 0.00 0.00 0.00 0.00
05/07/26 1:10:32 AM 34 0.0 0.0 53 78 69.3 57.4 30.055 7.26 0.0 0 0.00 0.00 0.00 0.00
05/07/26 1:11:24 AM 35 0.0 0.0 53 78 69.3 57.4 30.055 7.26 0.0 0 0.00 0.00 0.00 0.00
05/07/26 1:12:19 AM 37 0.0 0.0 53 78 69.3 57.4 30.055 7.26 0.0 0 0.00 0.00 0.00 0.00
05/07/26 1:13:26 AM 38 0.0 0.0 53 78 69.3 57.3 30.055 7.26 0.0 0 0.00 0.00 0.00 0.00
05/07/26 1:14:18 AM 36 0.0 0.0 53 78 69.3 57.3 30.055 7.26 0.0 0 0.00 0.00 0.00 0.00
05/07/26 1:15:30 AM 34 0.0 0.0 53 78 69.2 57.3 30.055 7.26 0.0 0 0.00 0.00 0.00 0.00
05/07/26 1:16:22 AM 36 0.0 0.0 53 78 69.3 57.3 30.056 7.26 0.0 0 0.00 0.00 0.00 0.00
05/07/26 1:17:35 AM 38 0.0 0.0 53 78 69.3 57.3 30.055 7.26 0.0 0 0.00 0.00 0.00 0.00
05/07/26 1:18:21 AM 34 0.0 0.0 53 78 69.3 57.2 30.056 7.26 0.0 0 0.00 0.00 0.00 0.00
05/07/26 1:19:34 AM 31 0.0 0.0 53 78 69.2 57.2 30.055 7.26 0.0 0 0.00 0.00 0.00 0.00
05/07/26 1:20:29 AM 36 0.0 0.0 53 78 69.2 57.2 30.055 7.26 0.0 0 0.00 0.00 0.00 0.00
05/07/26 1:21:20 AM 37 0.0 0.0 53 78 69.3 57.2 30.054 7.26 0.0 0 0.00 0.00 0.00 0.00
05/07/26 1:22:33 AM 32 0.0 0.0 53 78 69.3 57.1 30.055 7.26 0.0 0 0.00 0.00 0.00 0.00
05/07/26 1:23:19 AM 38 0.0 0.0 53 78 69.2 57.1 30.055 7.26 0.0 0 0.00 0.00 0.00 0.00
05/07/26 1:24:32 AM 38 0.0 0.0 53 78 69.3 57.1 30.056 7.26 0.0 0 0.00 0.00 0.00 0.00
05/07/26 1:25:27 AM 37 0.0 0.0 53 78 69.2 57.0 30.055 7.26 0.0 0 0.00 0.00 0.00 0.00
05/07/26 1:26:19 AM 36 0.0 0.0 53 79 69.3 57.0 30.054 7.26 0.0 0 0.00 0.00 0.00 0.00
05/07/26 1:27:35 AM 34 0.0 0.0 53 79 69.3 57.0 30.053 7.26 0.0 0 0.00 0.00 0.00 0.00
05/07/26 1:28:26 AM 38 0.0 0.0 53 79 69.2 56.9 30.053 7.26 0.0 0 0.00 0.00 0.00 0.00
05/07/26 1:29:33 AM 36 0.0 0.0 53 79 69.2 56.9 30.054 7.26 0.0 0 0.00 0.00 0.00 0.00
05/07/26 1:30:28 AM 36 0.0 0.0 53 79 69.2 56.9 30.054 7.26 0.0 0 0.00 0.00 0.00 0.00
05/07/26 1:31:17 AM 37 0.0 0.0 53 79 69.3 56.9 30.051 7.26 0.0 0 0.00 0.00 0.00 0.00
05/07/26 1:32:30 AM 37 0.0 0.0 53 79 69.2 56.8 30.052 7.26 0.0 0 0.00 0.00 0.00 0.00
05/07/26 1:33:22 AM 38 0.0 0.0 53 79 69.2 56.8 30.054 7.26 0.0 0 0.00 0.00 0.00 0.00
05/07/26 1:34:31 AM 32 0.0 0.0 53 79 69.3 56.8 30.052 7.26 0.0 0 0.00 0.00 0.00 0.00
05/07/26 1:35:23 AM 38 0.0 0.0 53 79 69.2 56.7 30.054 7.26 0.0 0 0.00 0.00 0.00 0.00
05/07/26 1:36:33 AM 35 0.0 0.0 53 79 69.2 56.7 30.054 7.26 0.0 0 0.00 0.00 0.00 0.00
05/07/26 1:37:25 AM 29 0.0 0.0 53 79 69.2 56.7 30.054 7.26 0.0 0 0.00 0.00 0.00 0.00
05/07/26 1:38:17 AM 36 0.0 0.0 53 79 69.2 56.6 30.054 7.26 0.0 0 0.00 0.00 0.00 0.00
05/07/26 1:39:24 AM 34 0.0 0.0 53 79 69.2 56.6 30.052 7.26 0.0 0 0.00 0.00 0.00 0.00
05/07/26 1:40:15 AM 34 0.0 0.0 53 79 69.2 56.6 30.053 7.26 0.0 0 0.00 0.00 0.00 0.00
05/07/26 1:41:28 AM 38 0.0 0.0 53 80 69.2 56.6 30.053 7.26 0.0 0 0.00 0.00 0.00 0.00
05/07/26 1:42:20 AM 34 0.0 0.0 53 80 69.2 56.6 30.054 7.26 0.0 0 0.00 0.00 0.00 0.00
05/07/26 1:43:30 AM 36 0.0 0.0 53 80 69.2 56.5 30.052 7.26 0.0 0 0.00 0.00 0.00 0.00
05/07/26 1:44:25 AM 32 0.0 0.0 53 80 69.2 56.5 30.052 7.26 0.0 0 0.00 0.00 0.00 0.00
05/07/26 1:45:32 AM 36 0.0 0.0 53 80 69.2 56.5 30.054 7.26 0.0 0 0.00 0.00 0.00 0.00
05/07/26 1:46:23 AM 34 0.0 0.0 53 80 69.1 56.5 30.053 7.26 0.0 0 0.00 0.00 0.00 0.00
05/07/26 1:47:36 AM 34 0.0 0.0 53 80 69.2 56.5 30.053 7.26 0.0 0 0.00 0.00 0.00 0.00
05/07/26 1:48:25 AM 38 0.0 0.0 53 80 69.1 56.4 30.052 7.26 0.0 0 0.00 0.00 0.00 0.00
05/07/26 1:49:17 AM 37 0.0 0.0 53 80 69.1 56.4 30.051 7.26 0.0 0 0.00 0.00 0.00 0.00
05/07/26 1:50:27 AM 37 0.0 0.0 53 80 69.1 56.4 30.053 7.26 0.0 0 0.00 0.00 0.00 0.00
05/07/26 1:51:19 AM 34 0.0 0.0 53 80 69.2 56.4 30.050 7.26 0.0 0 0.00 0.00 0.00 0.00
05/07/26 1:52:28 AM 32 0.0 0.0 53 80 69.2 56.4 30.052 7.26 0.0 0 0.00 0.00 0.00 0.00
05/07/26 1:53:23 AM 38 0.0 0.0 53 80 69.2 56.4 30.051 7.26 0.0 0 0.00 0.00 0.00 0.00
05/07/26 1:54:33 AM 38 0.0 0.0 53 80 69.2 56.3 30.053 7.26 0.0 0 0.00 0.00 0.00 0.00
05/07/26 1:55:22 AM 30 0.0 0.0 53 80 69.2 56.3 30.052 7.26 0.0 0 0.00 0.00 0.00 0.00
05/07/26 1:56:32 AM 30 0.0 0.0 53 80 69.1 56.2 30.050 7.26 0.0 0 0.00 0.00 0.00 0.00
05/07/26 1:57:27 AM 37 0.0 0.0 53 80 69.1 56.2 30.051 7.26 0.0 0 0.00 0.00 0.00 0.00
05/07/26 1:58:18 AM 38 0.0 0.0 53 80 69.1 56.2 30.049 7.26 0.0 0 0.00 0.00 0.00 0.00
05/07/26 1:59:31 AM 34 0.0 0.0 53 80 69.2 56.2 30.050 7.26 0.0 0 0.00 0.00 0.00 0.00
05/07/26 2:00:47 AM 36 0.0 0.0 53 80 69.1 56.1 30.051 7.26 0.0 0 0.00 0.00 0.00 0.00
05/07/26 2:01:33 AM 38 0.0 0.0 53 80 69.1 56.2 30.049 7.26 0.0 0 0.00 0.00 0.00 0.00
05/07/26 2:02:25 AM 38 0.0 0.0 53 80 69.1 56.2 30.046 7.26 0.0 0 0.00 0.00 0.00 0.00
05/07/26 2:03:17 AM 35 0.0 0.0 53 81 69.1 56.1 30.048 7.26 0.0 0 0.00 0.00 0.00 0.00
05/07/26 2:04:29 AM 37 0.0 0.0 53 81 69.1 56.1 30.044 7.26 0.0 0 0.00 0.00 0.00 0.00
05/07/26 2:05:21 AM 38 0.0 0.0 53 81 69.1 56.1 30.047 7.26 0.0 0 0.00 0.00 0.00 0.00
05/07/26 2:06:28 AM 38 0.0 0.0 53 81 69.1 56.2 30.047 7.26 0.0 0 0.00 0.00 0.00 0.00
05/07/26 2:07:20 AM 38 0.0 0.0 53 81 69.1 56.1 30.047 7.26 0.0 0 0.00 0.00 0.00 0.00
05/07/26 2:08:33 AM 37 0.0 0.0 53 81 69.1 56.1 30.045 7.26 0.0 0 0.00 0.00 0.00 0.00
05/07/26 2:09:25 AM 32 0.0 0.0 53 81 69.1 56.1 30.044 7.26 0.0 0 0.00 0.00 0.00 0.00
05/07/26 2:10:19 AM 34 0.0 0.0 53 81 69.1 56.1 30.046 7.26 0.0 0 0.00 0.00 0.00 0.00
05/07/26 2:11:29 AM 38 0.0 0.0 53 81 69.0 56.1 30.044 7.26 0.0 0 0.00 0.00 0.00 0.00
05/07/26 2:12:18 AM 36 0.0 0.0 53 81 69.1 56.1 30.044 7.26 0.0 0 0.00 0.00 0.00 0.00
05/07/26 2:13:28 AM 37 0.0 0.0 53 81 69.1 56.1 30.044 7.26 0.0 0 0.00 0.00 0.00 0.00
05/07/26 2:14:20 AM 38 0.0 0.0 53 81 69.0 56.1 30.042 7.26 0.0 0 0.00 0.00 0.00 0.00
05/07/26 2:15:33 AM 38 0.0 0.0 53 81 69.0 56.1 30.043 7.26 0.0 0 0.00 0.00 0.00 0.00
05/07/26 2:16:24 AM 34 0.0 0.0 53 81 69.1 56.1 30.042 7.26 0.0 0 0.00 0.00 0.00 0.00
05/07/26 2:17:31 AM 36 0.0 0.0 53 81 69.1 56.1 30.043 7.26 0.0 0 0.00 0.00 0.00 0.00
05/07/26 2:18:26 AM 38 0.0 0.0 53 81 69.0 56.1 30.044 7.26 0.0 0 0.00 0.00 0.00 0.00
05/07/26 2:19:18 AM 31 0.0 0.0 53 81 69.0 56.1 30.044 7.26 0.0 0 0.00 0.00 0.00 0.00
05/07/26 2:20:28 AM 36 0.0 0.0 53 81 69.0 56.1 30.042 7.26 0.0 0 0.00 0.00 0.00 0.00
05/07/26 2:21:20 AM 38 0.0 0.0 53 81 69.1 56.0 30.044 7.26 0.0 0 0.00 0.00 0.00 0.00
05/07/26 2:22:30 AM 34 0.0 0.0 53 81 69.0 56.0 30.045 7.26 0.0 0 0.00 0.00 0.00 0.00
05/07/26 2:23:21 AM 38 0.0 0.0 53 81 69.0 56.0 30.044 7.26 0.0 0 0.00 0.00 0.00 0.00
05/07/26 2:24:31 AM 38 0.0 0.0 53 81 69.1 56.0 30.042 7.26 0.0 0 0.00 0.00 0.00 0.00
05/07/26 2:25:26 AM 37 0.0 0.0 53 81 69.0 56.0 30.041 7.26 0.0 0 0.00 0.00 0.00 0.00
05/07/26 2:26:18 AM 38 0.0 0.0 53 81 69.0 55.9 30.040 7.26 0.0 0 0.00 0.00 0.00 0.00
05/07/26 2:27:28 AM 38 0.0 0.0 53 81 69.0 55.8 30.041 7.26 0.0 0 0.00 0.00 0.00 0.00
05/07/26 2:28:17 AM 37 0.0 0.0 53 81 69.0 55.8 30.038 7.26 0.0 0 0.00 0.00 0.00 0.00
05/07/26 2:29:29 AM 36 0.0 0.0 53 81 69.0 55.8 30.039 7.26 0.0 0 0.00 0.00 0.00 0.00
05/07/26 2:30:21 AM 36 0.0 0.0 53 81 69.0 55.8 30.039 7.26 0.0 0 0.00 0.00 0.00 0.00
05/07/26 2:31:34 AM 31 0.0 0.0 53 81 69.0 55.7 30.040 7.26 0.0 0 0.00 0.00 0.00 0.00
05/07/26 2:32:26 AM 36 0.0 0.0 53 81 69.0 55.7 30.038 7.26 0.0 0 0.00 0.00 0.00 0.00
05/07/26 2:33:39 AM 30 0.0 0.0 53 81 69.0 55.7 30.039 7.26 0.0 0 0.00 0.00 0.00 0.00
05/07/26 2:34:31 AM 37 0.0 0.0 53 81 68.9 55.7 30.038 7.26 0.0 0 0.00 0.00 0.00 0.00
05/07/26 2:35:23 AM 36 0.0 0.0 53 81 68.9 55.7 30.038 7.26 0.0 0 0.00 0.00 0.00 0.00
05/07/26 2:36:36 AM 34 0.0 0.0 53 82 68.9 55.6 30.034 7.26 0.0 0 0.00 0.00 0.00 0.00
05/07/26 2:37:25 AM 38 0.0 0.0 53 82 68.9 55.6 30.037 7.26 0.0 0 0.00 0.00 0.00 0.00
05/07/26 2:38:19 AM 37 0.0 0.0 53 82 68.9 55.6 30.038 7.26 0.0 0 0.00 0.00 0.00 0.00
05/07/26 2:39:26 AM 38 0.0 0.0 53 82 68.9 55.6 30.036 7.26 0.0 0 0.00 0.00 0.00 0.00
05/07/26 2:40:18 AM 38 0.0 0.0 53 82 69.0 55.6 30.034 7.26 0.0 0 0.00 0.00 0.00 0.00
05/07/26 2:41:31 AM 36 0.0 0.0 53 82 68.9 55.5 30.034 7.26 0.0 0 0.00 0.00 0.00 0.00
05/07/26 2:42:23 AM 38 0.0 0.0 53 82 68.9 55.5 30.036 7.26 0.0 0 0.00 0.00 0.00 0.00
05/07/26 2:43:36 AM 38 0.0 0.0 53 82 68.9 55.5 30.034 7.26 0.0 0 0.00 0.00 0.00 0.00
05/07/26 2:44:22 AM 36 0.0 0.0 53 82 68.9 55.5 30.034 7.26 0.0 0 0.00 0.00 0.00 0.00
05/07/26 2:45:34 AM 30 0.0 0.0 53 82 68.9 55.5 30.037 7.26 0.0 0 0.00 0.00 0.00 0.00
05/07/26 2:46:26 AM 37 0.0 0.0 53 82 68.9 55.4 30.035 7.26 0.0 0 0.00 0.00 0.00 0.00
05/07/26 2:47:18 AM 38 0.0 0.0 53 82 68.9 55.4 30.037 7.26 0.0 0 0.00 0.00 0.00 0.00
05/07/26 2:48:31 AM 38 0.0 0.0 53 82 68.9 55.4 30.037 7.26 0.0 0 0.00 0.00 0.00 0.00
05/07/26 2:49:17 AM 34 0.0 0.0 53 82 68.9 55.4 30.037 7.26 0.0 0 0.00 0.00 0.00 0.00
05/07/26 2:50:30 AM 36 0.0 0.0 53 82 68.9 55.4 30.035 7.26 0.0 0 0.00 0.00 0.00 0.00
05/07/26 2:51:22 AM 38 0.0 0.0 53 82 68.9 55.3 30.033 7.26 0.0 0 0.00 0.00 0.00 0.00
05/07/26 2:52:35 AM 38 0.0 0.0 53 82 68.9 55.3 30.036 7.26 0.0 0 0.00 0.00 0.00 0.00
05/07/26 2:53:26 AM 36 0.0 0.0 53 82 68.9 55.3 30.035 7.26 0.0 0 0.00 0.00 0.00 0.00
05/07/26 2:54:18 AM 40 0.0 0.0 53 82 68.9 55.3 30.032 7.26 0.0 0 0.00 0.00 0.00 0.00
05/07/26 2:55:25 AM 38 0.0 0.0 53 82 68.9 55.2 30.034 7.26 0.0 0 0.00 0.00 0.00 0.00
05/07/26 2:56:20 AM 38 0.0 0.0 53 82 68.9 55.2 30.033 7.26 0.0 0 0.00 0.00 0.00 0.00
05/07/26 2:57:33 AM 30 0.0 0.0 53 82 68.9 55.1 30.034 7.26 0.0 0 0.00 0.00 0.00 0.00
05/07/26 2:58:25 AM 35 0.0 0.0 53 82 68.9 55.1 30.036 7.26 0.0 0 0.00 0.00 0.00 0.00
05/07/26 2:59:35 AM 37 0.0 0.0 53 82 68.9 55.1 30.034 7.26 0.0 0 0.00 0.00 0.00 0.00
05/07/26 3:00:45 AM 37 0.0 0.0 53 82 68.8 55.1 30.033 7.26 0.0 0 0.00 0.00 0.00 0.00
05/07/26 3:01:19 AM 36 0.0 0.0 53 82 68.8 55.1 30.033 7.26 0.0 0 0.00 0.00 0.00 0.00
05/07/26 3:02:28 AM 36 0.0 0.0 53 82 68.8 55.1 30.035 7.26 0.0 0 0.00 0.00 0.00 0.00
05/07/26 3:03:23 AM 38 0.0 0.0 53 82 68.9 55.0 30.035 7.26 0.0 0 0.00 0.00 0.00 0.00
05/07/26 3:04:36 AM 38 0.0 0.0 53 82 68.8 55.1 30.034 7.26 0.0 0 0.00 0.00 0.00 0.00
05/07/26 3:05:28 AM 35 0.0 0.0 53 82 68.8 55.0 30.034 7.26 0.0 0 0.00 0.00 0.00 0.00
05/07/26 3:06:35 AM 38 0.0 0.0 53 83 68.8 55.0 30.037 7.26 0.0 0 0.00 0.00 0.00 0.00
05/07/26 3:07:27 AM 34 0.0 0.0 53 83 68.8 55.0 30.034 7.26 0.0 0 0.00 0.00 0.00 0.00
05/07/26 3:08:19 AM 36 0.0 0.0 53 83 68.8 55.0 30.032 7.26 0.0 0 0.00 0.00 0.00 0.00
05/07/26 3:09:32 AM 38 0.0 0.0 53 83 68.8 55.0 30.033 7.26 0.0 0 0.00 0.00 0.00 0.00
05/07/26 3:10:24 AM 37 0.0 0.0 53 83 68.8 55.0 30.034 7.26 0.0 0 0.00 0.00 0.00 0.00
05/07/26 3:11:30 AM 36 0.0 0.0 53 83 68.8 55.0 30.034 7.26 0.0 0 0.00 0.00 0.00 0.00
05/07/26 3:12:22 AM 37 0.0 0.0 53 83 68.8 55.0 30.034 7.26 0.0 0 0.00 0.00 0.00 0.00
05/07/26 3:13:32 AM 37 0.0 0.0 53 83 68.8 55.0 30.035 7.26 0.0 0 0.00 0.00 0.00 0.00
05/07/26 3:14:27 AM 36 0.0 0.0 53 83 68.8 55.0 30.032 7.26 0.0 0 0.00 0.00 0.00 0.00
05/07/26 3:15:19 AM 38 0.0 0.0 53 83 68.8 55.0 30.033 7.26 0.0 0 0.00 0.00 0.00 0.00
05/07/26 3:16:26 AM 38 0.0 0.0 53 83 68.8 55.0 30.033 7.26 0.0 0 0.00 0.00 0.00 0.00
05/07/26 3:17:21 AM 35 0.0 0.0 53 83 68.8 55.0 30.033 7.26 0.0 0 0.00 0.00 0.00 0.00
05/07/26 3:18:31 AM 38 0.0 0.0 53 83 68.8 55.0 30.031 7.26 0.0 0 0.00 0.00 0.00 0.00
05/07/26 3:19:26 AM 32 0.0 0.0 53 83 68.8 55.0 30.032 7.26 0.0 0 0.00 0.00 0.00 0.00
05/07/26 3:20:18 AM 35 0.0 0.0 53 83 68.8 55.0 30.032 7.26 0.0 0 0.00 0.00 0.00 0.00
05/07/26 3:21:31 AM 38 0.0 0.0 53 83 68.8 55.0 30.033 7.26 0.0 0 0.00 0.00 0.00 0.00
05/07/26 3:22:19 AM 36 0.0 0.0 53 83 68.8 55.0 30.033 7.26 0.0 0 0.00 0.00 0.00 0.00
05/07/26 3:23:29 AM 37 0.0 0.0 53 83 68.8 54.9 30.031 7.26 0.0 0 0.00 0.00 0.00 0.00
05/07/26 3:24:21 AM 35 0.0 0.0 53 83 68.8 55.0 30.031 7.26 0.0 0 0.00 0.00 0.00 0.00
05/07/26 3:25:34 AM 38 0.0 0.0 53 83 68.8 54.9 30.031 7.26 0.0 0 0.00 0.00 0.00 0.00
05/07/26 3:26:26 AM 35 0.0 0.0 53 83 68.8 54.9 30.033 7.26 0.0 0 0.00 0.00 0.00 0.00
05/07/26 3:27:33 AM 36 0.0 0.0 53 83 68.8 54.9 30.032 7.26 0.0 0 0.00 0.00 0.00 0.00
05/07/26 3:28:25 AM 34 0.0 0.0 53 83 68.8 54.9 30.033 7.26 0.0 0 0.00 0.00 0.00 0.00
05/07/26 3:29:17 AM 36 0.0 0.0 53 83 68.8 54.8 30.031 7.26 0.0 0 0.00 0.00 0.00 0.00
05/07/26 3:30:33 AM 38 0.0 0.0 53 83 68.8 54.8 30.031 7.26 0.0 0 0.00 0.00 0.00 0.00
05/07/26 3:31:22 AM 32 0.0 0.0 53 83 68.8 54.8 30.032 7.26 0.0 0 0.00 0.00 0.00 0.00
05/07/26 3:32:29 AM 37 0.0 0.0 53 83 68.7 54.8 30.032 7.26 0.0 0 0.00 0.00 0.00 0.00
05/07/26 3:33:21 AM 36 0.0 0.0 53 83 68.7 54.7 30.033 7.26 0.0 0 0.00 0.00 0.00 0.00
05/07/26 3:34:33 AM 32 0.0 0.0 53 83 68.7 54.7 30.031 7.26 0.0 0 0.00 0.00 0.00 0.00
05/07/26 3:35:25 AM 36 0.0 0.0 53 83 68.7 54.7 30.032 7.26 0.0 0 0.00 0.00 0.00 0.00
05/07/26 3:36:17 AM 35 0.0 0.0 53 83 68.7 54.7 30.032 7.26 0.0 0 0.00 0.00 0.00 0.00
05/07/26 3:37:30 AM 38 0.0 0.0 53 83 68.7 54.6 30.031 7.26 0.0 0 0.00 0.00 0.00 0.00
05/07/26 3:38:16 AM 36 0.0 0.0 53 83 68.7 54.6 30.029 7.26 0.0 0 0.00 0.00 0.00 0.00
05/07/26 3:39:29 AM 35 0.0 0.0 53 84 68.7 54.6 30.031 7.26 0.0 0 0.00 0.00 0.00 0.00
05/07/26 3:40:21 AM 32 0.0 0.0 53 84 68.7 54.6 30.031 7.26 0.0 0 0.00 0.00 0.00 0.00
05/07/26 3:41:34 AM 32 0.0 0.0 53 84 68.6 54.6 30.031 7.26 0.0 0 0.00 0.00 0.00 0.00
05/07/26 3:42:26 AM 38 0.0 0.0 53 84 68.6 54.6 30.031 7.26 0.0 0 0.00 0.00 0.00 0.00
05/07/26 3:43:36 AM 34 0.0 0.0 53 84 68.7 54.6 30.028 7.26 0.0 0 0.00 0.00 0.00 0.00
05/07/26 3:44:27 AM 38 0.0 0.0 53 84 68.7 54.6 30.027 7.26 0.0 0 0.00 0.00 0.00 0.00
05/07/26 3:45:19 AM 31 0.0 0.0 53 84 68.6 54.7 30.028 7.26 0.0 0 0.00 0.00 0.00 0.00
05/07/26 3:46:29 AM 38 0.0 0.0 53 84 68.6 54.6 30.026 7.26 0.0 0 0.00 0.00 0.00 0.00
05/07/26 3:47:21 AM 38 0.0 0.0 53 84 68.7 54.6 30.028 7.26 0.0 0 0.00 0.00 0.00 0.00
05/07/26 3:48:31 AM 35 0.0 0.0 53 84 68.6 54.6 30.027 7.26 0.0 0 0.00 0.00 0.00 0.00
05/07/26 3:49:20 AM 34 0.0 0.0 53 84 68.6 54.6 30.025 7.26 0.0 0 0.00 0.00 0.00 0.00
05/07/26 3:50:33 AM 32 0.0 0.0 53 84 68.6 54.6 30.027 7.26 0.0 0 0.00 0.00 0.00 0.00
05/07/26 3:51:25 AM 35 0.0 0.0 53 84 68.6 54.6 30.026 7.26 0.0 0 0.00 0.00 0.00 0.00
05/07/26 3:52:17 AM 34 0.0 0.0 53 84 68.6 54.6 30.025 7.26 0.0 0 0.00 0.00 0.00 0.00
05/07/26 3:53:30 AM 32 0.0 0.0 53 84 68.6 54.6 30.026 7.26 0.0 0 0.00 0.00 0.00 0.00
05/07/26 3:54:19 AM 36 0.0 0.0 53 84 68.6 54.5 30.026 7.26 0.0 0 0.00 0.00 0.00 0.00
05/07/26 3:55:32 AM 32 0.0 0.0 53 84 68.6 54.5 30.023 7.26 0.0 0 0.00 0.00 0.00 0.00
05/07/26 3:56:23 AM 38 0.0 0.0 53 84 68.6 54.5 30.025 7.26 0.0 0 0.00 0.00 0.00 0.00
05/07/26 3:57:36 AM 38 0.0 0.0 53 84 68.6 54.5 30.023 7.26 0.0 0 0.00 0.00 0.00 0.00
05/07/26 3:58:28 AM 38 0.0 0.0 53 84 68.6 54.5 30.024 7.26 0.0 0 0.00 0.00 0.00 0.00
05/07/26 3:59:35 AM 38 0.0 0.0 53 84 68.6 54.5 30.021 7.26 0.0 0 0.00 0.00 0.00 0.00
05/07/26 4:00:30 AM 36 0.0 0.0 53 84 68.7 54.5 30.023 7.26 0.0 0 0.00 0.00 0.00 0.00
05/07/26 4:01:19 AM 38 0.0 0.0 53 84 68.7 54.4 30.023 7.26 0.0 0 0.00 0.00 0.00 0.00
05/07/26 4:02:32 AM 35 0.0 0.0 53 84 68.7 54.4 30.023 7.26 0.0 0 0.00 0.00 0.00 0.00
05/07/26 4:03:24 AM 36 0.0 0.0 53 84 68.6 54.4 30.021 7.26 0.0 0 0.00 0.00 0.00 0.00
05/07/26 4:04:16 AM 34 0.0 0.0 53 83 68.6 54.4 30.026 7.26 0.0 0 0.00 0.00 0.00 0.00
05/07/26 4:05:26 AM 38 0.0 0.0 53 83 68.6 54.3 30.025 7.26 0.0 0 0.00 0.00 0.00 0.00
05/07/26 4:06:36 AM 39 0.0 0.0 53 83 68.6 54.3 30.021 7.26 0.0 0 0.00 0.00 0.00 0.00
05/07/26 4:07:28 AM 35 0.0 0.0 53 84 68.7 54.3 30.022 7.26 0.0 0 0.00 0.00 0.00 0.00
05/07/26 4:08:20 AM 38 0.0 0.0 53 84 68.6 54.3 30.024 7.26 0.0 0 0.00 0.00 0.00 0.00
05/07/26 4:09:33 AM 31 0.0 0.0 53 84 68.6 54.2 30.020 7.26 0.0 0 0.00 0.00 0.00 0.00
05/07/26 4:10:21 AM 38 0.0 0.0 53 84 68.7 54.2 30.021 7.26 0.0 0 0.00 0.00 0.00 0.00
05/07/26 4:11:34 AM 36 0.0 0.0 53 84 68.7 54.1 30.019 7.26 0.0 0 0.00 0.00 0.00 0.00
05/07/26 4:12:26 AM 36 0.0 0.0 53 84 68.7 54.1 30.021 7.26 0.0 0 0.00 0.00 0.00 0.00
05/07/26 4:13:18 AM 38 0.0 0.0 53 84 68.7 54.1 30.020 7.26 0.0 0 0.00 0.00 0.00 0.00
05/07/26 4:14:31 AM 35 0.0 0.0 53 84 68.7 54.0 30.019 7.26 0.0 0 0.00 0.00 0.00 0.00
05/07/26 4:15:41 AM 35 0.0 0.0 53 84 68.7 54.0 30.019 7.26 0.0 0 0.00 0.00 0.00 0.00
05/07/26 4:16:33 AM 36 0.0 0.0 53 84 68.7 54.0 30.019 7.26 0.0 0 0.00 0.00 0.00 0.00
05/07/26 4:17:25 AM 38 0.0 0.0 53 84 68.7 54.0 30.022 7.26 0.0 0 0.00 0.00 0.00 0.00
05/07/26 4:18:17 AM 38 0.0 0.0 53 84 68.7 53.9 30.021 7.26 0.0 0 0.00 0.00 0.00 0.00
05/07/26 4:19:30 AM 36 0.0 0.0 53 84 68.6 53.9 30.019 7.26 0.0 0 0.00 0.00 0.00 0.00
05/07/26 4:20:21 AM 39 0.0 0.0 53 84 68.7 53.9 30.020 7.26 0.0 0 0.00 0.00 0.00 0.00
05/07/26 4:21:28 AM 32 0.0 0.0 53 84 68.6 53.9 30.019 7.26 0.0 0 0.00 0.00 0.00 0.00
05/07/26 4:22:23 AM 31 0.0 0.0 53 84 68.7 53.8 30.020 7.26 0.0 0 0.00 0.00 0.00 0.00
05/07/26 4:23:33 AM 32 0.0 0.0 53 84 68.7 53.8 30.018 7.26 0.0 0 0.00 0.00 0.00 0.00
05/07/26 4:24:25 AM 35 0.0 0.0 53 83 68.6 53.7 30.016 7.26 0.0 0 0.00 0.00 0.00 0.00
05/07/26 4:25:17 AM 38 0.0 0.0 53 83 68.6 53.7 30.018 7.26 0.0 0 0.00 0.00 0.00 0.00
05/07/26 4:26:27 AM 38 0.0 0.0 53 83 68.6 53.6 30.018 7.26 0.0 0 0.00 0.00 0.00 0.00
05/07/26 4:27:16 AM 34 0.0 0.0 53 83 68.6 53.5 30.019 7.26 0.0 0 0.00 0.00 0.00 0.00
05/07/26 4:28:29 AM 38 0.0 0.0 53 83 68.6 53.5 30.019 7.26 0.0 0 0.00 0.00 0.00 0.00
05/07/26 4:29:21 AM 38 0.0 0.0 53 83 68.6 53.5 30.018 7.26 0.0 0 0.00 0.00 0.00 0.00
05/07/26 4:30:55 AM 38 0.0 0.0 53 83 68.6 53.4 30.017 7.26 0.0 0 0.00 0.00 0.00 0.00
05/07/26 4:31:26 AM 36 0.0 0.0 53 83 68.6 53.4 30.017 7.26 0.0 0 0.00 0.00 0.00 0.00
05/07/26 4:32:32 AM 35 0.0 0.0 53 84 68.6 53.3 30.016 7.26 0.0 0 0.00 0.00 0.00 0.00
05/07/26 4:33:24 AM 38 0.0 0.0 53 84 68.6 53.3 30.017 7.26 0.0 0 0.00 0.00 0.00 0.00
05/07/26 4:34:16 AM 36 0.0 0.0 53 84 68.6 53.3 30.019 7.26 0.0 0 0.00 0.00 0.00 0.00
05/07/26 4:35:26 AM 36 0.0 0.0 53 84 68.6 53.3 30.018 7.26 0.0 0 0.00 0.00 0.00 0.00
05/07/26 4:36:21 AM 35 0.0 0.0 53 84 68.6 53.3 30.018 7.26 0.0 0 0.00 0.00 0.00 0.00
05/07/26 4:37:28 AM 34 0.0 0.0 53 84 68.6 53.3 30.018 7.26 0.0 0 0.00 0.00 0.00 0.00
05/07/26 4:38:20 AM 34 0.0 0.0 53 84 68.5 53.4 30.019 7.26 0.0 0 0.00 0.00 0.00 0.00
05/07/26 4:39:30 AM 36 0.0 0.0 53 84 68.5 53.4 30.015 7.26 0.0 0 0.00 0.00 0.00 0.00
05/07/26 4:40:25 AM 36 0.0 0.0 53 84 68.5 53.4 30.016 7.26 0.0 0 0.00 0.00 0.00 0.00
05/07/26 4:41:35 AM 35 0.0 0.0 53 85 68.5 53.4 30.016 7.26 0.0 0 0.00 0.00 0.00 0.00
05/07/26 4:42:30 AM 38 0.0 0.0 53 85 68.5 53.4 30.016 7.26 0.0 0 0.00 0.00 0.00 0.00
05/07/26 4:43:37 AM 35 0.0 0.0 53 85 68.5 53.4 30.014 7.26 0.0 0 0.00 0.00 0.00 0.00
05/07/26 4:44:29 AM 35 0.0 0.0 53 85 68.4 53.4 30.013 7.26 0.0 0 0.00 0.00 0.00 0.00
05/07/26 4:45:24 AM 38 0.0 0.0 53 85 68.5 53.4 30.015 7.26 0.0 0 0.00 0.00 0.00 0.00
05/07/26 4:46:34 AM 35 0.0 0.0 53 85 68.4 53.4 30.014 7.26 0.0 0 0.00 0.00 0.00 0.00
05/07/26 4:47:25 AM 38 0.0 0.0 53 85 68.4 53.4 30.014 7.26 0.0 0 0.00 0.00 0.00 0.00
05/07/26 4:48:35 AM 38 0.0 0.0 53 85 68.4 53.4 30.014 7.26 0.0 0 0.00 0.00 0.00 0.00
05/07/26 4:49:27 AM 38 0.0 0.0 53 85 68.5 53.4 30.014 7.26 0.0 0 0.00 0.00 0.00 0.00
05/07/26 4:50:19 AM 38 0.0 0.0 53 85 68.5 53.3 30.013 7.26 0.0 0 0.00 0.00 0.00 0.00
05/07/26 4:51:32 AM 35 0.0 0.0 53 85 68.5 53.4 30.014 7.26 0.0 0 0.00 0.00 0.00 0.00
05/07/26 4:52:24 AM 38 0.0 0.0 53 85 68.5 53.3 30.015 7.26 0.0 0 0.00 0.00 0.00 0.00
05/07/26 4:53:31 AM 35 0.0 0.0 53 85 68.5 53.3 30.014 7.26 0.0 0 0.00 0.00 0.00 0.00
05/07/26 4:54:23 AM 32 0.0 0.0 53 85 68.5 53.3 30.013 7.26 0.0 0 0.00 0.00 0.00 0.00
05/07/26 4:55:36 AM 38 0.0 0.0 53 84 68.5 53.2 30.013 7.26 0.0 0 0.00 0.00 0.00 0.00
05/07/26 4:56:25 AM 38 0.0 0.0 53 84 68.5 53.2 30.013 7.26 0.0 0 0.00 0.00 0.00 0.00
05/07/26 4:57:16 AM 38 0.0 0.0 53 84 68.5 53.2 30.013 7.26 0.0 0 0.00 0.00 0.00 0.00
05/07/26 4:58:29 AM 39 0.0 0.0 53 85 68.5 53.2 30.014 7.26 0.0 0 0.00 0.00 0.00 0.00
05/07/26 4:59:18 AM 35 0.0 0.0 53 84 68.5 53.2 30.013 7.26 0.0 0 0.00 0.00 0.00 0.00
05/07/26 5:00:53 AM 38 0.0 0.0 53 84 68.4 53.2 30.014 7.26 0.0 0 0.00 0.00 0.00 0.00
05/07/26 5:01:23 AM 32 0.0 0.0 53 85 68.5 53.2 30.014 7.26 0.0 0 0.00 0.00 0.00 0.00
05/07/26 5:02:36 AM 35 0.0 0.0 53 85 68.4 53.1 30.014 7.26 0.0 0 0.00 0.00 0.00 0.00
05/07/26 5:03:28 AM 36 0.0 0.0 53 85 68.4 53.2 30.013 7.26 0.0 0 0.00 0.00 0.00 0.00
05/07/26 5:04:17 AM 38 0.0 0.0 53 85 68.4 53.2 30.013 7.26 0.0 0 0.00 0.00 0.00 0.00
05/07/26 5:05:27 AM 35 0.0 0.0 53 85 68.4 53.1 30.014 7.26 0.0 0 0.00 0.00 0.00 0.00
05/07/26 5:06:19 AM 38 0.0 0.0 53 85 68.4 53.1 30.012 7.26 0.0 0 0.00 0.00 0.00 0.00
05/07/26 5:07:32 AM 38 0.0 0.0 53 85 68.3 53.1 30.012 7.26 0.0 0 0.00 0.00 0.00 0.00
05/07/26 5:08:24 AM 35 0.0 0.0 53 85 68.3 53.1 30.013 7.26 0.0 0 0.00 0.00 0.00 0.00
05/07/26 5:09:37 AM 34 0.0 0.0 53 85 68.2 53.1 30.011 7.26 0.0 0 0.00 0.00 0.00 0.00
05/07/26 5:10:26 AM 39 0.0 0.0 53 85 68.0 53.1 30.012 7.26 0.0 0 0.00 0.00 0.00 0.00
05/07/26 5:11:36 AM 35 0.0 0.0 53 85 67.9 53.1 30.009 7.26 0.0 0 0.00 0.00 0.00 0.00
05/07/26 5:12:28 AM 38 0.0 0.0 53 85 67.8 53.1 30.012 7.26 0.0 0 0.00 0.00 0.00 0.00
05/07/26 5:13:19 AM 32 0.0 0.0 53 85 67.7 53.0 30.011 7.26 0.0 0 0.00 0.00 0.00 0.00
05/07/26 5:14:32 AM 35 0.0 0.0 53 85 67.7 53.0 30.006 7.26 0.0 0 0.00 0.00 0.00 0.00
05/07/26 5:15:42 AM 38 0.0 0.0 53 85 67.5 52.9 30.009 7.26 0.0 0 0.00 0.00 0.00 0.00
05/07/26 5:16:34 AM 34 0.0 0.0 53 85 67.4 52.9 30.009 7.26 0.0 0 0.00 0.00 0.00 0.00
05/07/26 5:17:26 AM 35 0.0 0.0 53 85 67.3 52.8 30.009 7.26 0.0 0 0.00 0.00 0.00 0.00
05/07/26 5:18:18 AM 36 0.0 0.0 53 85 67.2 52.8 30.009 7.26 0.0 0 0.00 0.00 0.00 0.00
05/07/26 5:19:31 AM 36 0.0 0.0 53 85 67.1 52.8 30.008 7.26 0.0 0 0.00 0.00 0.00 0.00
05/07/26 5:20:20 AM 35 0.0 0.0 53 85 67.0 52.8 30.009 7.26 0.0 0 0.00 0.00 0.00 0.00
05/07/26 5:22:52 AM 32 0.0 0.0 53 85 66.8 52.9 30.011 7.26 0.0 0 0.00 0.00 0.00 0.00
05/07/26 5:23:25 AM 38 0.0 0.0 53 85 66.6 52.8 30.010 7.26 0.0 0 0.00 0.00 0.00 0.00
05/07/26 5:24:35 AM 38 0.0 0.0 53 85 66.5 52.9 30.007 7.26 0.0 0 0.00 0.00 0.00 0.00
05/07/26 5:25:27 AM 32 0.0 0.0 53 85 66.4 52.9 30.012 7.26 0.0 0 0.00 0.00 0.00 0.00
05/07/26 5:26:22 AM 38 0.0 0.0 53 85 66.4 52.9 30.010 7.26 0.0 0 0.00 0.00 0.00 0.00
05/07/26 5:27:29 AM 38 0.0 0.0 53 85 66.3 52.8 30.013 7.26 0.0 0 0.00 0.00 0.00 0.00
05/07/26 5:28:21 AM 36 0.0 0.0 53 85 66.2 52.8 30.012 7.26 0.0 0 0.00 0.00 0.00 0.00
05/07/26 5:29:34 AM 39 0.0 0.0 53 85 66.1 52.8 30.011 7.26 0.0 0 0.00 0.00 0.00 0.00
05/07/26 5:30:50 AM 36 0.0 0.0 53 85 66.1 52.8 30.009 7.26 0.0 0 0.00 0.00 0.00 0.00
05/07/26 5:31:18 AM 36 0.0 0.0 54 85 66.0 52.8 30.007 7.26 0.0 0 0.00 0.00 0.00 0.00
05/07/26 5:32:31 AM 38 0.0 0.0 54 85 65.9 52.7 30.010 7.26 0.0 0 0.00 0.00 0.00 0.00
05/07/26 5:33:17 AM 38 0.0 0.0 54 85 65.8 52.7 30.007 7.26 0.0 0 0.00 0.00 0.00 0.00
05/07/26 5:34:30 AM 36 0.0 0.0 54 85 65.7 52.7 30.009 7.26 0.0 0 0.00 0.00 0.00 0.00
05/07/26 5:35:22 AM 38 0.0 0.0 54 85 65.7 52.7 30.008 7.26 0.0 0 0.00 0.00 0.00 0.00
05/07/26 5:36:35 AM 36 0.0 0.0 54 85 65.6 52.6 30.006 7.26 0.0 0 0.00 0.00 0.00 0.00
05/07/26 5:37:27 AM 32 0.0 0.0 55 85 65.5 52.6 30.007 7.26 0.0 0 0.00 0.00 0.00 0.00
05/07/26 5:38:19 AM 35 0.0 0.0 55 85 65.5 52.6 30.007 7.26 0.0 0 0.00 0.00 0.00 0.00
05/07/26 5:39:26 AM 38 0.0 0.0 55 85 65.4 52.6 30.007 7.26 0.0 0 0.00 0.00 0.00 0.00
05/07/26 5:40:18 AM 38 0.0 0.0 55 85 65.4 52.6 30.007 7.26 0.0 0 0.00 0.00 0.00 0.00
05/07/26 5:41:31 AM 38 0.0 0.0 55 85 65.3 52.6 30.007 7.26 0.0 0 0.00 0.00 0.00 0.00
05/07/26 5:42:23 AM 38 0.0 0.0 55 85 65.2 52.5 30.007 7.26 0.0 0 0.00 0.00 0.00 0.00
05/07/26 5:43:36 AM 38 0.0 0.0 55 85 65.2 52.5 30.008 7.26 0.0 0 0.00 0.00 0.00 0.00
05/07/26 5:44:22 AM 38 0.0 0.0 55 85 65.2 52.5 30.007 7.26 0.0 0 0.00 0.00 0.00 0.00
05/07/26 5:45:35 AM 35 0.0 0.0 55 85 65.1 52.4 30.008 7.26 0.0 0 0.00 0.00 0.00 0.00
05/07/26 5:46:24 AM 40 0.0 0.0 55 85 65.0 52.4 30.007 7.26 0.0 0 0.00 0.00 0.00 0.00
05/07/26 5:47:15 AM 38 0.0 0.0 55 85 64.9 52.4 30.007 7.26 0.0 0 0.00 0.00 0.00 0.00
05/07/26 5:48:28 AM 31 0.0 0.0 55 85 64.9 52.4 30.008 7.26 0.0 0 0.00 0.00 0.00 0.00
05/07/26 5:49:35 AM 38 0.0 0.0 55 85 64.8 52.4 30.006 7.26 0.0 0 0.00 0.00 0.00 0.00
05/07/26 5:50:27 AM 36 0.0 0.0 55 85 64.8 52.4 30.008 7.26 0.0 0 0.00 0.00 0.00 0.00
05/07/26 5:51:19 AM 38 0.0 0.0 55 85 64.8 52.4 30.005 7.26 0.0 0 0.00 0.00 0.00 0.00
05/07/26 5:52:32 AM 36 0.0 0.0 55 85 64.8 52.3 30.008 7.26 0.0 0 0.00 0.00 0.00 0.00
05/07/26 5:53:24 AM 38 0.0 0.0 55 85 64.7 52.3 30.007 7.26 0.0 0 0.00 0.00 0.00 0.00
05/07/26 5:54:16 AM 38 0.0 0.0 55 85 64.7 52.3 30.009 7.26 0.0 0 0.00 0.00 0.00 0.00
05/07/26 5:55:26 AM 38 0.0 0.0 55 85 64.6 52.3 30.007 7.26 0.0 0 0.00 0.00 0.00 0.00
05/07/26 5:56:18 AM 38 0.0 0.0 55 85 64.6 52.2 30.008 7.26 0.0 0 0.00 0.00 0.00 0.00
05/07/26 5:57:31 AM 36 0.0 0.0 55 85 64.5 52.2 30.009 7.26 0.0 5 0.00 0.00 0.00 0.00
05/07/26 5:58:23 AM 39 0.0 0.0 56 85 64.4 52.2 30.008 7.26 0.0 5 0.00 0.00 0.00 0.00
05/07/26 5:59:33 AM 32 0.0 0.0 56 85 64.4 52.2 30.008 7.26 0.0 5 0.00 0.00 0.00 0.00
05/07/26 6:00:25 AM 31 0.0 0.0 56 85 64.4 52.2 30.007 7.26 0.0 7 0.00 0.00 0.00 0.00
05/07/26 6:01:35 AM 36 0.0 0.0 56 85 64.3 52.2 30.007 7.26 0.0 7 0.00 0.00 0.00 0.00
05/07/26 6:02:27 AM 35 0.0 0.0 56 85 64.3 52.2 30.008 7.26 0.0 7 0.00 0.00 0.00 0.00
05/07/26 6:03:19 AM 38 0.0 0.0 56 85 64.2 52.2 30.009 7.26 0.0 7 0.00 0.00 0.00 0.00
05/07/26 6:04:32 AM 35 0.0 0.0 56 85 64.2 52.2 30.008 7.26 0.0 7 0.00 0.00 0.00 0.00
05/07/26 6:05:18 AM 35 0.0 0.0 56 85 64.2 52.2 30.009 7.26 0.0 9 0.00 0.00 0.00 0.00
05/07/26 6:06:31 AM 36 0.0 0.0 57 85 64.2 52.1 30.009 7.26 0.0 9 0.00 0.00 0.00 0.00
05/07/26 6:07:23 AM 32 0.0 0.0 57 85 64.1 52.1 30.011 7.26 0.0 9 0.00 0.00 0.00 0.00
05/07/26 6:08:33 AM 35 0.0 0.0 57 85 64.1 52.1 30.006 7.26 0.0 9 0.00 0.00 0.00 0.00
05/07/26 6:09:28 AM 35 0.0 0.0 57 85 64.1 52.1 30.010 7.26 0.0 11 0.00 0.00 0.00 0.00
05/07/26 6:10:17 AM 39 0.0 0.0 57 85 64.1 52.0 30.009 7.26 0.0 11 0.00 0.00 0.00 0.00
05/07/26 6:11:27 AM 36 0.0 0.0 57 85 64.0 52.0 30.011 7.26 0.0 11 0.00 0.00 0.00 0.00
05/07/26 6:12:19 AM 31 0.0 0.0 57 85 64.0 52.0 30.012 7.26 0.0 11 0.00 0.00 0.00 0.00
05/07/26 6:13:32 AM 31 0.0 0.0 57 85 64.0 52.0 30.014 7.26 0.0 12 0.00 0.00 0.00 0.00
05/07/26 6:14:24 AM 38 0.0 0.0 57 85 63.9 52.0 30.012 7.26 0.0 12 0.00 0.00 0.00 0.00
05/07/26 6:15:37 AM 38 0.0 0.0 57 85 63.9 52.0 30.014 7.26 0.0 12 0.00 0.00 0.00 0.00
05/07/26 6:16:26 AM 37 0.0 0.0 57 85 63.9 52.0 30.014 7.26 0.0 14 0.00 0.00 0.00 0.00
05/07/26 6:17:36 AM 38 0.0 0.0 57 85 63.9 52.1 30.014 7.26 0.0 14 0.00 0.00 0.00 0.00
05/07/26 6:18:28 AM 36 0.0 0.0 57 85 63.8 52.1 30.015 7.26 0.0 14 0.00 0.00 0.00 0.00
05/07/26 6:19:20 AM 32 0.0 0.0 57 85 63.8 52.1 30.017 7.26 0.0 16 0.00 0.00 0.00 0.00
05/07/26 6:20:33 AM 34 0.0 0.0 57 86 63.8 52.2 30.016 7.26 0.0 16 0.00 0.00 0.00 0.00
05/07/26 6:21:18 AM 34 0.0 0.0 57 86 63.8 52.2 30.017 7.26 0.0 16 0.00 0.00 0.00 0.00
05/07/26 6:22:32 AM 36 0.0 0.0 57 86 63.8 52.2 30.015 7.26 0.0 18 0.00 0.00 0.00 0.00
05/07/26 6:23:23 AM 36 0.0 0.0 57 86 63.7 52.2 30.015 7.26 0.0 18 0.00 0.00 0.00 0.00
05/07/26 6:24:15 AM 38 0.0 0.0 57 86 63.7 52.2 30.018 7.26 0.0 18 0.00 0.00 0.00 0.00
05/07/26 6:25:29 AM 37 0.0 0.0 57 86 63.6 52.2 30.013 7.26 0.0 19 0.00 0.00 0.00 0.00
05/07/26 6:26:20 AM 35 0.0 0.0 57 86 63.6 52.2 30.011 7.26 0.0 25 0.00 0.00 0.00 0.00
05/07/26 6:27:27 AM 36 0.0 0.0 57 86 63.6 52.2 30.015 7.26 0.0 32 0.00 0.00 0.00 0.00
05/07/26 6:28:19 AM 38 0.0 0.0 57 86 63.6 52.2 30.012 7.26 0.0 33 0.00 0.00 0.00 0.00
05/07/26 6:29:29 AM 35 0.0 0.0 58 86 63.5 52.2 30.014 7.26 0.0 33 0.00 0.00 0.00 0.00
05/07/26 6:30:24 AM 36 0.0 0.0 58 86 63.5 52.2 30.015 7.26 0.0 35 0.00 0.00 0.00 0.00
05/07/26 6:31:34 AM 36 0.0 0.0 58 86 63.5 52.2 30.015 7.26 0.0 37 0.00 0.00 0.00 0.00
05/07/26 6:32:23 AM 36 0.0 0.0 58 86 63.5 52.2 30.015 7.26 0.0 39 0.00 0.00 0.00 0.00
05/07/26 6:33:33 AM 36 0.0 0.0 58 86 63.5 52.3 30.014 7.26 0.0 40 0.00 0.00 0.00 0.00
05/07/26 6:34:25 AM 38 0.0 0.0 58 86 63.4 52.3 30.014 7.26 0.0 42 0.00 0.00 0.00 0.00
05/07/26 6:35:17 AM 37 0.0 0.0 58 86 63.4 52.4 30.015 7.26 0.0 44 0.00 0.00 0.00 0.00
05/07/26 6:36:30 AM 38 0.0 0.0 58 86 63.4 52.5 30.013 7.26 0.0 46 0.00 0.00 0.00 0.00
05/07/26 6:37:16 AM 34 0.0 0.0 58 86 63.4 52.6 30.015 7.26 0.0 47 0.00 0.00 0.00 0.00
05/07/26 6:38:29 AM 38 0.0 0.0 58 86 63.4 52.7 30.014 7.26 0.0 49 0.00 0.00 0.00 0.00
05/07/26 6:39:21 AM 38 0.0 0.0 58 86 63.3 52.7 30.018 7.26 0.0 53 0.00 0.00 0.00 0.00
05/07/26 6:40:34 AM 38 0.0 0.0 58 86 63.4 52.8 30.016 7.26 0.0 58 0.00 0.00 0.00 0.00
05/07/26 6:41:23 AM 39 0.0 0.0 58 86 63.4 52.8 30.015 7.26 0.0 58 0.00 0.00 0.00 0.00
05/07/26 6:42:15 AM 36 0.0 0.0 58 86 63.4 52.9 30.015 7.26 0.0 62 0.00 0.00 0.00 0.00
05/07/26 6:43:25 AM 31 0.0 0.0 58 86 63.4 52.9 30.019 7.26 0.0 67 0.00 0.00 0.00 0.00
05/07/26 6:44:35 AM 36 0.0 0.0 58 86 63.4 53.0 30.020 7.26 0.0 67 0.00 0.00 0.00 0.00
05/07/26 6:45:54 AM 34 0.0 0.0 58 86 63.4 53.0 30.017 7.26 0.0 74 0.00 0.00 0.00 0.00
05/07/26 6:46:28 AM 35 0.0 0.0 58 86 63.4 53.0 30.019 7.26 0.0 76 0.00 0.00 0.00 0.00
05/07/26 6:47:20 AM 35 0.0 0.0 58 86 63.3 53.1 30.021 7.26 0.0 79 0.00 0.00 0.00 0.00
05/07/26 6:48:27 AM 35 0.0 0.0 59 86 63.3 53.1 30.021 7.26 0.0 83 0.00 0.00 0.00 0.00
05/07/26 6:49:22 AM 38 0.0 0.0 59 86 63.3 53.1 30.018 7.26 0.0 86 0.00 0.00 0.00 0.00
05/07/26 6:50:32 AM 38 0.0 0.0 59 86 63.4 53.2 30.018 7.26 0.0 90 0.00 0.00 0.00 0.00
05/07/26 6:51:24 AM 36 0.0 0.0 59 86 63.4 53.2 30.018 7.26 0.0 91 0.00 0.00 0.00 0.00
05/07/26 6:52:37 AM 36 0.0 0.0 59 87 63.3 53.3 30.018 7.26 0.0 91 0.00 0.00 0.00 0.00
05/07/26 6:53:29 AM 34 0.0 0.0 59 87 63.4 53.4 30.018 7.26 0.0 97 0.00 0.00 0.00 0.00
05/07/26 6:54:36 AM 38 0.0 0.0 59 87 63.3 53.6 30.018 7.26 0.0 104 0.00 0.00 0.00 0.00
05/07/26 6:55:27 AM 36 0.0 0.0 59 86 63.4 53.6 30.018 7.26 0.0 104 0.00 0.00 0.00 0.00
05/07/26 6:56:20 AM 38 0.0 0.0 59 86 63.4 53.7 30.018 7.26 0.0 105 0.00 0.00 0.00 0.00
05/07/26 6:57:33 AM 36 0.0 0.0 59 86 63.4 53.8 30.017 7.26 0.0 113 0.00 0.00 0.00 0.00
05/07/26 6:58:27 AM 36 0.0 0.0 59 86 63.4 53.9 30.018 7.26 0.0 116 0.00 0.00 0.00 0.00
05/07/26 6:59:35 AM 38 0.0 0.0 59 87 63.3 53.9 30.018 7.26 0.0 116 0.00 0.00 0.00 0.00
05/07/26 7:00:48 AM 35 0.0 0.0 59 86 63.4 54.0 30.019 7.26 0.0 121 0.00 0.00 0.00 0.00
05/07/26 7:01:21 AM 36 0.0 0.0 60 86 63.4 54.1 30.017 7.26 0.0 125 0.00 0.00 0.00 0.00
05/07/26 7:02:31 AM 36 0.0 0.0 60 86 63.4 54.2 30.020 7.26 0.0 125 0.00 0.00 0.00 0.00
05/07/26 7:03:23 AM 36 0.0 0.0 60 86 63.4 54.3 30.019 7.26 0.0 130 0.00 0.00 0.00 0.00
05/07/26 7:04:34 AM 34 0.0 0.0 60 86 63.4 54.5 30.021 7.26 0.0 134 0.00 0.00 0.00 0.00
05/07/26 7:05:26 AM 35 0.0 0.0 60 86 63.5 54.6 30.020 7.26 0.0 137 0.00 0.00 0.00 0.00
05/07/26 7:06:36 AM 38 0.0 0.0 60 86 63.5 54.7 30.021 7.26 0.0 139 0.00 0.00 0.00 0.00
05/07/26 7:07:28 AM 35 0.0 0.0 60 86 63.5 54.9 30.022 7.26 0.0 142 0.00 0.00 0.00 0.00
05/07/26 7:08:20 AM 38 0.0 0.0 60 86 63.5 55.0 30.022 7.26 0.0 148 0.00 0.00 0.00 0.00
05/07/26 7:09:33 AM 32 0.0 0.0 60 86 63.6 55.2 30.019 7.26 0.0 149 0.00 0.00 0.00 0.00
05/07/26 7:10:22 AM 34 0.0 0.0 60 86 63.6 55.3 30.023 7.26 0.0 153 0.00 0.00 0.00 0.00
05/07/26 7:11:32 AM 32 0.0 0.0 60 86 63.6 55.4 30.023 7.26 0.0 160 0.00 0.00 0.00 0.00
05/07/26 7:12:24 AM 35 0.0 0.0 60 86 63.6 55.5 30.022 7.26 0.0 162 0.00 0.00 0.00 0.00
05/07/26 7:13:37 AM 35 0.0 0.0 60 86 63.6 55.7 30.023 7.26 0.0 165 0.00 0.00 0.00 0.00
05/07/26 7:14:29 AM 36 0.0 0.0 60 86 63.7 55.7 30.021 7.26 0.0 169 0.00 0.00 0.00 0.00
05/07/26 7:15:21 AM 36 0.0 0.0 60 86 63.7 55.8 30.021 7.26 0.0 172 0.00 0.00 0.00 0.00
05/07/26 7:16:25 AM 36 0.0 0.0 60 86 63.7 55.9 30.021 7.26 0.0 176 0.00 0.00 0.00 0.00
05/07/26 7:17:20 AM 38 0.0 0.0 60 86 63.8 56.0 30.022 7.26 0.0 179 0.00 0.00 0.00 0.00
05/07/26 7:18:30 AM 31 0.0 0.0 60 86 63.8 56.1 30.025 7.26 0.0 183 0.00 0.00 0.00 0.00
05/07/26 7:19:22 AM 35 0.0 0.0 60 86 63.8 56.1 30.023 7.26 0.0 185 0.00 0.00 0.00 0.00
05/07/26 7:20:32 AM 38 0.0 0.0 60 86 63.8 56.3 30.022 7.26 0.0 188 0.00 0.00 0.00 0.00
05/07/26 7:21:24 AM 32 0.0 0.0 60 86 63.8 56.3 30.022 7.26 0.0 192 0.00 0.00 0.00 0.00
05/07/26 7:22:37 AM 36 0.0 0.0 60 86 63.8 56.4 30.023 7.26 0.0 195 0.00 0.00 0.00 0.00
05/07/26 7:23:29 AM 38 0.0 0.0 60 86 63.9 56.6 30.023 7.26 0.0 199 0.00 0.00 0.00 0.00
05/07/26 7:24:21 AM 38 0.0 0.0 60 86 63.9 56.7 30.025 7.26 0.0 202 0.00 0.00 0.00 0.00
05/07/26 7:25:34 AM 38 0.0 0.0 60 86 63.9 56.8 30.023 7.26 0.0 207 0.00 0.00 0.00 0.00
05/07/26 7:26:20 AM 38 0.0 0.0 61 86 64.0 57.0 30.026 7.26 0.0 207 0.00 0.00 0.00 0.00
05/07/26 7:27:33 AM 38 0.0 0.0 61 86 64.0 57.2 30.026 7.26 0.0 214 0.00 0.00 0.00 0.00
05/07/26 7:28:25 AM 35 0.0 0.0 61 86 64.0 57.3 30.022 7.26 0.0 218 0.00 0.00 0.00 0.00
05/07/26 7:29:35 AM 38 0.0 0.0 61 86 64.1 57.5 30.025 7.26 0.0 221 0.00 0.00 0.00 0.00
05/07/26 7:30:30 AM 32 0.0 0.0 61 85 64.1 57.7 30.024 7.26 0.0 223 0.00 0.00 0.00 0.00
05/07/26 7:31:19 AM 36 0.0 0.0 61 85 64.1 57.8 30.024 7.26 0.0 227 0.00 0.00 0.00 0.00
05/07/26 7:32:29 AM 31 0.0 0.0 61 85 64.1 58.0 30.023 7.26 0.0 230 0.00 0.00 0.00 0.00
05/07/26 7:33:21 AM 38 0.0 0.0 61 85 64.2 58.1 30.022 7.26 0.0 234 0.00 0.00 0.00 0.00
05/07/26 7:34:34 AM 36 0.0 0.0 61 84 64.2 58.2 30.024 7.26 0.5 237 0.00 0.00 0.00 0.00
05/07/26 7:35:23 AM 38 0.0 0.0 61 84 64.2 58.4 30.023 7.26 0.5 241 0.00 0.00 0.00 0.00
05/07/26 7:36:18 AM 35 0.0 0.0 61 84 64.3 58.5 30.022 7.26 0.5 244 0.00 0.00 0.00 0.00
05/07/26 7:37:25 AM 35 0.0 0.0 61 83 64.3 58.6 30.022 7.26 0.5 248 0.00 0.00 0.00 0.00
05/07/26 7:38:35 AM 35 0.0 0.0 61 83 64.4 58.8 30.022 7.26 0.5 250 0.00 0.00 0.00 0.00
05/07/26 7:39:27 AM 34 0.0 0.0 61 83 64.4 58.9 30.021 7.26 0.5 253 0.00 0.00 0.00 0.00
05/07/26 7:40:19 AM 34 0.0 0.0 61 82 64.4 58.9 30.021 7.26 0.5 257 0.00 0.00 0.00 0.00
05/07/26 7:41:32 AM 38 0.0 0.0 61 82 64.5 59.1 30.018 7.26 0.5 264 0.00 0.00 0.00 0.00
05/07/26 7:42:18 AM 37 0.0 0.0 61 81 64.5 59.2 30.019 7.26 0.5 264 0.00 0.00 0.00 0.00
05/07/26 7:43:31 AM 34 0.0 0.0 61 81 64.6 59.3 30.021 7.26 0.5 269 0.00 0.00 0.00 0.00
05/07/26 7:44:23 AM 30 0.0 0.0 61 81 64.5 59.4 30.016 7.26 0.6 272 0.00 0.00 0.00 0.00
05/07/26 7:45:36 AM 30 0.0 0.0 61 81 64.6 59.5 30.016 7.26 0.6 276 0.00 0.00 0.00 0.00
05/07/26 7:46:28 AM 36 0.0 0.0 61 80 64.6 59.6 30.017 7.26 0.6 279 0.00 0.00 0.00 0.00
05/07/26 7:47:20 AM 37 0.0 0.0 61 80 64.7 59.7 30.017 7.26 0.6 281 0.00 0.00 0.00 0.00
05/07/26 7:48:30 AM 36 0.0 0.0 61 80 64.7 59.8 30.022 7.26 0.6 285 0.00 0.00 0.00 0.00
05/07/26 7:49:22 AM 35 0.0 0.0 61 80 64.8 59.9 30.017 7.26 0.6 287 0.00 0.00 0.00 0.00
05/07/26 7:50:32 AM 35 0.0 0.0 61 80 64.8 60.0 30.022 7.26 0.6 287 0.00 0.00 0.00 0.00
05/07/26 7:51:24 AM 36 0.0 0.0 61 80 64.8 60.2 30.018 7.26 0.7 292 0.00 0.00 0.00 0.00
05/07/26 7:52:16 AM 35 0.0 0.0 61 80 64.9 60.3 30.018 7.26 0.7 297 0.00 0.00 0.00 0.00
05/07/26 7:53:23 AM 36 0.0 0.0 61 79 64.9 60.5 30.017 7.26 0.7 301 0.00 0.00 0.00 0.00
05/07/26 7:54:36 AM 32 0.0 0.0 61 79 65.0 60.7 30.021 7.26 0.7 309 0.00 0.00 0.00 0.00
05/07/26 7:55:28 AM 38 0.0 0.0 61 79 65.0 60.9 30.016 7.26 0.7 309 0.00 0.00 0.00 0.00
05/07/26 7:56:20 AM 31 0.0 0.0 61 79 65.0 61.0 30.019 7.26 0.7 313 0.00 0.00 0.00 0.00
05/07/26 7:57:33 AM 29 0.0 0.0 61 78 65.1 61.1 30.020 7.26 0.7 320 0.00 0.00 0.00 0.00
05/07/26 7:58:19 AM 35 0.0 0.0 61 78 65.1 61.3 30.019 7.26 0.7 323 0.00 0.00 0.00 0.00
05/07/26 7:59:32 AM 36 0.0 0.0 61 78 65.1 61.5 30.019 7.26 0.7 327 0.00 0.00 0.00 0.00
05/07/26 8:00:24 AM 34 2.0 3.0 61 77 65.2 61.7 30.021 7.26 0.8 330 0.00 0.00 0.00 0.00
05/07/26 8:01:37 AM 37 2.0 3.0 61 77 65.2 62.0 30.021 7.26 0.8 334 0.00 0.00 0.00 0.00
05/07/26 8:02:26 AM 34 1.0 3.0 61 76 65.2 62.1 30.019 7.26 0.8 338 0.00 0.00 0.00 0.00
05/07/26 8:03:21 AM 34 0.0 3.0 61 76 65.3 62.2 30.020 7.26 0.8 341 0.00 0.00 0.00 0.00
05/07/26 8:04:28 AM 36 2.0 3.0 61 76 65.3 62.5 30.021 7.26 0.8 341 0.00 0.00 0.00 0.00
05/07/26 8:05:17 AM 35 1.0 3.0 61 75 65.3 62.6 30.019 7.26 0.8 348 0.00 0.00 0.00 0.00
05/07/26 8:06:30 AM 32 1.0 3.0 61 74 65.4 62.7 30.020 7.26 0.9 352 0.00 0.00 0.00 0.00
05/07/26 8:07:22 AM 35 2.0 3.0 61 74 65.4 62.9 30.020 7.26 0.9 352 0.00 0.00 0.00 0.00
05/07/26 8:08:35 AM 35 1.0 3.0 61 73 65.4 63.0 30.020 7.26 0.9 359 0.00 0.00 0.00 0.00
05/07/26 8:09:21 AM 38 1.0 3.0 61 73 65.5 63.1 30.021 7.26 0.9 360 0.00 0.00 0.00 0.00
05/07/26 8:10:34 AM 36 1.0 3.0 61 73 65.6 63.4 30.022 7.26 0.9 364 0.00 0.00 0.00 0.00
05/07/26 8:11:26 AM 34 2.0 3.0 61 72 65.6 63.5 30.022 7.26 0.9 371 0.00 0.00 0.00 0.00
05/07/26 8:12:18 AM 35 2.0 3.0 61 71 65.6 63.6 30.022 7.26 0.9 371 0.00 0.00 0.00 0.00
05/07/26 8:13:31 AM 38 1.0 3.0 61 71 65.7 63.8 30.019 7.26 1.0 378 0.00 0.00 0.00 0.00
05/07/26 8:14:20 AM 36 1.0 3.0 61 71 65.7 63.9 30.022 7.26 1.0 380 0.00 0.00 0.00 0.00
05/07/26 8:15:33 AM 36 1.0 3.0 61 70 65.7 64.0 30.023 7.26 1.0 383 0.00 0.00 0.00 0.00
05/07/26 8:16:25 AM 35 2.0 3.0 61 70 65.7 64.3 30.022 7.26 1.0 387 0.00 0.00 0.00 0.00
05/07/26 8:17:35 AM 32 2.0 3.0 61 70 65.7 64.4 30.022 7.26 1.0 390 0.00 0.00 0.00 0.00
05/07/26 8:18:27 AM 32 0.0 3.0 61 69 65.8 64.5 30.022 7.26 1.0 394 0.00 0.00 0.00 0.00
05/07/26 8:19:19 AM 38 0.0 3.0 61 69 65.8 64.7 30.024 7.26 1.0 397 0.00 0.00 0.00 0.00
05/07/26 8:20:29 AM 37 1.0 3.0 61 68 65.8 64.8 30.023 7.26 1.1 401 0.00 0.00 0.00 0.00
05/07/26 8:21:21 AM 38 2.0 3.0 61 68 65.9 64.9 30.021 7.26 1.1 404 0.00 0.00 0.00 0.00
05/07/26 8:22:31 AM 36 0.0 3.0 61 68 65.9 65.0 30.021 7.26 1.1 404 0.00 0.00 0.00 0.00
05/07/26 8:23:23 AM 34 0.0 3.0 61 68 65.9 65.2 30.026 7.26 1.1 411 0.00 0.00 0.00 0.00
05/07/26 8:24:15 AM 32 1.0 3.0 61 67 65.9 65.2 30.022 7.26 1.1 413 0.00 0.00 0.00 0.00
05/07/26 8:25:26 AM 32 0.0 3.0 61 67 66.0 65.5 30.023 7.26 1.1 417 0.00 0.00 0.00 0.00
05/07/26 8:26:36 AM 39 0.0 3.0 61 67 66.0 65.7 30.023 7.26 1.2 424 0.00 0.00 0.00 0.00
05/07/26 8:27:28 AM 38 1.0 3.0 61 67 66.0 65.8 30.023 7.26 1.2 427 0.00 0.00 0.00 0.00
05/07/26 8:28:20 AM 36 3.0 3.0 61 66 66.0 65.9 30.025 7.26 1.2 431 0.00 0.00 0.00 0.00
05/07/26 8:29:33 AM 31 0.0 4.0 61 66 66.1 66.1 30.022 7.26 1.2 432 0.00 0.00 0.00 0.00
05/07/26 8:30:22 AM 35 3.0 4.0 61 66 66.1 66.2 30.025 7.26 1.2 436 0.00 0.00 0.00 0.00
05/07/26 8:31:29 AM 36 3.0 4.0 61 65 66.1 66.3 30.024 7.26 1.3 439 0.00 0.00 0.00 0.00
05/07/26 8:32:24 AM 36 3.0 4.0 61 65 66.2 66.4 30.023 7.26 1.3 443 0.00 0.00 0.00 0.00
05/07/26 8:33:34 AM 36 2.0 5.0 61 64 66.1 66.5 30.025 7.26 1.3 448 0.00 0.00 0.00 0.00
05/07/26 8:34:26 AM 36 1.0 5.0 61 64 66.2 66.6 30.023 7.26 1.3 450 0.00 0.00 0.00 0.00
05/07/26 8:35:21 AM 34 1.0 5.0 61 64 66.3 66.7 30.022 7.26 1.3 454 0.00 0.00 0.00 0.00
05/07/26 8:36:28 AM 36 0.0 5.0 61 63 66.2 66.7 30.021 7.26 1.3 457 0.00 0.00 0.00 0.00
05/07/26 8:37:20 AM 35 0.0 5.0 61 63 66.3 66.8 30.023 7.26 1.3 459 0.00 0.00 0.00 0.00
05/07/26 8:38:30 AM 37 1.0 5.0 61 63 66.3 66.9 30.023 7.26 1.3 459 0.00 0.00 0.00 0.00
05/07/26 8:39:25 AM 31 1.0 5.0 61 62 66.4 67.0 30.024 7.26 1.4 466 0.00 0.00 0.00 0.00
05/07/26 8:40:17 AM 36 0.0 5.0 61 62 66.4 67.1 30.025 7.26 1.4 469 0.00 0.00 0.00 0.00
05/07/26 8:41:27 AM 36 1.0 5.0 61 62 66.4 67.2 30.024 7.26 1.4 476 0.00 0.00 0.00 0.00
05/07/26 8:42:19 AM 34 0.0 5.0 61 62 66.5 67.3 30.026 7.26 1.4 476 0.00 0.00 0.00 0.00
05/07/26 8:43:29 AM 38 0.0 5.0 61 62 66.5 67.5 30.025 7.26 1.5 482 0.00 0.00 0.00 0.00
05/07/26 8:44:21 AM 35 0.0 5.0 61 62 66.5 67.6 30.024 7.26 1.5 483 0.00 0.00 0.00 0.00
05/07/26 8:45:37 AM 38 0.0 5.0 61 63 66.5 67.7 30.027 7.26 1.5 487 0.00 0.00 0.00 0.00
05/07/26 8:46:23 AM 32 0.0 5.0 61 62 66.5 67.9 30.026 7.26 1.5 489 0.00 0.00 0.00 0.00
05/07/26 8:47:33 AM 38 0.0 5.0 61 62 66.6 68.0 30.026 7.26 1.5 492 0.00 0.00 0.00 0.00
05/07/26 8:48:28 AM 37 1.0 5.0 61 62 66.6 68.1 30.025 7.26 1.6 494 0.00 0.00 0.00 0.00
05/07/26 8:49:17 AM 32 0.0 5.0 61 62 66.6 68.2 30.024 7.26 1.6 497 0.00 0.00 0.00 0.00
05/07/26 8:50:30 AM 35 1.0 5.0 61 62 66.7 68.3 30.027 7.26 1.6 499 0.00 0.00 0.00 0.00
05/07/26 8:51:26 AM 38 1.0 5.0 61 62 66.7 68.5 30.026 7.26 1.6 503 0.00 0.00 0.00 0.00
05/07/26 8:52:33 AM 35 3.0 5.0 61 61 66.7 68.6 30.026 7.26 1.7 506 0.00 0.00 0.00 0.00
05/07/26 8:53:25 AM 35 4.0 5.0 61 61 66.7 68.7 30.023 7.26 1.7 508 0.00 0.00 0.00 0.00
05/07/26 8:54:17 AM 37 2.0 5.0 61 59 66.8 68.8 30.025 7.26 1.7 510 0.00 0.00 0.00 0.00
05/07/26 8:55:30 AM 37 2.0 5.0 61 59 66.8 68.9 30.027 7.26 1.7 512 0.00 0.00 0.00 0.00
05/07/26 8:56:22 AM 36 2.0 5.0 61 60 66.8 69.0 30.027 7.26 1.7 512 0.00 0.00 0.00 0.00
05/07/26 8:57:29 AM 34 2.0 5.0 61 59 66.8 69.1 30.024 7.26 1.7 519 0.00 0.00 0.00 0.00
05/07/26 8:58:21 AM 36 1.0 5.0 61 59 66.9 69.2 30.023 7.26 1.7 519 0.00 0.00 0.00 0.00
05/07/26 8:59:34 AM 37 1.0 5.0 61 59 66.9 69.2 30.024 7.26 1.8 522 0.00 0.00 0.00 0.00
05/07/26 9:00:29 AM 32 1.0 5.0 61 59 67.0 69.3 30.025 7.26 1.8 524 0.00 0.00 0.00 0.00
05/07/26 9:01:18 AM 32 1.0 5.0 61 59 67.0 69.4 30.024 7.26 1.8 524 0.00 0.00 0.00 0.00
05/07/26 9:02:25 AM 36 0.0 5.0 61 58 67.0 69.4 30.022 7.26 1.8 526 0.00 0.00 0.00 0.00
05/07/26 9:03:17 AM 31 1.0 5.0 61 58 67.0 69.5 30.020 7.26 1.9 524 0.00 0.00 0.00 0.00
05/07/26 9:04:27 AM 35 1.0 5.0 61 58 67.1 69.5 30.022 7.26 1.9 524 0.00 0.00 0.00 0.00
05/07/26 9:05:19 AM 36 3.0 5.0 61 58 67.0 69.6 30.022 7.26 1.9 522 0.00 0.00 0.00 0.00
05/07/26 9:06:32 AM 34 2.0 6.0 61 58 67.1 69.7 30.021 7.26 1.9 522 0.00 0.00 0.00 0.00
05/07/26 9:07:24 AM 36 2.0 6.0 61 57 67.1 69.8 30.017 7.26 1.9 522 0.00 0.00 0.00 0.00
05/07/26 9:08:31 AM 35 3.0 6.0 61 57 67.2 69.9 30.021 7.26 2.0 526 0.00 0.00 0.00 0.00
05/07/26 9:09:23 AM 35 1.0 6.0 61 57 67.1 69.9 30.021 7.26 2.0 526 0.00 0.00 0.00 0.00
05/07/26 9:10:36 AM 35 2.0 6.0 61 57 67.2 70.0 30.018 7.26 2.0 527 0.00 0.00 0.00 0.00
05/07/26 9:11:28 AM 32 2.0 6.0 61 57 67.3 70.0 30.019 7.26 2.0 527 0.00 0.00 0.00 0.00
05/07/26 9:12:18 AM 35 3.0 6.0 61 57 67.3 70.1 30.018 7.26 2.0 527 0.00 0.00 0.00 0.00
05/07/26 9:13:28 AM 32 2.0 6.0 61 57 67.2 70.1 30.017 7.26 2.1 524 0.00 0.00 0.00 0.00
05/07/26 9:14:20 AM 34 3.0 6.0 61 57 67.3 70.1 30.016 7.26 2.1 524 0.00 0.00 0.00 0.00
05/07/26 9:15:33 AM 37 1.0 6.0 61 56 67.3 70.1 30.017 7.26 2.1 527 0.00 0.00 0.00 0.00
05/07/26 9:16:25 AM 36 1.0 6.0 61 56 67.3 70.2 30.018 7.26 2.2 524 0.00 0.00 0.00 0.00
05/07/26 9:17:35 AM 35 3.0 6.0 61 58 67.4 70.3 30.017 7.26 2.2 520 0.00 0.00 0.00 0.00
05/07/26 9:18:24 AM 32 2.0 6.0 61 58 67.4 70.4 30.015 7.26 2.2 520 0.00 0.00 0.00 0.00
05/07/26 9:19:37 AM 35 1.0 6.0 61 57 67.4 70.5 30.016 7.26 2.2 520 0.00 0.00 0.00 0.00
05/07/26 9:20:29 AM 32 2.0 6.0 61 57 67.4 70.5 30.015 7.26 2.2 520 0.00 0.00 0.00 0.00
05/07/26 9:21:18 AM 35 4.0 6.0 61 57 67.5 70.7 30.015 7.26 2.2 520 0.00 0.00 0.00 0.00
05/07/26 9:22:31 AM 35 2.0 6.0 61 56 67.5 70.8 30.014 7.26 2.3 517 0.00 0.00 0.00 0.00
05/07/26 9:23:23 AM 35 2.0 6.0 61 55 67.5 70.8 30.015 7.26 2.3 517 0.00 0.00 0.00 0.00
05/07/26 9:24:34 AM 32 1.0 6.0 61 55 67.5 70.8 30.016 7.26 2.3 515 0.00 0.00 0.00 0.00
05/07/26 9:25:25 AM 34 1.0 6.0 61 55 67.5 70.8 30.014 7.26 2.3 515 0.00 0.00 0.00 0.00
05/07/26 9:26:18 AM 35 2.0 6.0 61 56 67.6 70.9 30.017 7.26 2.3 515 0.00 0.00 0.00 0.00
05/07/26 9:27:28 AM 35 1.0 6.0 61 55 67.6 71.0 30.016 7.26 2.4 517 0.00 0.00 0.00 0.00
05/07/26 9:28:20 AM 36 0.0 6.0 61 55 67.6 71.1 30.017 7.26 2.4 512 0.00 0.00 0.00 0.00
05/07/26 9:29:27 AM 36 0.0 6.0 61 56 67.6 71.2 30.016 7.26 2.4 513 0.00 0.00 0.00 0.00
05/07/26 9:30:22 AM 32 2.0 6.0 61 56 67.6 71.3 30.015 7.26 2.4 512 0.00 0.00 0.00 0.00
05/07/26 9:31:32 AM 32 5.0 6.0 61 56 67.7 71.4 30.015 7.26 2.5 513 0.00 0.00 0.00 0.00
05/07/26 9:32:24 AM 37 1.0 6.0 61 56 67.6 71.5 30.018 7.26 2.5 513 0.00 0.00 0.00 0.00
05/07/26 9:33:16 AM 34 1.0 6.0 61 55 67.7 71.6 30.015 7.26 2.5 515 0.00 0.00 0.00 0.00
05/07/26 9:34:23 AM 35 3.0 6.0 61 55 67.7 71.7 30.017 7.26 2.5 515 0.00 0.00 0.00 0.00
05/07/26 9:35:15 AM 35 2.0 6.0 61 55 67.8 71.8 30.016 7.26 2.5 512 0.00 0.00 0.00 0.00
05/07/26 9:36:28 AM 36 2.0 6.0 61 54 67.8 71.8 30.016 7.26 2.6 512 0.00 0.00 0.00 0.00
05/07/26 9:37:20 AM 32 2.0 6.0 61 54 67.8 71.9 30.017 7.26 2.6 512 0.00 0.00 0.00 0.00
05/07/26 9:38:34 AM 38 2.0 6.0 61 54 67.8 71.9 30.015 7.26 2.6 513 0.00 0.00 0.00 0.00
05/07/26 9:39:23 AM 37 3.0 6.0 61 54 67.9 72.0 30.016 7.26 2.6 515 0.00 0.00 0.00 0.00
05/07/26 9:40:33 AM 36 1.0 6.0 61 54 67.8 72.0 30.015 7.26 2.7 519 0.00 0.00 0.00 0.00
05/07/26 9:41:25 AM 36 2.0 6.0 61 53 67.9 72.0 30.015 7.26 2.7 519 0.00 0.00 0.00 0.00
05/07/26 9:42:17 AM 32 4.0 9.0 61 54 67.9 72.0 30.015 7.26 2.7 520 0.00 0.00 0.00 0.00
05/07/26 9:43:30 AM 31 1.0 9.0 61 54 67.9 72.1 30.015 7.26 2.7 526 0.00 0.00 0.00 0.00
05/07/26 9:44:22 AM 35 4.0 9.0 61 53 67.9 72.2 30.014 7.26 2.7 527 0.00 0.00 0.00 0.00
05/07/26 9:45:32 AM 38 3.0 9.0 61 53 67.9 72.2 30.015 7.26 2.8 527 0.00 0.00 0.00 0.00
05/07/26 9:46:24 AM 35 4.0 9.0 61 54 68.0 72.3 30.015 7.26 2.8 531 0.00 0.00 0.00 0.00
05/07/26 9:47:34 AM 35 2.0 9.0 61 54 68.0 72.4 30.017 7.26 2.8 534 0.00 0.00 0.00 0.00
05/07/26 9:48:27 AM 32 0.0 9.0 61 54 68.0 72.5 30.015 7.26 2.8 538 0.00 0.00 0.00 0.00
05/07/26 9:49:19 AM 32 4.0 9.0 61 54 68.0 72.5 30.014 7.26 2.9 541 0.00 0.00 0.00 0.00
05/07/26 9:50:29 AM 32 2.0 9.0 61 54 68.1 72.6 30.017 7.26 2.9 548 0.00 0.00 0.00 0.00
05/07/26 9:51:18 AM 38 3.0 9.0 61 54 68.1 72.8 30.016 7.26 2.9 550 0.00 0.00 0.00 0.00
05/07/26 9:52:34 AM 38 6.0 9.0 61 54 68.1 72.8 30.014 7.26 2.9 552 0.00 0.00 0.00 0.00
05/07/26 9:53:23 AM 35 6.0 9.0 61 54 68.1 72.9 30.016 7.26 2.9 557 0.00 0.00 0.00 0.00
05/07/26 9:54:15 AM 36 3.0 9.0 61 53 68.1 72.9 30.015 7.26 3.0 563 0.00 0.00 0.00 0.00
05/07/26 9:55:28 AM 37 5.0 9.0 61 53 68.2 72.9 30.015 7.26 3.0 575 0.00 0.00 0.00 0.00
05/07/26 9:56:17 AM 38 2.0 9.0 61 53 68.2 72.9 30.015 7.26 3.0 575 0.00 0.00 0.00 0.00
05/07/26 9:57:31 AM 34 1.0 9.0 61 54 68.3 72.9 30.015 7.26 3.0 582 0.00 0.00 0.00 0.00
05/07/26 9:58:20 AM 35 2.0 9.0 61 53 68.3 72.9 30.014 7.26 3.1 589 0.00 0.00 0.00 0.00
05/07/26 9:59:33 AM 35 0.0 9.0 61 53 68.3 73.0 30.015 7.26 3.1 599 0.00 0.00 0.00 0.00
05/07/26 10:00:25 AM 38 1.0 9.0 61 53 68.3 73.0 30.016 7.26 3.1 599 0.00 0.00 0.00 0.00
05/07/26 10:01:35 AM 34 0.0 9.0 61 54 68.3 73.2 30.015 7.26 3.1 608 0.00 0.00 0.00 0.00
05/07/26 10:02:24 AM 34 2.0 9.0 61 53 68.4 73.3 30.015 7.26 3.2 615 0.00 0.00 0.00 0.00
05/07/26 10:03:16 AM 36 3.0 9.0 61 53 68.4 73.5 30.018 7.26 3.2 624 0.00 0.00 0.00 0.00
05/07/26 10:04:29 AM 34 4.0 9.0 61 52 68.4 73.7 30.017 7.26 3.2 631 0.00 0.00 0.00 0.00
05/07/26 10:05:24 AM 35 3.0 9.0 61 52 68.4 73.8 30.018 7.26 3.2 636 0.00 0.00 0.00 0.00
05/07/26 10:06:32 AM 38 2.0 9.0 61 53 68.4 73.9 30.017 7.26 3.2 643 0.00 0.00 0.00 0.00
05/07/26 10:07:20 AM 31 2.0 9.0 61 52 68.5 74.0 30.017 7.26 3.3 654 0.00 0.00 0.00 0.00
05/07/26 10:08:34 AM 34 1.0 9.0 61 51 68.5 74.0 30.015 7.26 3.3 663 0.00 0.00 0.00 0.00
05/07/26 10:09:26 AM 35 2.0 9.0 61 51 68.5 74.0 30.016 7.26 3.3 675 0.00 0.00 0.00 0.00
05/07/26 10:10:18 AM 38 1.0 9.0 61 51 68.5 74.1 30.015 7.26 3.3 687 0.00 0.00 0.00 0.00
05/07/26 10:11:31 AM 36 2.0 9.0 61 51 68.6 74.0 30.016 7.26 3.4 707 0.00 0.00 0.00 0.00
05/07/26 10:12:20 AM 32 4.0 9.0 61 51 68.6 74.1 30.015 7.26 3.4 707 0.00 0.00 0.00 0.00
05/07/26 10:13:30 AM 35 2.0 9.0 61 50 68.6 74.0 30.016 7.26 3.4 707 0.00 0.00 0.00 0.00
05/07/26 10:14:22 AM 34 2.0 9.0 61 50 68.6 74.0 30.017 7.26 3.4 707 0.00 0.00 0.00 0.00
05/07/26 10:15:57 AM 34 4.0 9.0 61 51 68.7 74.0 30.015 7.26 3.5 737 0.00 0.00 0.00 0.00
05/07/26 10:16:28 AM 34 3.0 9.0 61 52 68.7 74.1 30.017 7.26 3.5 737 0.00 0.00 0.00 0.00
05/07/26 10:17:20 AM 35 3.0 9.0 61 52 68.7 74.2 30.015 7.26 3.5 742 0.00 0.00 0.00 0.00
05/07/26 10:18:30 AM 37 5.0 9.0 61 51 68.7 74.4 30.016 7.26 3.5 747 0.00 0.00 0.00 0.00
05/07/26 10:19:22 AM 35 4.0 9.0 61 51 68.8 74.5 30.015 7.26 3.6 752 0.00 0.00 0.00 0.00
05/07/26 10:20:35 AM 35 9.0 9.0 61 51 68.7 74.6 30.015 7.26 3.6 758 0.00 0.00 0.00 0.00
05/07/26 10:21:24 AM 35 4.0 9.0 61 50 68.8 74.6 30.015 7.26 3.6 758 0.00 0.00 0.00 0.00
05/07/26 10:22:16 AM 36 1.0 9.0 61 50 68.9 74.6 30.013 7.26 3.6 768 0.00 0.00 0.00 0.00
05/07/26 10:23:26 AM 34 3.0 9.0 61 50 68.8 74.5 30.014 7.26 3.6 772 0.00 0.00 0.00 0.00
05/07/26 10:24:18 AM 32 1.0 9.0 61 50 68.9 74.5 30.014 7.26 3.7 773 0.00 0.00 0.00 0.00
05/07/26 10:25:28 AM 35 0.0 9.0 61 50 68.9 74.5 30.015 7.26 3.7 773 0.00 0.00 0.00 0.00
05/07/26 10:26:20 AM 35 2.0 9.0 61 50 68.9 74.5 30.015 7.26 3.8 782 0.00 0.00 0.00 0.00
05/07/26 10:27:33 AM 34 2.0 9.0 61 51 68.9 74.5 30.013 7.26 3.8 784 0.00 0.00 0.00 0.00
05/07/26 10:28:19 AM 35 2.0 9.0 61 50 69.0 74.4 30.012 7.26 3.8 786 0.00 0.00 0.00 0.00
05/07/26 10:29:33 AM 35 3.0 9.0 61 50 69.0 74.4 30.015 7.26 3.8 791 0.00 0.00 0.00 0.00
05/07/26 10:30:25 AM 37 4.0 9.0 61 50 69.0 74.4 30.015 7.26 3.9 795 0.00 0.00 0.00 0.00
05/07/26 10:31:17 AM 36 1.0 9.0 61 50 69.0 74.4 30.013 7.26 3.9 798 0.00 0.00 0.00 0.00
05/07/26 10:32:30 AM 34 4.0 9.0 61 50 69.0 74.5 30.012 7.26 3.9 800 0.00 0.00 0.00 0.00
05/07/26 10:33:22 AM 32 1.0 9.0 61 50 69.1 74.5 30.012 7.26 3.9 802 0.00 0.00 0.00 0.00
05/07/26 10:34:29 AM 32 2.0 9.0 61 50 69.2 74.6 30.011 7.26 3.9 803 0.00 0.00 0.00 0.00
05/07/26 10:35:21 AM 35 2.0 9.0 61 50 69.1 74.8 30.012 7.26 4.0 805 0.00 0.00 0.00 0.00
05/07/26 10:36:34 AM 38 3.0 9.0 61 50 69.1 74.9 30.011 7.26 4.0 809 0.00 0.00 0.00 0.00
05/07/26 10:37:27 AM 36 3.0 9.0 61 50 69.2 75.2 30.011 7.26 4.0 810 0.00 0.00 0.00 0.00
05/07/26 10:38:19 AM 34 4.0 9.0 61 50 69.2 75.3 30.012 7.26 4.0 810 0.00 0.00 0.00 0.00
05/07/26 10:39:26 AM 34 5.0 9.0 61 49 69.2 75.5 30.010 7.26 4.0 814 0.00 0.00 0.00 0.00
05/07/26 10:40:21 AM 38 3.0 9.0 61 49 69.2 75.6 30.011 7.26 4.1 816 0.00 0.00 0.00 0.00
05/07/26 10:41:31 AM 36 3.0 9.0 61 49 69.3 75.6 30.011 7.26 4.1 821 0.00 0.00 0.00 0.00
05/07/26 10:42:23 AM 38 5.0 9.0 61 48 69.3 75.6 30.010 7.26 4.1 824 0.00 0.00 0.00 0.00
05/07/26 10:43:36 AM 36 2.0 9.0 61 48 69.4 75.5 30.010 7.26 4.2 826 0.00 0.00 0.00 0.00
05/07/26 10:44:22 AM 35 1.0 9.0 61 48 69.4 75.5 30.011 7.26 4.2 828 0.00 0.00 0.00 0.00
05/07/26 10:45:56 AM 38 3.0 9.0 61 49 69.4 75.4 30.011 7.26 4.2 826 0.00 0.00 0.00 0.00
05/07/26 10:46:27 AM 32 0.0 9.0 61 48 69.4 75.3 30.010 7.26 4.2 830 0.00 0.00 0.00 0.00
05/07/26 10:47:19 AM 34 2.0 9.0 61 48 69.4 75.3 30.012 7.26 4.3 831 0.00 0.00 0.00 0.00
05/07/26 10:48:30 AM 37 2.0 9.0 61 49 69.5 75.5 30.010 7.26 4.3 831 0.00 0.00 0.00 0.00
05/07/26 10:49:25 AM 35 3.0 9.0 61 51 69.5 75.7 30.011 7.26 4.3 837 0.00 0.00 0.00 0.00
05/07/26 10:50:32 AM 35 2.0 9.0 61 50 69.5 75.9 30.011 7.26 4.3 838 0.00 0.00 0.00 0.00
05/07/26 10:51:24 AM 34 3.0 9.0 61 49 69.5 76.0 30.010 7.26 4.3 840 0.00 0.00 0.00 0.00
05/07/26 10:52:34 AM 37 4.0 9.0 61 50 69.5 76.2 30.006 7.26 4.3 842 0.00 0.00 0.00 0.00
05/07/26 10:53:26 AM 35 6.0 9.0 61 49 69.6 76.3 30.007 7.26 4.4 846 0.00 0.00 0.00 0.00
05/07/26 10:54:18 AM 36 4.0 9.0 61 47 69.6 76.3 30.010 7.26 4.4 846 0.00 0.00 0.00 0.00
05/07/26 10:55:28 AM 32 4.0 9.0 61 48 69.6 76.2 30.008 7.26 4.4 847 0.00 0.00 0.00 0.00
05/07/26 10:56:20 AM 34 1.0 9.0 61 47 69.6 76.2 30.009 7.26 4.4 847 0.00 0.00 0.00 0.00
05/07/26 10:57:31 AM 37 2.0 9.0 61 47 69.7 76.1 30.009 7.26 4.5 853 0.00 0.00 0.00 0.00
05/07/26 10:58:23 AM 31 3.0 9.0 61 47 69.7 76.1 30.008 7.26 4.5 856 0.00 0.00 0.00 0.00
05/07/26 10:59:33 AM 36 2.0 9.0 61 47 69.7 76.0 30.007 7.26 4.5 856 0.00 0.00 0.00 0.00
05/07/26 11:00:28 AM 31 3.0 9.0 61 48 69.7 76.0 30.009 7.26 4.6 856 0.00 0.00 0.00 0.00
05/07/26 11:01:32 AM 36 3.0 9.0 61 49 69.8 76.2 30.008 7.26 4.6 856 0.00 0.00 0.00 0.00
05/07/26 11:02:24 AM 35 1.0 9.0 61 48 69.8 76.3 30.009 7.26 4.6 856 0.00 0.00 0.00 0.00
05/07/26 11:03:16 AM 38 0.0 9.0 61 47 69.8 76.4 30.009 7.26 4.6 863 0.00 0.00 0.00 0.00
05/07/26 11:04:26 AM 32 1.0 9.0 61 47 69.8 76.4 30.008 7.26 4.6 867 0.00 0.00 0.00 0.00
05/07/26 11:05:18 AM 36 1.0 9.0 61 47 69.9 76.4 30.007 7.26 4.6 867 0.00 0.00 0.00 0.00
05/07/26 11:06:26 AM 35 2.0 9.0 61 48 69.9 76.5 30.006 7.26 4.7 868 0.00 0.00 0.00 0.00
05/07/26 11:07:21 AM 32 2.0 9.0 61 49 69.9 76.6 30.008 7.26 4.7 870 0.00 0.00 0.00 0.00
05/07/26 11:08:31 AM 35 4.0 9.0 61 48 69.9 77.0 30.007 7.26 4.8 874 0.00 0.00 0.00 0.00
05/07/26 11:09:23 AM 35 2.0 9.0 61 47 69.9 77.2 30.006 7.26 4.8 879 0.00 0.00 0.00 0.00
05/07/26 11:10:36 AM 34 3.0 9.0 61 47 70.0 77.4 30.008 7.26 4.8 881 0.00 0.00 0.00 0.00
05/07/26 11:11:25 AM 37 3.0 9.0 61 47 70.0 77.5 30.005 7.26 4.8 881 0.00 0.00 0.00 0.00
05/07/26 11:12:17 AM 36 2.0 9.0 61 46 70.0 77.7 30.007 7.26 4.8 881 0.00 0.00 0.00 0.00
05/07/26 11:13:30 AM 37 2.0 9.0 61 47 70.0 77.7 30.007 7.26 4.8 882 0.00 0.00 0.00 0.00
05/07/26 11:14:23 AM 35 4.0 9.0 61 46 70.1 77.8 30.006 7.26 4.8 884 0.00 0.00 0.00 0.00
05/07/26 11:15:36 AM 36 1.0 9.0 61 46 70.1 77.8 30.004 7.26 4.9 888 0.00 0.00 0.00 0.00
05/07/26 11:16:28 AM 32 3.0 9.0 61 46 70.1 77.8 30.003 7.26 4.9 886 0.00 0.00 0.00 0.00
05/07/26 11:17:35 AM 37 5.0 9.0 61 46 70.2 77.8 30.003 7.26 4.9 888 0.00 0.00 0.00 0.00
05/07/26 11:18:24 AM 35 5.0 9.0 61 45 70.1 77.8 30.003 7.26 4.9 891 0.00 0.00 0.00 0.00
05/07/26 11:19:19 AM 32 4.0 9.0 61 45 70.1 77.7 30.002 7.26 5.0 891 0.00 0.00 0.00 0.00
05/07/26 11:20:29 AM 35 3.0 9.0 61 45 70.2 77.5 30.002 7.26 5.0 895 0.00 0.00 0.00 0.00
05/07/26 11:21:21 AM 38 2.0 9.0 61 45 70.2 77.4 30.003 7.26 5.0 896 0.00 0.00 0.00 0.00
05/07/26 11:22:28 AM 34 3.0 9.0 61 45 70.3 77.3 30.002 7.26 5.0 898 0.00 0.00 0.00 0.00
05/07/26 11:23:21 AM 34 2.0 9.0 61 45 70.2 77.2 29.999 7.26 5.0 900 0.00 0.00 0.00 0.00
05/07/26 11:24:34 AM 35 3.0 9.0 61 45 70.2 77.0 30.002 7.26 5.0 898 0.00 0.00 0.00 0.00
05/07/26 11:25:26 AM 37 4.0 9.0 61 46 70.3 76.9 29.999 7.26 5.0 898 0.00 0.00 0.00 0.00
05/07/26 11:26:18 AM 35 3.0 9.0 61 47 70.3 76.7 30.000 7.26 5.0 902 0.00 0.00 0.00 0.00
05/07/26 11:27:28 AM 34 2.0 9.0 61 47 70.4 76.7 30.003 7.26 5.1 904 0.00 0.00 0.00 0.00
05/07/26 11:28:20 AM 34 2.0 9.0 61 48 70.4 76.9 29.999 7.26 5.1 904 0.00 0.00 0.00 0.00
05/07/26 11:29:30 AM 32 6.0 9.0 61 48 70.4 77.1 29.999 7.26 5.1 907 0.00 0.00 0.00 0.00
05/07/26 11:30:25 AM 35 5.0 9.0 61 47 70.4 77.3 30.000 7.26 5.2 907 0.00 0.00 0.00 0.00
05/07/26 11:31:18 AM 38 3.0 9.0 61 46 70.4 77.5 29.999 7.26 5.2 911 0.00 0.00 0.00 0.00
05/07/26 11:32:28 AM 35 0.0 9.0 61 46 70.5 77.7 29.999 7.26 5.2 912 0.00 0.00 0.00 0.00
05/07/26 11:33:17 AM 34 2.0 9.0 61 46 70.5 77.9 29.996 7.26 5.2 912 0.00 0.00 0.00 0.00
05/07/26 11:34:27 AM 37 0.0 9.0 61 45 70.5 77.9 29.998 7.26 5.2 914 0.00 0.00 0.00 0.00
05/07/26 11:35:19 AM 34 1.0 9.0 61 45 70.5 78.0 29.997 7.26 5.2 912 0.00 0.00 0.00 0.00
05/07/26 11:36:32 AM 37 1.0 9.0 61 45 70.6 78.1 29.997 7.26 5.3 918 0.00 0.00 0.00 0.00
05/07/26 11:37:24 AM 35 0.0 9.0 61 46 70.6 78.3 29.994 7.26 5.3 919 0.00 0.00 0.00 0.00
05/07/26 11:38:32 AM 36 4.0 9.0 61 46 70.6 78.6 29.996 7.26 5.3 921 0.00 0.00 0.00 0.00
05/07/26 11:39:24 AM 32 4.0 9.0 61 45 70.6 78.8 29.996 7.26 5.3 921 0.00 0.00 0.00 0.00
05/07/26 11:40:19 AM 34 3.0 9.0 61 45 70.7 78.9 29.995 7.26 5.4 923 0.00 0.00 0.00 0.00
05/07/26 11:41:29 AM 38 4.0 9.0 61 45 70.7 79.1 29.994 7.26 5.4 926 0.00 0.00 0.00 0.00
05/07/26 11:42:21 AM 34 3.0 9.0 61 44 70.7 79.1 29.994 7.26 5.4 926 0.00 0.00 0.00 0.00
05/07/26 11:43:31 AM 31 2.0 9.0 61 43 70.8 79.1 29.994 7.26 5.4 926 0.00 0.00 0.00 0.00
05/07/26 11:44:20 AM 35 1.0 9.0 61 43 70.8 79.1 29.996 7.26 5.4 928 0.00 0.00 0.00 0.00
05/07/26 11:45:37 AM 35 1.0 9.0 61 44 70.8 79.2 29.993 7.26 5.4 928 0.00 0.00 0.00 0.00
05/07/26 11:46:26 AM 34 1.0 9.0 61 44 70.8 79.3 29.994 7.26 5.4 930 0.00 0.00 0.00 0.00
05/07/26 11:47:18 AM 34 2.0 9.0 61 44 70.9 79.4 29.992 7.26 5.5 932 0.00 0.00 0.00 0.00
05/07/26 11:48:28 AM 37 3.0 9.0 61 45 70.9 79.6 29.993 7.26 5.5 932 0.00 0.00 0.00 0.00
05/07/26 11:49:35 AM 34 2.0 9.0 61 43 70.9 79.7 29.993 7.26 5.5 932 0.00 0.00 0.00 0.00
05/07/26 11:50:27 AM 32 1.0 9.0 61 44 71.0 79.6 29.993 7.26 5.5 935 0.00 0.00 0.00 0.00
05/07/26 11:51:20 AM 34 2.0 9.0 61 44 71.0 79.8 29.993 7.26 5.5 937 0.00 0.00 0.00 0.00
05/07/26 11:52:30 AM 37 5.0 9.0 61 44 71.0 80.0 29.992 7.26 5.5 933 0.00 0.00 0.00 0.00
05/07/26 11:53:22 AM 32 3.0 9.0 61 45 71.0 80.3 29.992 7.26 5.5 935 0.00 0.00 0.00 0.00
05/07/26 11:54:29 AM 35 4.0 9.0 61 44 71.1 80.5 29.992 7.26 5.6 937 0.00 0.00 0.00 0.00
05/07/26 11:55:21 AM 35 2.0 9.0 61 43 71.1 80.7 29.991 7.26 5.6 937 0.00 0.00 0.00 0.00
05/07/26 11:56:31 AM 34 1.0 9.0 61 42 71.1 80.9 29.989 7.26 5.6 939 0.00 0.00 0.00 0.00
05/07/26 11:57:26 AM 37 3.0 9.0 61 42 71.2 81.0 29.994 7.26 5.6 940 0.00 0.00 0.00 0.00
05/07/26 11:58:15 AM 35 6.0 9.0 61 42 71.2 81.1 29.993 7.26 5.6 940 0.00 0.00 0.00 0.00
05/07/26 11:59:26 AM 34 5.0 9.0 61 41 71.2 81.0 29.991 7.26 5.6 946 0.00 0.00 0.00 0.00
05/07/26 12:00:21 PM 36 3.0 9.0 61 41 71.3 80.8 29.989 7.26 5.6 946 0.00 0.00 0.00 0.00
05/07/26 12:01:31 PM 35 2.0 9.0 61 41 71.3 80.6 29.987 7.26 5.6 944 0.00 0.00 0.00 0.00
05/07/26 12:02:23 PM 32 3.0 9.0 61 41 71.3 80.5 29.989 7.26 5.6 946 0.00 0.00 0.00 0.00
05/07/26 12:03:36 PM 36 4.0 9.0 61 41 71.3 80.3 29.988 7.26 5.6 946 0.00 0.00 0.00 0.00
05/07/26 12:04:28 PM 32 3.0 9.0 61 41 71.3 80.1 29.986 7.26 5.6 946 0.00 0.00 0.00 0.00
05/07/26 12:05:17 PM 36 3.0 9.0 61 41 71.4 80.0 29.986 7.26 5.6 947 0.00 0.00 0.00 0.00
05/07/26 12:06:31 PM 38 2.0 9.0 61 42 71.4 79.7 29.987 7.26 5.7 949 0.00 0.00 0.00 0.00
05/07/26 12:07:23 PM 38 3.0 9.0 61 43 71.5 79.7 29.985 7.26 5.7 947 0.00 0.00 0.00 0.00
05/07/26 12:08:36 PM 35 5.0 9.0 61 43 71.4 79.8 29.985 7.26 5.7 949 0.00 0.00 0.00 0.00
05/07/26 12:09:28 PM 32 4.0 9.0 61 42 71.5 79.9 29.985 7.26 5.7 949 0.00 0.00 0.00 0.00
05/07/26 12:10:35 PM 34 3.0 9.0 61 42 71.5 80.0 29.985 7.26 5.7 956 0.00 0.00 0.00 0.00
05/07/26 12:11:27 PM 36 7.0 10.0 61 41 71.6 80.1 29.983 7.26 5.7 956 0.00 0.00 0.00 0.00
05/07/26 12:12:20 PM 36 4.0 10.0 61 42 71.6 80.2 29.984 7.26 5.7 956 0.00 0.00 0.00 0.00
05/07/26 12:13:33 PM 37 5.0 10.0 61 41 71.6 80.3 29.981 7.26 5.7 969 0.00 0.00 0.00 0.00
05/07/26 12:14:22 PM 38 5.0 10.0 61 41 71.6 80.3 29.981 7.26 5.7 972 0.00 0.00 0.00 0.00
05/07/26 12:15:32 PM 34 4.0 10.0 61 41 71.7 80.3 29.982 7.26 5.7 976 0.00 0.00 0.00 0.00
05/07/26 12:16:24 PM 36 2.0 10.0 61 41 71.7 80.4 29.981 7.26 5.7 970 0.00 0.00 0.00 0.00
05/07/26 12:17:37 PM 34 1.0 10.0 61 41 71.8 80.5 29.979 7.26 5.7 963 0.00 0.00 0.00 0.00
05/07/26 12:18:29 PM 38 2.0 10.0 61 41 71.8 80.6 29.980 7.26 5.7 956 0.00 0.00 0.00 0.00
05/07/26 12:19:22 PM 38 4.0 10.0 61 41 71.8 80.7 29.978 7.26 5.7 960 0.00 0.00 0.00 0.00
05/07/26 12:20:35 PM 35 6.0 10.0 61 40 71.9 80.9 29.980 7.26 5.8 960 0.00 0.00 0.00 0.00
05/07/26 12:21:21 PM 37 3.0 10.0 61 40 71.9 81.0 29.979 7.26 5.8 960 0.00 0.00 0.00 0.00
05/07/26 12:22:34 PM 32 4.0 10.0 61 41 72.0 81.2 29.979 7.26 5.8 958 0.00 0.00 0.00 0.00
05/07/26 12:23:23 PM 35 9.0 10.0 61 41 72.0 81.3 29.978 7.26 5.8 960 0.00 0.00 0.00 0.00
05/07/26 12:24:18 PM 36 5.0 10.0 61 39 72.1 81.3 29.979 7.26 5.8 962 0.00 0.00 0.00 0.00
05/07/26 12:25:29 PM 35 3.0 10.0 61 40 72.0 81.4 29.978 7.26 5.8 963 0.00 0.00 0.00 0.00
05/07/26 12:26:18 PM 38 3.0 10.0 61 39 72.1 81.4 29.976 7.26 5.8 969 0.00 0.00 0.00 0.00
05/07/26 12:27:28 PM 32 1.0 10.0 61 38 72.1 81.3 29.976 7.26 5.8 981 0.00 0.00 0.00 0.00
05/07/26 12:28:20 PM 37 5.0 10.0 61 39 72.1 81.3 29.976 7.26 5.8 979 0.00 0.00 0.00 0.00
05/07/26 12:29:33 PM 34 3.0 10.0 61 40 72.2 81.3 29.978 7.26 5.8 974 0.00 0.00 0.00 0.00
05/07/26 12:30:46 PM 38 2.0 10.0 61 41 72.2 81.5 29.973 7.26 5.8 967 0.00 0.00 0.00 0.00
05/07/26 12:31:17 PM 38 5.0 10.0 61 39 72.2 81.6 29.973 7.26 5.8 965 0.00 0.00 0.00 0.00
05/07/26 12:32:27 PM 35 1.0 10.0 61 39 72.3 81.7 29.974 7.26 5.8 965 0.00 0.00 0.00 0.00
05/07/26 12:33:20 PM 36 6.0 10.0 61 39 72.3 81.8 29.974 7.26 5.8 965 0.00 0.00 0.00 0.00
05/07/26 12:34:33 PM 36 5.0 10.0 61 39 72.3 81.9 29.974 7.26 5.8 962 0.00 0.00 0.00 0.00
05/07/26 12:35:25 PM 36 10.0 10.0 61 39 72.3 82.0 29.972 7.26 5.8 963 0.00 0.00 0.00 0.00
05/07/26 12:36:17 PM 36 4.0 10.0 61 38 72.3 82.0 29.970 7.26 5.8 963 0.00 0.00 0.00 0.00
05/07/26 12:37:24 PM 32 3.0 10.0 61 38 72.4 82.1 29.972 7.26 5.8 963 0.00 0.00 0.00 0.00
05/07/26 12:38:34 PM 36 6.0 10.0 61 38 72.4 82.1 29.972 7.26 5.8 963 0.00 0.00 0.00 0.00
05/07/26 12:39:26 PM 32 4.0 10.0 61 38 72.4 82.1 29.971 7.26 5.8 969 0.00 0.00 0.00 0.00
05/07/26 12:40:19 PM 36 7.0 10.0 61 39 72.5 82.2 29.972 7.26 5.8 967 0.00 0.00 0.00 0.00
05/07/26 12:41:32 PM 34 8.0 10.0 61 39 72.5 82.3 29.969 7.26 5.8 967 0.00 0.00 0.00 0.00
05/07/26 12:42:21 PM 38 4.0 10.0 61 38 72.5 82.3 29.970 7.26 5.8 963 0.00 0.00 0.00 0.00
05/07/26 12:43:31 PM 34 5.0 10.0 61 39 72.5 82.4 29.970 7.26 5.8 963 0.00 0.00 0.00 0.00
05/07/26 12:44:23 PM 34 3.0 10.0 61 39 72.6 82.4 29.969 7.26 5.8 967 0.00 0.00 0.00 0.00
05/07/26 12:45:37 PM 32 4.0 10.0 61 39 72.6 82.4 29.969 7.26 5.8 970 0.00 0.00 0.00 0.00
05/07/26 12:46:29 PM 34 2.0 10.0 61 38 72.6 82.5 29.969 7.26 5.8 969 0.00 0.00 0.00 0.00
05/07/26 12:47:21 PM 38 3.0 10.0 61 38 72.7 82.5 29.969 7.26 5.8 969 0.00 0.00 0.00 0.00
05/07/26 12:48:31 PM 35 1.0 10.0 61 37 72.7 82.6 29.968 7.26 5.8 969 0.00 0.00 0.00 0.00
05/07/26 12:49:20 PM 36 1.0 10.0 61 37 72.7 82.6 29.968 7.26 5.8 972 0.00 0.00 0.00 0.00
05/07/26 12:50:33 PM 35 3.0 10.0 61 37 72.8 82.7 29.968 7.26 5.8 970 0.00 0.00 0.00 0.00
05/07/26 12:51:25 PM 36 4.0 10.0 61 37 72.8 82.9 29.966 7.26 5.8 969 0.00 0.00 0.00 0.00
05/07/26 12:52:18 PM 36 7.0 10.0 61 37 72.8 83.0 29.967 7.26 5.8 967 0.00 0.00 0.00 0.00
05/07/26 12:53:25 PM 32 3.0 10.0 61 37 72.8 83.1 29.965 7.26 5.8 967 0.00 0.00 0.00 0.00
05/07/26 12:54:17 PM 34 0.0 10.0 61 37 72.8 83.1 29.966 7.26 5.8 969 0.00 0.00 0.00 0.00
05/07/26 12:55:27 PM 35 4.0 10.0 61 38 72.8 83.3 29.964 7.26 5.8 969 0.00 0.00 0.00 0.00
05/07/26 12:56:20 PM 34 5.0 10.0 61 37 72.9 83.3 29.964 7.26 5.8 969 0.00 0.00 0.00 0.00
05/07/26 12:57:30 PM 35 4.0 10.0 61 36 72.9 83.4 29.965 7.26 5.8 969 0.00 0.00 0.00 0.00
05/07/26 12:58:22 PM 35 1.0 10.0 61 36 72.9 83.4 29.964 7.26 5.8 969 0.00 0.00 0.00 0.00
05/07/26 12:59:32 PM 34 4.0 10.0 61 37 72.9 83.6 29.965 7.26 5.8 965 0.00 0.00 0.00 0.00
05/07/26 1:00:24 PM 38 2.0 10.0 61 37 73.0 83.5 29.963 7.26 5.8 967 0.00 0.00 0.00 0.00
05/07/26 1:01:16 PM 32 9.0 10.0 61 37 73.0 83.6 29.965 7.26 5.8 967 0.00 0.00 0.00 0.00
05/07/26 1:02:27 PM 35 5.0 10.0 61 36 73.0 83.7 29.963 7.26 5.8 967 0.00 0.00 0.00 0.00
05/07/26 1:03:22 PM 30 5.0 10.0 61 36 73.1 83.7 29.960 7.26 5.8 967 0.00 0.00 0.00 0.00
05/07/26 1:04:29 PM 32 5.0 10.0 61 36 73.1 83.8 29.965 7.26 5.8 967 0.00 0.00 0.00 0.00
05/07/26 1:05:18 PM 38 4.0 10.0 61 36 73.2 83.8 29.961 7.26 5.8 967 0.00 0.00 0.00 0.00
05/07/26 1:06:31 PM 32 3.0 10.0 61 38 73.1 83.9 29.962 7.26 5.8 969 0.00 0.00 0.00 0.00
05/07/26 1:07:26 PM 34 2.0 10.0 61 37 73.2 83.9 29.959 7.26 5.8 965 0.00 0.00 0.00 0.00
05/07/26 1:08:19 PM 35 3.0 10.0 61 37 73.3 84.0 29.961 7.26 5.8 970 0.00 0.00 0.00 0.00
05/07/26 1:09:26 PM 36 0.0 10.0 61 36 73.3 84.0 29.962 7.26 5.8 965 0.00 0.00 0.00 0.00
05/07/26 1:10:18 PM 32 2.0 10.0 61 36 73.3 84.1 29.960 7.26 5.8 967 0.00 0.00 0.00 0.00
05/07/26 1:11:31 PM 35 5.0 10.0 61 36 73.3 84.1 29.957 7.26 5.8 965 0.00 0.00 0.00 0.00
05/07/26 1:12:23 PM 35 6.0 10.0 61 37 73.3 84.1 29.958 7.26 5.8 965 0.00 0.00 0.00 0.00
05/07/26 1:13:37 PM 36 6.0 10.0 61 36 73.3 83.8 29.958 7.26 5.7 963 0.00 0.00 0.00 0.00
05/07/26 1:14:29 PM 36 6.0 10.0 61 36 73.4 83.6 29.959 7.26 5.7 963 0.00 0.00 0.00 0.00
05/07/26 1:15:18 PM 34 5.0 10.0 61 36 73.4 83.2 29.956 7.26 5.7 962 0.00 0.00 0.00 0.00
05/07/26 1:16:28 PM 38 1.0 10.0 61 36 73.5 82.9 29.956 7.26 5.7 962 0.00 0.00 0.00 0.00
05/07/26 1:17:20 PM 32 0.0 10.0 61 37 73.5 82.8 29.956 7.26 5.7 958 0.00 0.00 0.00 0.00
05/07/26 1:18:30 PM 35 2.0 10.0 61 40 73.5 83.0 29.960 7.26 5.7 962 0.00 0.00 0.00 0.00
05/07/26 1:19:23 PM 35 3.0 10.0 61 38 73.5 83.2 29.957 7.26 5.7 962 0.00 0.00 0.00 0.00
05/07/26 1:20:30 PM 38 4.0 10.0 61 37 73.6 83.4 29.957 7.26 5.7 963 0.00 0.00 0.00 0.00
05/07/26 1:21:22 PM 36 5.0 10.0 61 37 73.6 83.5 29.955 7.26 5.8 962 0.00 0.00 0.00 0.00
05/07/26 1:22:35 PM 34 5.0 10.0 61 37 73.6 83.7 29.957 7.26 5.7 960 0.00 0.00 0.00 0.00
05/07/26 1:23:27 PM 35 7.0 10.0 61 37 73.6 83.8 29.956 7.26 5.7 960 0.00 0.00 0.00 0.00
05/07/26 1:24:20 PM 36 6.0 10.0 61 37 73.7 83.9 29.955 7.26 5.6 956 0.00 0.00 0.00 0.00
05/07/26 1:25:27 PM 38 4.0 10.0 61 36 73.7 84.1 29.954 7.26 5.6 956 0.00 0.00 0.00 0.00
05/07/26 1:26:19 PM 38 6.0 10.0 61 37 73.7 84.2 29.954 7.26 5.6 956 0.00 0.00 0.00 0.00
05/07/26 1:27:32 PM 35 6.0 10.0 61 37 73.8 84.4 29.955 7.26 5.6 953 0.00 0.00 0.00 0.00
05/07/26 1:28:24 PM 31 3.0 10.0 61 36 73.8 84.5 29.954 7.26 5.6 953 0.00 0.00 0.00 0.00
05/07/26 1:29:17 PM 34 1.0 10.0 61 36 73.9 84.6 29.953 7.26 5.6 953 0.00 0.00 0.00 0.00
05/07/26 1:30:30 PM 35 0.0 10.0 61 34 73.8 84.6 29.953 7.26 5.6 953 0.00 0.00 0.00 0.00
05/07/26 1:31:19 PM 35 5.0 10.0 61 35 73.9 84.6 29.952 7.26 5.5 949 0.00 0.00 0.00 0.00
05/07/26 1:32:29 PM 34 3.0 10.0 61 36 73.9 84.7 29.953 7.26 5.5 951 0.00 0.00 0.00 0.00
05/07/26 1:33:24 PM 34 2.0 10.0 61 35 74.0 84.7 29.951 7.26 5.5 949 0.00 0.00 0.00 0.00
05/07/26 1:34:35 PM 34 5.0 10.0 61 36 74.0 84.9 29.952 7.26 5.5 947 0.00 0.00 0.00 0.00
05/07/26 1:35:27 PM 35 3.0 10.0 61 36 74.0 85.0 29.949 7.26 5.5 947 0.00 0.00 0.00 0.00
05/07/26 1:36:34 PM 32 8.0 10.0 61 35 74.0 85.2 29.950 7.26 5.4 944 0.00 0.00 0.00 0.00
05/07/26 1:37:26 PM 38 6.0 10.0 61 38 74.0 85.2 29.951 7.26 5.4 942 0.00 0.00 0.00 0.00
05/07/26 1:38:18 PM 35 7.0 10.0 61 38 74.0 85.4 29.949 7.26 5.4 940 0.00 0.00 0.00 0.00
05/07/26 1:39:29 PM 35 6.0 10.0 61 37 74.1 85.4 29.948 7.26 5.4 940 0.00 0.00 0.00 0.00
05/07/26 1:40:21 PM 32 6.0 10.0 61 35 74.1 85.4 29.946 7.26 5.4 942 0.00 0.00 0.00 0.00
05/07/26 1:41:28 PM 32 6.0 10.0 61 35 74.1 85.5 29.949 7.26 5.4 939 0.00 0.00 0.00 0.00
05/07/26 1:42:20 PM 35 6.0 10.0 61 35 74.1 85.4 29.949 7.26 5.4 937 0.00 0.00 0.00 0.00
05/07/26 1:43:33 PM 32 5.0 10.0 61 35 74.2 85.3 29.948 7.26 5.3 937 0.00 0.00 0.00 0.00
05/07/26 1:44:26 PM 32 5.0 10.0 61 35 74.2 85.2 29.949 7.26 5.3 935 0.00 0.00 0.00 0.00
05/07/26 1:45:18 PM 36 10.0 10.0 61 35 74.3 85.1 29.947 7.26 5.3 935 0.00 0.00 0.00 0.00
05/07/26 1:46:31 PM 34 6.0 10.0 61 35 74.2 85.0 29.949 7.26 5.2 930 0.00 0.00 0.00 0.00
05/07/26 1:47:20 PM 32 4.0 10.0 61 35 74.3 85.0 29.949 7.26 5.3 932 0.00 0.00 0.00 0.00
05/07/26 1:48:30 PM 32 6.0 10.0 61 36 74.4 85.0 29.945 7.26 5.3 932 0.00 0.00 0.00 0.00
05/07/26 1:49:22 PM 35 5.0 10.0 61 36 74.3 85.0 29.943 7.26 5.3 928 0.00 0.00 0.00 0.00
05/07/26 1:50:36 PM 37 3.0 10.0 61 35 74.4 84.9 29.945 7.26 5.2 928 0.00 0.00 0.00 0.00
05/07/26 1:51:28 PM 32 5.0 10.0 61 36 74.4 84.9 29.944 7.26 5.2 923 0.00 0.00 0.00 0.00
05/07/26 1:52:35 PM 30 4.0 10.0 61 35 74.4 84.9 29.943 7.26 5.2 921 0.00 0.00 0.00 0.00
05/07/26 1:53:27 PM 35 3.0 10.0 61 36 74.4 84.9 29.942 7.26 5.2 921 0.00 0.00 0.00 0.00
05/07/26 1:54:19 PM 32 4.0 10.0 61 36 74.4 85.0 29.941 7.26 5.1 921 0.00 0.00 0.00 0.00
05/07/26 1:55:32 PM 32 1.0 10.0 61 36 74.5 85.0 29.939 7.26 5.2 923 0.00 0.00 0.00 0.00
05/07/26 1:56:25 PM 35 2.0 10.0 61 35 74.6 85.2 29.941 7.26 5.2 919 0.00 0.00 0.00 0.00
05/07/26 1:57:17 PM 34 0.0 10.0 61 35 74.6 85.2 29.940 7.26 5.2 919 0.00 0.00 0.00 0.00
05/07/26 1:58:24 PM 37 1.0 10.0 61 35 74.6 85.3 29.938 7.26 5.1 914 0.00 0.00 0.00 0.00
05/07/26 1:59:19 PM 35 10.0 10.0 61 35 74.6 85.3 29.938 7.26 5.1 918 0.00 0.00 0.00 0.00
05/07/26 2:00:30 PM 34 6.0 10.0 61 36 74.6 85.4 29.941 7.26 5.1 918 0.00 0.00 0.00 0.00
05/07/26 2:01:22 PM 34 6.0 10.0 61 35 74.7 85.4 29.940 7.26 5.1 916 0.00 0.00 0.00 0.00
05/07/26 2:02:35 PM 35 5.0 10.0 61 37 74.7 85.6 29.941 7.26 5.1 914 0.00 0.00 0.00 0.00
05/07/26 2:03:21 PM 35 4.0 10.0 61 35 74.7 85.6 29.941 7.26 5.1 916 0.00 0.00 0.00 0.00
05/07/26 2:04:31 PM 37 6.0 10.0 61 35 74.7 85.6 29.939 7.26 5.1 914 0.00 0.00 0.00 0.00
05/07/26 2:05:23 PM 36 5.0 10.0 61 36 74.7 85.7 29.939 7.26 5.1 916 0.00 0.00 0.00 0.00
05/07/26 2:06:37 PM 32 5.0 10.0 61 35 74.8 85.7 29.939 7.26 5.1 914 0.00 0.00 0.00 0.00
05/07/26 2:07:29 PM 37 4.0 10.0 61 37 74.8 85.8 29.939 7.26 5.0 911 0.00 0.00 0.00 0.00
05/07/26 2:08:36 PM 35 7.0 10.0 61 34 74.8 85.8 29.941 7.26 5.0 911 0.00 0.00 0.00 0.00
05/07/26 2:09:28 PM 35 4.0 10.0 61 34 74.8 85.7 29.939 7.26 5.0 912 0.00 0.00 0.00 0.00
05/07/26 2:10:21 PM 36 4.0 10.0 61 34 74.9 85.6 29.940 7.26 5.0 911 0.00 0.00 0.00 0.00
05/07/26 2:11:34 PM 36 5.0 10.0 61 34 74.9 85.5 29.941 7.26 5.0 911 0.00 0.00 0.00 0.00
05/07/26 2:12:26 PM 31 5.0 10.0 61 34 74.9 85.4 29.942 7.26 5.0 905 0.00 0.00 0.00 0.00
05/07/26 2:13:18 PM 35 5.0 10.0 61 35 74.9 85.4 29.940 7.26 4.9 905 0.00 0.00 0.00 0.00
05/07/26 2:14:25 PM 32 3.0 10.0 61 34 74.9 85.4 29.937 7.26 4.9 896 0.00 0.00 0.00 0.00
05/07/26 2:15:18 PM 35 5.0 10.0 61 35 74.9 85.5 29.938 7.26 4.9 898 0.00 0.00 0.00 0.00
05/07/26 2:16:31 PM 37 5.0 10.0 61 34 74.9 85.5 29.938 7.26 4.9 898 0.00 0.00 0.00 0.00
05/07/26 2:17:23 PM 35 3.0 10.0 61 34 74.9 85.4 29.939 7.26 4.9 896 0.00 0.00 0.00 0.00
05/07/26 2:18:34 PM 32 8.0 10.0 61 34 75.0 85.4 29.936 7.26 4.9 895 0.00 0.00 0.00 0.00
05/07/26 2:19:23 PM 34 5.0 10.0 61 34 75.0 85.4 29.939 7.26 4.9 895 0.00 0.00 0.00 0.00
05/07/26 2:20:36 PM 38 4.0 10.0 61 34 74.9 85.4 29.937 7.26 4.9 896 0.00 0.00 0.00 0.00
05/07/26 2:21:25 PM 35 3.0 10.0 61 34 75.0 85.3 29.936 7.26 4.8 891 0.00 0.00 0.00 0.00
05/07/26 2:22:17 PM 38 4.0 10.0 61 34 75.0 85.3 29.937 7.26 4.8 889 0.00 0.00 0.00 0.00
05/07/26 2:23:31 PM 36 7.0 10.0 61 35 75.1 85.4 29.933 7.26 4.8 891 0.00 0.00 0.00 0.00
05/07/26 2:24:17 PM 34 6.0 10.0 61 35 75.0 85.4 29.932 7.26 4.7 884 0.00 0.00 0.00 0.00
05/07/26 2:25:30 PM 36 2.0 10.0 61 35 75.1 85.5 29.934 7.26 4.8 888 0.00 0.00 0.00 0.00
05/07/26 2:26:22 PM 32 2.0 10.0 61 34 75.1 85.5 29.934 7.26 4.8 888 0.00 0.00 0.00 0.00
05/07/26 2:27:33 PM 38 1.0 10.0 61 35 75.1 85.6 29.936 7.26 4.7 882 0.00 0.00 0.00 0.00
05/07/26 2:28:25 PM 35 0.0 10.0 61 35 75.1 85.7 29.932 7.26 4.7 879 0.00 0.00 0.00 0.00
05/07/26 2:29:17 PM 32 2.0 10.0 61 36 75.2 85.8 29.936 7.26 4.7 877 0.00 0.00 0.00 0.00
05/07/26 2:30:27 PM 36 7.0 10.0 61 35 75.2 85.9 29.935 7.26 4.7 875 0.00 0.00 0.00 0.00
05/07/26 2:31:19 PM 32 5.0 10.0 61 34 75.2 86.0 29.936 7.26 4.6 875 0.00 0.00 0.00 0.00
05/07/26 2:32:30 PM 36 2.0 10.0 61 33 75.2 85.8 29.938 7.26 4.6 875 0.00 0.00 0.00 0.00
05/07/26 2:33:22 PM 35 2.0 10.0 61 34 75.2 85.8 29.934 7.26 4.6 875 0.00 0.00 0.00 0.00
05/07/26 2:34:35 PM 34 4.0 10.0 61 34 75.3 85.8 29.937 7.26 4.6 872 0.00 0.00 0.00 0.00
05/07/26 2:35:21 PM 38 2.0 10.0 61 34 75.3 85.8 29.934 7.26 4.6 872 0.00 0.00 0.00 0.00
05/07/26 2:36:35 PM 34 5.0 10.0 61 35 75.3 85.8 29.934 7.26 4.5 870 0.00 0.00 0.00 0.00
05/07/26 2:37:27 PM 36 7.0 10.0 61 34 75.3 86.0 29.936 7.26 4.5 867 0.00 0.00 0.00 0.00
05/07/26 2:38:19 PM 30 5.0 10.0 61 34 75.3 86.1 29.934 7.26 4.5 867 0.00 0.00 0.00 0.00
05/07/26 2:39:32 PM 38 3.0 10.0 61 34 75.4 86.1 29.933 7.26 4.5 867 0.00 0.00 0.00 0.00
05/07/26 2:40:18 PM 35 2.0 10.0 61 34 75.4 86.1 29.933 7.26 4.5 865 0.00 0.00 0.00 0.00
05/07/26 2:41:32 PM 31 2.0 10.0 61 34 75.4 86.2 29.933 7.26 4.4 860 0.00 0.00 0.00 0.00
05/07/26 2:42:21 PM 35 3.0 10.0 61 34 75.4 86.2 29.932 7.26 4.4 860 0.00 0.00 0.00 0.00
05/07/26 2:43:34 PM 34 5.0 11.0 61 35 75.4 86.3 29.932 7.26 4.4 854 0.00 0.00 0.00 0.00
05/07/26 2:44:26 PM 36 5.0 11.0 61 35 75.5 86.3 29.932 7.26 4.4 853 0.00 0.00 0.00 0.00
05/07/26 2:45:19 PM 35 4.0 11.0 61 35 75.5 86.3 29.932 7.26 4.4 851 0.00 0.00 0.00 0.00
05/07/26 2:46:26 PM 35 3.0 11.0 61 35 75.5 86.4 29.930 7.26 4.3 847 0.00 0.00 0.00 0.00
05/07/26 2:47:18 PM 38 12.0 12.0 61 36 75.5 86.5 29.932 7.26 4.3 846 0.00 0.00 0.00 0.00
05/07/26 2:48:31 PM 32 6.0 14.0 61 35 75.6 86.5 29.931 7.26 4.2 846 0.00 0.00 0.00 0.00
05/07/26 2:49:24 PM 35 9.0 14.0 61 35 75.6 86.5 29.931 7.26 4.2 840 0.00 0.00 0.00 0.00
05/07/26 2:50:34 PM 34 9.0 14.0 61 36 75.6 86.4 29.930 7.26 4.2 838 0.00 0.00 0.00 0.00
05/07/26 2:51:24 PM 32 5.0 14.0 61 36 75.6 86.4 29.930 7.26 4.2 835 0.00 0.00 0.00 0.00
05/07/26 2:52:37 PM 34 3.0 14.0 61 36 75.6 86.4 29.931 7.26 4.1 833 0.00 0.00 0.00 0.00
05/07/26 2:53:27 PM 34 5.0 14.0 61 35 75.6 86.4 29.928 7.26 4.1 833 0.00 0.00 0.00 0.00
05/07/26 2:54:19 PM 35 7.0 14.0 61 35 75.6 86.4 29.928 7.26 4.1 830 0.00 0.00 0.00 0.00
05/07/26 2:55:32 PM 32 2.0 14.0 61 34 75.7 86.3 29.932 7.26 4.1 831 0.00 0.00 0.00 0.00
05/07/26 2:56:21 PM 38 4.0 14.0 61 35 75.7 86.3 29.928 7.26 4.1 831 0.00 0.00 0.00 0.00
05/07/26 2:57:35 PM 35 9.0 14.0 61 35 75.7 86.3 29.929 7.26 4.1 826 0.00 0.00 0.00 0.00
05/07/26 2:58:24 PM 32 6.0 14.0 61 35 75.6 86.3 29.929 7.26 4.1 824 0.00 0.00 0.00 0.00
05/07/26 2:59:17 PM 37 6.0 14.0 61 35 75.7 86.3 29.926 7.26 4.0 823 0.00 0.00 0.00 0.00
05/07/26 3:00:30 PM 32 5.0 14.0 61 35 75.7 86.2 29.927 7.26 4.0 823 0.00 0.00 0.00 0.00
05/07/26 3:01:23 PM 36 7.0 14.0 61 35 75.7 86.2 29.926 7.26 4.0 823 0.00 0.00 0.00 0.00
05/07/26 3:02:30 PM 38 6.0 14.0 61 35 75.8 86.1 29.925 7.26 4.0 816 0.00 0.00 0.00 0.00
05/07/26 3:03:23 PM 36 9.0 14.0 61 35 75.8 86.1 29.927 7.26 3.9 816 0.00 0.00 0.00 0.00
05/07/26 3:04:36 PM 31 10.0 14.0 61 36 75.8 86.1 29.926 7.26 3.9 816 0.00 0.00 0.00 0.00
05/07/26 3:05:29 PM 31 9.0 14.0 61 35 75.8 86.1 29.928 7.26 3.9 816 0.00 0.00 0.00 0.00
05/07/26 3:06:21 PM 36 5.0 14.0 61 35 75.8 86.0 29.927 7.26 3.8 807 0.00 0.00 0.00 0.00
05/07/26 3:07:28 PM 35 4.0 14.0 61 36 75.8 86.0 29.926 7.26 3.8 803 0.00 0.00 0.00 0.00
05/07/26 3:08:21 PM 35 4.0 14.0 61 35 75.9 85.9 29.926 7.26 3.8 800 0.00 0.00 0.00 0.00
05/07/26 3:09:34 PM 35 4.0 14.0 61 35 75.9 85.9 29.923 7.26 3.8 798 0.00 0.00 0.00 0.00
05/07/26 3:10:26 PM 35 9.0 14.0 61 36 75.9 85.9 29.922 7.26 3.8 796 0.00 0.00 0.00 0.00
05/07/26 3:11:19 PM 36 9.0 14.0 61 36 75.9 85.9 29.922 7.26 3.8 793 0.00 0.00 0.00 0.00
05/07/26 3:12:26 PM 31 8.0 14.0 61 36 75.9 85.9 29.925 7.26 3.7 793 0.00 0.00 0.00 0.00
05/07/26 3:13:19 PM 36 7.0 14.0 61 36 76.0 85.8 29.925 7.26 3.7 793 0.00 0.00 0.00 0.00
05/07/26 3:14:29 PM 32 8.0 14.0 61 36 76.0 85.7 29.921 7.26 3.7 788 0.00 0.00 0.00 0.00
05/07/26 3:15:46 PM 36 9.0 14.0 61 36 76.0 85.6 29.923 7.26 3.7 788 0.00 0.00 0.00 0.00
05/07/26 3:16:35 PM 31 5.0 14.0 61 36 76.0 85.6 29.923 7.26 3.6 779 0.00 0.00 0.00 0.00
05/07/26 3:17:27 PM 34 6.0 14.0 61 36 76.0 85.5 29.922 7.26 3.6 777 0.00 0.00 0.00 0.00
05/07/26 3:18:35 PM 36 9.0 14.0 61 36 76.0 85.5 29.922 7.26 3.5 773 0.00 0.00 0.00 0.00
05/07/26 3:19:27 PM 35 6.0 14.0 61 37 76.1 85.5 29.922 7.26 3.5 773 0.00 0.00 0.00 0.00
05/07/26 3:20:20 PM 36 9.0 14.0 61 37 76.1 85.5 29.928 7.26 3.5 772 0.00 0.00 0.00 0.00
05/07/26 3:21:33 PM 31 6.0 14.0 61 36 76.1 85.6 29.925 7.26 3.5 768 0.00 0.00 0.00 0.00
05/07/26 3:22:25 PM 35 5.0 14.0 61 35 76.1 85.6 29.924 7.26 3.4 766 0.00 0.00 0.00 0.00
05/07/26 3:23:33 PM 35 5.0 14.0 61 35 76.2 85.5 29.924 7.26 3.4 765 0.00 0.00 0.00 0.00
05/07/26 3:24:25 PM 31 2.0 14.0 61 35 76.2 85.5 29.923 7.26 3.4 763 0.00 0.00 0.00 0.00
05/07/26 3:25:36 PM 37 6.0 14.0 61 36 76.2 85.5 29.922 7.26 3.4 759 0.00 0.00 0.00 0.00
05/07/26 3:26:28 PM 34 9.0 14.0 61 36 76.2 85.5 29.922 7.26 3.4 758 0.00 0.00 0.00 0.00
05/07/26 3:27:20 PM 38 6.0 14.0 61 35 76.2 85.5 29.922 7.26 3.4 758 0.00 0.00 0.00 0.00
05/07/26 3:28:31 PM 34 9.0 14.0 61 36 76.2 85.5 29.919 7.26 3.3 758 0.00 0.00 0.00 0.00
05/07/26 3:29:20 PM 35 6.0 14.0 61 36 76.2 85.4 29.921 7.26 3.3 747 0.00 0.00 0.00 0.00
05/07/26 3:30:30 PM 36 4.0 14.0 61 36 76.2 85.4 29.920 7.26 3.2 745 0.00 0.00 0.00 0.00
05/07/26 3:31:23 PM 35 5.0 14.0 61 35 76.2 85.4 29.921 7.26 3.2 742 0.00 0.00 0.00 0.00
05/07/26 3:32:33 PM 35 5.0 14.0 61 35 76.2 85.4 29.919 7.26 3.2 742 0.00 0.00 0.00 0.00
05/07/26 3:33:25 PM 35 6.0 14.0 61 35 76.2 85.4 29.917 7.26 3.2 738 0.00 0.00 0.00 0.00
05/07/26 3:34:36 PM 34 6.0 14.0 61 35 76.2 85.4 29.920 7.26 3.2 735 0.00 0.00 0.00 0.00
05/07/26 3:35:25 PM 37 6.0 14.0 61 35 76.2 85.4 29.919 7.26 3.1 735 0.00 0.00 0.00 0.00
05/07/26 3:36:18 PM 32 5.0 14.0 61 36 76.2 85.4 29.921 7.26 3.1 729 0.00 0.00 0.00 0.00
05/07/26 3:37:31 PM 32 5.0 14.0 61 35 76.2 85.4 29.917 7.26 3.1 729 0.00 0.00 0.00 0.00
05/07/26 3:38:21 PM 34 5.0 14.0 61 35 76.2 85.3 29.920 7.26 3.1 726 0.00 0.00 0.00 0.00
05/07/26 3:39:31 PM 35 6.0 14.0 61 36 76.2 85.3 29.920 7.26 3.1 722 0.00 0.00 0.00 0.00
05/07/26 3:40:24 PM 36 9.0 14.0 61 36 76.2 85.3 29.920 7.26 3.0 721 0.00 0.00 0.00 0.00
05/07/26 3:41:37 PM 35 3.0 14.0 61 36 76.2 85.3 29.916 7.26 3.0 719 0.00 0.00 0.00 0.00
05/07/26 3:42:27 PM 36 6.0 14.0 61 37 76.2 85.4 29.919 7.26 3.0 715 0.00 0.00 0.00 0.00
05/07/26 3:43:19 PM 35 6.0 14.0 61 36 76.2 85.4 29.921 7.26 3.0 712 0.00 0.00 0.00 0.00
05/07/26 3:44:29 PM 36 9.0 16.0 61 37 76.2 85.5 29.918 7.26 2.9 708 0.00 0.00 0.00 0.00
05/07/26 3:45:19 PM 32 6.0 16.0 61 35 76.2 85.4 29.918 7.26 2.9 707 0.00 0.00 0.00 0.00
05/07/26 3:46:29 PM 38 3.0 16.0 61 36 76.2 85.4 29.915 7.26 2.9 703 0.00 0.00 0.00 0.00
05/07/26 3:47:22 PM 38 5.0 16.0 61 35 76.2 85.4 29.915 7.26 2.8 698 0.00 0.00 0.00 0.00
05/07/26 3:48:35 PM 35 3.0 16.0 61 36 76.2 85.4 29.916 7.26 2.8 696 0.00 0.00 0.00 0.00
05/07/26 3:49:25 PM 31 2.0 16.0 61 35 76.2 85.4 29.916 7.26 2.8 696 0.00 0.00 0.00 0.00
05/07/26 3:50:35 PM 32 5.0 16.0 61 36 76.2 85.4 29.916 7.26 2.8 689 0.00 0.00 0.00 0.00
05/07/26 3:51:25 PM 38 5.0 16.0 61 35 76.2 85.5 29.914 7.26 2.8 687 0.00 0.00 0.00 0.00
05/07/26 3:52:17 PM 36 2.0 16.0 61 35 76.2 85.5 29.918 7.26 2.7 686 0.00 0.00 0.00 0.00
05/07/26 3:53:28 PM 36 4.0 16.0 61 35 76.2 85.5 29.917 7.26 2.7 686 0.00 0.00 0.00 0.00
05/07/26 3:54:20 PM 36 7.0 16.0 61 36 76.2 85.6 29.917 7.26 2.7 682 0.00 0.00 0.00 0.00
05/07/26 3:55:28 PM 31 10.0 16.0 61 36 76.2 85.6 29.916 7.26 2.7 679 0.00 0.00 0.00 0.00
05/07/26 3:56:20 PM 35 9.0 16.0 61 36 76.2 85.7 29.914 7.26 2.6 673 0.00 0.00 0.00 0.00
05/07/26 3:57:34 PM 34 5.0 16.0 61 36 76.2 85.6 29.915 7.26 2.6 670 0.00 0.00 0.00 0.00
05/07/26 3:58:26 PM 34 5.0 16.0 61 37 76.2 85.7 29.915 7.26 2.6 670 0.00 0.00 0.00 0.00
05/07/26 3:59:18 PM 36 5.0 16.0 61 36 76.2 85.7 29.914 7.26 2.6 663 0.00 0.00 0.00 0.00
05/07/26 4:00:32 PM 35 6.0 16.0 61 36 76.2 85.6 29.913 7.26 2.5 661 0.00 0.00 0.00 0.00
05/07/26 4:01:21 PM 35 4.0 16.0 61 35 76.2 85.6 29.915 7.26 2.5 661 0.00 0.00 0.00 0.00
05/07/26 4:02:31 PM 35 6.0 16.0 61 37 76.2 85.6 29.917 7.26 2.5 654 0.00 0.00 0.00 0.00
05/07/26 4:03:24 PM 32 6.0 16.0 61 37 76.2 85.6 29.917 7.26 2.5 654 0.00 0.00 0.00 0.00
05/07/26 4:04:34 PM 32 6.0 16.0 61 37 76.2 85.6 29.916 7.26 2.5 654 0.00 0.00 0.00 0.00
05/07/26 4:05:27 PM 32 6.0 16.0 61 37 76.2 85.6 29.914 7.26 2.5 654 0.00 0.00 0.00 0.00
05/07/26 4:06:34 PM 32 6.0 16.0 61 37 76.2 85.6 29.912 7.26 2.5 654 0.00 0.00 0.00 0.00
05/07/26 4:07:27 PM 32 6.0 16.0 61 37 76.3 85.6 29.914 7.26 2.5 654 0.00 0.00 0.00 0.00
05/07/26 4:08:19 PM 36 7.0 16.0 61 37 76.3 85.3 29.913 7.26 2.3 654 0.00 0.00 0.00 0.00
05/07/26 4:09:30 PM 34 11.0 16.0 61 36 76.3 85.2 29.914 7.26 2.3 633 0.00 0.00 0.00 0.00
05/07/26 4:10:22 PM 38 5.0 16.0 61 37 76.2 85.1 29.914 7.26 2.3 629 0.00 0.00 0.00 0.00
05/07/26 4:11:30 PM 35 9.0 16.0 61 37 76.3 85.0 29.914 7.26 2.2 624 0.00 0.00 0.00 0.00
05/07/26 4:12:22 PM 32 10.0 16.0 61 37 76.2 84.9 29.915 7.26 2.2 621 0.00 0.00 0.00 0.00
05/07/26 4:13:35 PM 35 7.0 16.0 61 37 76.2 84.7 29.916 7.26 2.2 619 0.00 0.00 0.00 0.00
05/07/26 4:14:25 PM 35 9.0 16.0 61 37 76.2 84.7 29.914 7.26 2.2 613 0.00 0.00 0.00 0.00
05/07/26 4:15:41 PM 38 7.0 16.0 61 37 76.2 84.6 29.915 7.26 2.2 613 0.00 0.00 0.00 0.00
05/07/26 4:16:31 PM 32 8.0 16.0 61 38 76.3 84.5 29.914 7.26 2.1 606 0.00 0.00 0.00 0.00
05/07/26 4:17:20 PM 32 10.0 16.0 61 38 76.2 84.5 29.913 7.26 2.1 606 0.00 0.00 0.00 0.00
05/07/26 4:18:31 PM 35 10.0 16.0 61 38 76.2 84.5 29.914 7.26 2.1 606 0.00 0.00 0.00 0.00
05/07/26 4:19:23 PM 36 4.0 16.0 61 38 76.2 84.4 29.915 7.26 2.1 605 0.00 0.00 0.00 0.00
05/07/26 4:20:37 PM 32 2.0 16.0 61 38 76.2 84.3 29.914 7.26 2.1 599 0.00 0.00 0.00 0.00
05/07/26 4:21:26 PM 35 4.0 16.0 61 38 76.2 84.4 29.913 7.26 2.0 596 0.00 0.00 0.00 0.00
05/07/26 4:22:19 PM 38 5.0 16.0 61 39 76.2 84.5 29.914 7.26 2.0 594 0.00 0.00 0.00 0.00
05/07/26 4:23:26 PM 34 8.0 16.0 61 38 76.2 84.5 29.915 7.26 2.0 591 0.00 0.00 0.00 0.00
05/07/26 4:24:19 PM 32 3.0 16.0 61 38 76.2 84.6 29.915 7.26 2.0 591 0.00 0.00 0.00 0.00
05/07/26 4:25:33 PM 34 6.0 16.0 61 39 76.2 84.7 29.915 7.26 2.0 582 0.00 0.00 0.00 0.00
05/07/26 4:26:25 PM 32 6.0 16.0 61 38 76.2 84.8 29.915 7.26 1.9 582 0.00 0.00 0.00 0.00
05/07/26 4:27:36 PM 38 7.0 16.0 61 38 76.2 84.8 29.912 7.26 1.9 575 0.00 0.00 0.00 0.00
05/07/26 4:28:25 PM 37 5.0 16.0 61 39 76.2 84.9 29.915 7.26 1.9 571 0.00 0.00 0.00 0.00
05/07/26 4:29:17 PM 32 8.0 16.0 61 40 76.2 84.9 29.916 7.26 1.9 570 0.00 0.00 0.00 0.00
05/07/26 4:30:31 PM 34 10.0 16.0 61 39 76.2 84.9 29.916 7.26 1.8 568 0.00 0.00 0.00 0.00
05/07/26 4:31:20 PM 32 11.0 16.0 61 39 76.1 84.7 29.915 7.26 1.8 561 0.00 0.00 0.00 0.00
05/07/26 4:32:34 PM 31 8.0 16.0 61 39 76.2 84.5 29.914 7.26 1.8 557 0.00 0.00 0.00 0.00
05/07/26 4:33:23 PM 36 9.0 16.0 61 40 76.2 84.4 29.915 7.26 1.8 552 0.00 0.00 0.00 0.00
05/07/26 4:34:34 PM 35 9.0 16.0 61 41 76.2 84.3 29.915 7.26 1.7 548 0.00 0.00 0.00 0.00
05/07/26 4:35:23 PM 34 4.0 16.0 61 41 76.2 84.3 29.917 7.26 1.7 547 0.00 0.00 0.00 0.00
05/07/26 4:36:15 PM 35 6.0 16.0 61 41 76.2 84.3 29.915 7.26 1.7 547 0.00 0.00 0.00 0.00
05/07/26 4:37:29 PM 35 6.0 16.0 61 40 76.2 84.2 29.916 7.26 1.7 541 0.00 0.00 0.00 0.00
05/07/26 4:38:18 PM 35 11.0 16.0 61 40 76.2 84.2 29.917 7.26 1.7 540 0.00 0.00 0.00 0.00
05/07/26 4:39:26 PM 32 6.0 16.0 61 40 76.2 84.1 29.916 7.26 1.7 536 0.00 0.00 0.00 0.00
05/07/26 4:40:18 PM 32 5.0 16.0 61 40 76.2 84.0 29.917 7.26 1.6 536 0.00 0.00 0.00 0.00
05/07/26 4:41:32 PM 34 6.0 16.0 61 40 76.2 83.9 29.915 7.26 1.6 526 0.00 0.00 0.00 0.00
05/07/26 4:42:21 PM 38 9.0 16.0 61 41 76.1 83.9 29.917 7.26 1.6 526 0.00 0.00 0.00 0.00
05/07/26 4:43:35 PM 35 10.0 16.0 61 40 76.2 83.8 29.919 7.26 1.6 524 0.00 0.00 0.00 0.00
05/07/26 4:44:24 PM 32 8.0 16.0 61 41 76.2 83.7 29.916 7.26 1.6 520 0.00 0.00 0.00 0.00
05/07/26 4:45:17 PM 37 9.0 16.0 61 41 76.2 83.6 29.917 7.26 1.5 517 0.00 0.00 0.00 0.00
05/07/26 4:46:27 PM 35 5.0 16.0 61 41 76.2 83.6 29.918 7.26 1.5 513 0.00 0.00 0.00 0.00
05/07/26 4:47:20 PM 36 6.0 16.0 61 41 76.2 83.5 29.917 7.26 1.5 510 0.00 0.00 0.00 0.00
05/07/26 4:48:30 PM 34 9.0 16.0 61 41 76.2 83.4 29.919 7.26 1.5 504 0.00 0.00 0.00 0.00
05/07/26 4:49:20 PM 31 12.0 16.0 61 41 76.2 83.4 29.920 7.26 1.4 499 0.00 0.00 0.00 0.00
05/07/26 4:50:30 PM 38 11.0 16.0 61 42 76.2 83.3 29.919 7.26 1.4 494 0.00 0.00 0.00 0.00
05/07/26 4:51:26 PM 32 6.0 16.0 61 42 76.2 83.2 29.918 7.26 1.4 494 0.00 0.00 0.00 0.00
05/07/26 4:52:36 PM 32 6.0 16.0 61 42 76.1 83.1 29.919 7.26 1.4 489 0.00 0.00 0.00 0.00
05/07/26 4:53:29 PM 38 11.0 16.0 61 43 76.1 83.0 29.919 7.26 1.4 489 0.00 0.00 0.00 0.00
05/07/26 4:54:21 PM 36 12.0 16.0 61 42 76.1 83.0 29.919 7.26 1.4 487 0.00 0.00 0.00 0.00
05/07/26 4:55:29 PM 35 9.0 16.0 61 43 76.2 82.9 29.921 7.26 1.3 489 0.00 0.00 0.00 0.00
05/07/26 4:56:18 PM 36 6.0 16.0 61 42 76.2 82.8 29.921 7.26 1.3 485 0.00 0.00 0.00 0.00
05/07/26 4:57:32 PM 34 6.0 16.0 61 42 76.1 82.7 29.922 7.26 1.3 476 0.00 0.00 0.00 0.00
05/07/26 4:58:21 PM 37 7.0 16.0 61 42 76.2 82.6 29.919 7.26 1.3 469 0.00 0.00 0.00 0.00
05/07/26 4:59:35 PM 32 4.0 16.0 61 43 76.1 82.6 29.921 7.26 1.3 466 0.00 0.00 0.00 0.00
05/07/26 5:00:24 PM 34 2.0 16.0 61 42 76.1 82.6 29.919 7.26 1.3 466 0.00 0.00 0.00 0.00
05/07/26 5:01:35 PM 37 7.0 16.0 61 42 76.1 82.5 29.922 7.26 1.2 462 0.00 0.00 0.00 0.00
05/07/26 5:02:27 PM 37 6.0 16.0 61 43 76.1 82.5 29.918 7.26 1.2 459 0.00 0.00 0.00 0.00
05/07/26 5:03:20 PM 31 4.0 16.0 61 43 76.0 82.5 29.920 7.26 1.2 454 0.00 0.00 0.00 0.00
05/07/26 5:04:33 PM 35 7.0 16.0 61 43 76.0 82.5 29.918 7.26 1.2 450 0.00 0.00 0.00 0.00
05/07/26 5:05:20 PM 38 4.0 16.0 61 43 76.1 82.5 29.919 7.26 1.2 445 0.00 0.00 0.00 0.00
05/07/26 5:06:33 PM 32 4.0 16.0 61 44 76.1 82.5 29.920 7.26 1.1 441 0.00 0.00 0.00 0.00
05/07/26 5:07:26 PM 32 3.0 16.0 61 43 76.1 82.6 29.920 7.26 1.1 439 0.00 0.00 0.00 0.00
05/07/26 5:08:18 PM 34 4.0 16.0 61 43 76.0 82.6 29.919 7.26 1.1 436 0.00 0.00 0.00 0.00
05/07/26 5:09:29 PM 35 6.0 16.0 61 43 76.0 82.6 29.921 7.26 1.1 432 0.00 0.00 0.00 0.00
05/07/26 5:10:21 PM 35 6.0 16.0 61 43 76.0 82.7 29.919 7.26 1.1 427 0.00 0.00 0.00 0.00
05/07/26 5:11:29 PM 37 4.0 16.0 61 42 76.0 82.7 29.920 7.26 1.1 424 0.00 0.00 0.00 0.00
05/07/26 5:12:21 PM 35 3.0 16.0 61 42 76.0 82.7 29.922 7.26 1.1 424 0.00 0.00 0.00 0.00
05/07/26 5:13:32 PM 35 9.0 16.0 61 43 76.0 82.7 29.920 7.26 1.0 418 0.00 0.00 0.00 0.00
05/07/26 5:14:24 PM 37 5.0 16.0 61 42 76.0 82.7 29.920 7.26 1.0 415 0.00 0.00 0.00 0.00
05/07/26 5:15:38 PM 38 4.0 16.0 61 42 76.0 82.7 29.920 7.26 1.0 415 0.00 0.00 0.00 0.00
05/07/26 5:16:24 PM 35 10.0 16.0 61 42 76.0 82.7 29.917 7.26 1.0 411 0.00 0.00 0.00 0.00
05/07/26 5:17:17 PM 38 7.0 16.0 61 42 76.0 82.6 29.919 7.26 1.0 408 0.00 0.00 0.00 0.00
05/07/26 5:18:27 PM 37 5.0 16.0 61 43 76.0 82.6 29.919 7.26 1.0 403 0.00 0.00 0.00 0.00
05/07/26 5:19:20 PM 35 4.0 16.0 61 43 75.9 82.5 29.919 7.26 0.9 401 0.00 0.00 0.00 0.00
05/07/26 5:20:33 PM 28 8.0 16.0 61 43 76.0 82.5 29.918 7.26 0.9 396 0.00 0.00 0.00 0.00
05/07/26 5:21:23 PM 32 5.0 16.0 61 43 76.0 82.4 29.919 7.26 0.9 396 0.00 0.00 0.00 0.00
05/07/26 5:22:33 PM 36 5.0 16.0 61 43 76.0 82.4 29.920 7.26 0.9 388 0.00 0.00 0.00 0.00
05/07/26 5:23:26 PM 32 5.0 16.0 61 43 76.0 82.3 29.919 7.26 0.9 383 0.00 0.00 0.00 0.00
05/07/26 5:24:18 PM 34 4.0 16.0 61 43 76.0 82.3 29.920 7.26 0.9 380 0.00 0.00 0.00 0.00
05/07/26 5:25:32 PM 36 5.0 16.0 61 43 75.9 82.2 29.921 7.26 0.9 374 0.00 0.00 0.00 0.00
05/07/26 5:26:21 PM 37 7.0 16.0 61 43 76.0 82.2 29.920 7.26 0.8 374 0.00 0.00 0.00 0.00
05/07/26 5:27:32 PM 32 9.0 16.0 61 43 75.9 82.1 29.918 7.26 0.8 369 0.00 0.00 0.00 0.00
05/07/26 5:28:21 PM 35 7.0 16.0 61 43 75.9 82.1 29.922 7.26 0.8 369 0.00 0.00 0.00 0.00
05/07/26 5:29:35 PM 37 3.0 16.0 61 44 76.0 81.9 29.919 7.26 0.8 362 0.00 0.00 0.00 0.00
05/07/26 5:30:28 PM 34 6.0 16.0 61 43 75.9 81.9 29.919 7.26 0.8 357 0.00 0.00 0.00 0.00
05/07/26 5:31:20 PM 34 2.0 16.0 61 43 75.9 81.8 29.920 7.26 0.8 353 0.00 0.00 0.00 0.00
05/07/26 5:32:27 PM 35 2.0 16.0 61 44 75.9 81.7 29.919 7.26 0.8 350 0.00 0.00 0.00 0.00
05/07/26 5:33:20 PM 36 3.0 16.0 61 44 75.9 81.7 29.918 7.26 0.7 350 0.00 0.00 0.00 0.00
05/07/26 5:34:31 PM 35 4.0 16.0 61 43 75.9 81.7 29.918 7.26 0.7 346 0.00 0.00 0.00 0.00
05/07/26 5:35:23 PM 32 6.0 16.0 61 43 75.9 81.7 29.919 7.26 0.7 341 0.00 0.00 0.00 0.00
05/07/26 5:36:37 PM 36 7.0 16.0 61 44 75.9 81.7 29.918 7.26 0.7 338 0.00 0.00 0.00 0.00
05/07/26 5:37:23 PM 38 5.0 16.0 61 44 75.9 81.7 29.917 7.26 0.7 334 0.00 0.00 0.00 0.00
05/07/26 5:38:34 PM 34 4.0 16.0 61 44 75.9 81.6 29.918 7.26 0.7 330 0.00 0.00 0.00 0.00
05/07/26 5:39:26 PM 38 5.0 16.0 61 43 75.9 81.6 29.919 7.26 0.7 330 0.00 0.00 0.00 0.00
05/07/26 5:40:16 PM 38 6.0 16.0 61 44 75.9 81.5 29.920 7.26 0.7 322 0.00 0.00 0.00 0.00
05/07/26 5:41:29 PM 35 4.0 16.0 61 43 75.9 81.4 29.917 7.26 0.7 315 0.00 0.00 0.00 0.00
05/07/26 5:42:22 PM 35 9.0 16.0 61 44 75.8 81.4 29.917 7.26 0.6 315 0.00 0.00 0.00 0.00
05/07/26 5:43:30 PM 35 7.0 16.0 61 44 75.9 81.3 29.917 7.26 0.6 311 0.00 0.00 0.00 0.00
05/07/26 5:44:19 PM 36 7.0 16.0 61 44 75.8 81.2 29.919 7.26 0.6 309 0.00 0.00 0.00 0.00
05/07/26 5:45:33 PM 36 5.0 16.0 61 44 75.9 81.1 29.917 7.26 0.6 306 0.00 0.00 0.00 0.00
05/07/26 5:46:25 PM 36 11.0 16.0 61 44 75.9 81.0 29.919 7.26 0.6 301 0.00 0.00 0.00 0.00
05/07/26 5:47:18 PM 36 9.0 16.0 61 44 75.8 80.9 29.920 7.26 0.6 297 0.00 0.00 0.00 0.00
05/07/26 5:48:22 PM 38 5.0 16.0 61 44 75.8 80.6 29.918 7.26 0.6 294 0.00 0.00 0.00 0.00
05/07/26 5:49:36 PM 32 5.0 16.0 61 44 75.8 80.3 29.918 7.26 0.5 290 0.00 0.00 0.00 0.00
05/07/26 5:50:29 PM 35 6.0 16.0 61 45 75.8 80.2 29.919 7.26 0.5 288 0.00 0.00 0.00 0.00
05/07/26 5:51:21 PM 34 5.0 16.0 61 45 75.8 80.1 29.917 7.26 0.5 285 0.00 0.00 0.00 0.00
05/07/26 5:52:32 PM 34 9.0 16.0 61 46 75.8 80.0 29.918 7.26 0.5 279 0.00 0.00 0.00 0.00
05/07/26 5:53:18 PM 36 5.0 16.0 61 46 75.8 79.9 29.917 7.26 0.5 276 0.00 0.00 0.00 0.00
05/07/26 5:54:32 PM 34 4.0 16.0 61 45 75.8 79.9 29.921 7.26 0.5 271 0.00 0.00 0.00 0.00
05/07/26 5:55:24 PM 35 5.0 16.0 61 46 75.8 79.8 29.920 7.26 0.5 267 0.00 0.00 0.00 0.00
05/07/26 5:56:35 PM 35 10.0 16.0 61 46 75.7 79.8 29.918 7.26 0.5 267 0.00 0.00 0.00 0.00
05/07/26 5:57:27 PM 37 7.0 16.0 61 46 75.7 79.8 29.919 7.26 0.5 267 0.00 0.00 0.00 0.00
05/07/26 5:58:20 PM 32 8.0 16.0 61 46 75.7 79.7 29.918 7.26 0.5 257 0.00 0.00 0.00 0.00
05/07/26 5:59:27 PM 35 6.0 16.0 61 46 75.7 79.6 29.920 7.26 0.0 251 0.00 0.00 0.00 0.00
05/07/26 6:00:20 PM 36 5.0 16.0 61 46 75.7 79.6 29.917 7.26 0.0 246 0.00 0.00 0.00 0.00
05/07/26 6:01:33 PM 34 4.0 16.0 61 46 75.7 79.5 29.920 7.26 0.0 243 0.00 0.00 0.00 0.00
05/07/26 6:02:23 PM 35 6.0 16.0 61 46 75.7 79.4 29.920 7.26 0.0 241 0.00 0.00 0.00 0.00
05/07/26 6:03:15 PM 36 9.0 16.0 61 46 75.7 79.4 29.919 7.26 0.0 239 0.00 0.00 0.00 0.00
05/07/26 6:04:23 PM 34 6.0 16.0 61 46 75.7 79.3 29.918 7.26 0.0 237 0.00 0.00 0.00 0.00
05/07/26 6:05:18 PM 36 4.0 16.0 61 46 75.7 79.2 29.921 7.26 0.0 236 0.00 0.00 0.00 0.00
05/07/26 6:06:29 PM 32 8.0 16.0 61 46 75.6 79.2 29.922 7.26 0.0 232 0.00 0.00 0.00 0.00
05/07/26 6:07:21 PM 35 6.0 16.0 61 46 75.6 79.1 29.920 7.26 0.0 227 0.00 0.00 0.00 0.00
05/07/26 6:08:32 PM 36 5.0 16.0 61 46 75.7 79.1 29.919 7.26 0.0 223 0.00 0.00 0.00 0.00
05/07/26 6:09:21 PM 32 8.0 16.0 61 46 75.7 79.1 29.923 7.26 0.0 223 0.00 0.00 0.00 0.00
05/07/26 6:10:32 PM 38 5.0 16.0 61 46 75.7 79.0 29.923 7.26 0.0 211 0.00 0.00 0.00 0.00
05/07/26 6:11:25 PM 35 3.0 16.0 61 46 75.6 79.0 29.923 7.26 0.0 211 0.00 0.00 0.00 0.00
05/07/26 6:12:35 PM 35 7.0 16.0 61 46 75.6 79.0 29.922 7.26 0.0 206 0.00 0.00 0.00 0.00
05/07/26 6:13:27 PM 32 4.0 16.0 61 47 75.6 78.9 29.922 7.26 0.0 202 0.00 0.00 0.00 0.00
05/07/26 6:14:21 PM 32 4.0 16.0 61 47 75.6 78.9 29.923 7.26 0.0 199 0.00 0.00 0.00 0.00
05/07/26 6:15:28 PM 36 7.0 16.0 61 47 75.6 78.8 29.922 7.26 0.0 193 0.00 0.00 0.00 0.00
05/07/26 6:16:21 PM 35 7.0 16.0 61 47 75.6 78.8 29.924 7.26 0.0 193 0.00 0.00 0.00 0.00
05/07/26 6:17:31 PM 35 7.0 16.0 61 47 75.6 78.7 29.923 7.26 0.0 185 0.00 0.00 0.00 0.00
05/07/26 6:18:24 PM 36 4.0 16.0 61 47 75.6 78.7 29.923 7.26 0.0 185 0.00 0.00 0.00 0.00
05/07/26 6:19:34 PM 32 5.0 16.0 61 47 75.6 78.6 29.921 7.26 0.0 174 0.00 0.00 0.00 0.00
05/07/26 6:20:21 PM 39 7.0 16.0 61 47 75.6 78.5 29.923 7.26 0.0 171 0.00 0.00 0.00 0.00
05/07/26 6:21:34 PM 35 4.0 16.0 61 47 75.6 78.4 29.923 7.26 0.0 167 0.00 0.00 0.00 0.00
05/07/26 6:22:27 PM 32 3.0 16.0 61 47 75.6 78.4 29.923 7.26 0.0 163 0.00 0.00 0.00 0.00
05/07/26 6:23:16 PM 38 4.0 16.0 61 47 75.5 78.4 29.926 7.26 0.0 162 0.00 0.00 0.00 0.00
05/07/26 6:24:30 PM 35 3.0 16.0 61 47 75.5 78.4 29.926 7.26 0.0 158 0.00 0.00 0.00 0.00
05/07/26 6:25:19 PM 35 3.0 16.0 61 48 75.5 78.4 29.927 7.26 0.0 155 0.00 0.00 0.00 0.00
05/07/26 6:26:30 PM 36 4.0 16.0 61 48 75.5 78.4 29.924 7.26 0.0 148 0.00 0.00 0.00 0.00
05/07/26 6:27:23 PM 36 4.0 16.0 61 47 75.5 78.4 29.926 7.26 0.0 148 0.00 0.00 0.00 0.00
05/07/26 6:28:33 PM 38 3.0 16.0 61 48 75.5 78.3 29.927 7.26 0.0 141 0.00 0.00 0.00 0.00
05/07/26 6:29:26 PM 36 3.0 16.0 61 48 75.5 78.3 29.928 7.26 0.0 137 0.00 0.00 0.00 0.00
05/07/26 6:30:39 PM 36 5.0 16.0 61 47 75.5 78.3 29.924 7.26 0.0 134 0.00 0.00 0.00 0.00
05/07/26 6:31:26 PM 38 9.0 16.0 61 48 75.5 78.2 29.923 7.26 0.0 130 0.00 0.00 0.00 0.00
05/07/26 6:32:18 PM 38 6.0 16.0 61 48 75.5 78.1 29.924 7.26 0.0 128 0.00 0.00 0.00 0.00
05/07/26 6:33:32 PM 35 5.0 16.0 61 48 75.4 77.9 29.927 7.26 0.0 123 0.00 0.00 0.00 0.00
05/07/26 6:34:24 PM 36 4.0 16.0 61 48 75.5 77.8 29.926 7.26 0.0 114 0.00 0.00 0.00 0.00
05/07/26 6:35:35 PM 35 3.0 16.0 61 48 75.4 77.7 29.926 7.26 0.0 111 0.00 0.00 0.00 0.00
05/07/26 6:36:25 PM 38 7.0 16.0 61 48 75.4 77.6 29.927 7.26 0.0 111 0.00 0.00 0.00 0.00
05/07/26 6:37:17 PM 37 5.0 16.0 61 48 75.4 77.5 29.925 7.26 0.0 109 0.00 0.00 0.00 0.00
05/07/26 6:38:28 PM 35 4.0 16.0 61 49 75.4 77.4 29.927 7.26 0.0 104 0.00 0.00 0.00 0.00
05/07/26 6:39:23 PM 37 4.0 16.0 61 49 75.4 77.3 29.926 7.26 0.0 104 0.00 0.00 0.00 0.00
05/07/26 6:40:34 PM 35 4.0 16.0 61 49 75.4 77.3 29.926 7.26 0.0 83 0.00 0.00 0.00 0.00
05/07/26 6:41:26 PM 37 0.0 16.0 61 49 75.4 77.3 29.925 7.26 0.0 70 0.00 0.00 0.00 0.00
05/07/26 6:42:34 PM 34 4.0 16.0 61 49 75.4 77.3 29.927 7.26 0.0 67 0.00 0.00 0.00 0.00
05/07/26 6:43:27 PM 34 4.0 16.0 61 49 75.3 77.3 29.924 7.26 0.0 53 0.00 0.00 0.00 0.00
05/07/26 6:44:19 PM 38 3.0 16.0 61 49 75.3 77.2 29.926 7.26 0.0 49 0.00 0.00 0.00 0.00
05/07/26 6:45:33 PM 34 5.0 16.0 61 49 75.3 77.2 29.927 7.26 0.0 49 0.00 0.00 0.00 0.00
05/07/26 6:46:25 PM 37 3.0 16.0 61 49 75.3 77.2 29.927 7.26 0.0 51 0.00 0.00 0.00 0.00
05/07/26 6:47:33 PM 35 3.0 16.0 61 49 75.3 77.2 29.927 7.26 0.0 54 0.00 0.00 0.00 0.00
05/07/26 6:48:25 PM 35 3.0 16.0 61 49 75.3 77.2 29.927 7.26 0.0 53 0.00 0.00 0.00 0.00
05/07/26 6:49:36 PM 34 5.0 16.0 61 49 75.3 77.1 29.925 7.26 0.0 46 0.00 0.00 0.00 0.00
05/07/26 6:50:28 PM 35 2.0 16.0 61 49 75.3 77.1 29.926 7.26 0.0 44 0.00 0.00 0.00 0.00
05/07/26 6:51:21 PM 38 4.0 16.0 61 49 75.3 77.1 29.924 7.26 0.0 42 0.00 0.00 0.00 0.00
05/07/26 6:52:29 PM 37 2.0 16.0 61 49 75.3 77.0 29.925 7.26 0.0 37 0.00 0.00 0.00 0.00
05/07/26 6:53:18 PM 32 4.0 16.0 61 49 75.2 77.0 29.924 7.26 0.0 35 0.00 0.00 0.00 0.00
05/07/26 6:54:32 PM 34 4.0 16.0 61 49 75.2 76.9 29.925 7.26 0.0 35 0.00 0.00 0.00 0.00
05/07/26 6:55:24 PM 38 4.0 16.0 61 49 75.2 76.9 29.928 7.26 0.0 33 0.00 0.00 0.00 0.00
05/07/26 6:56:17 PM 36 4.0 16.0 61 49 75.2 76.8 29.927 7.26 0.0 33 0.00 0.00 0.00 0.00
05/07/26 6:57:27 PM 35 4.0 16.0 61 49 75.2 76.7 29.925 7.26 0.0 33 0.00 0.00 0.00 0.00
05/07/26 6:58:17 PM 32 3.0 16.0 61 50 75.1 76.7 29.926 7.26 0.0 33 0.00 0.00 0.00 0.00
05/07/26 6:59:28 PM 35 4.0 16.0 61 50 75.2 76.6 29.925 7.26 0.0 33 0.00 0.00 0.00 0.00
05/07/26 7:00:20 PM 38 4.0 16.0 61 50 75.2 76.6 29.925 7.26 0.0 33 0.00 0.00 0.00 0.00
05/07/26 7:01:31 PM 38 4.0 16.0 61 50 75.2 76.5 29.926 7.26 0.0 32 0.00 0.00 0.00 0.00
05/07/26 7:02:24 PM 34 4.0 16.0 61 50 75.2 76.4 29.927 7.26 0.0 30 0.00 0.00 0.00 0.00
05/07/26 7:03:31 PM 36 4.0 16.0 61 50 75.1 76.4 29.926 7.26 0.0 30 0.00 0.00 0.00 0.00
05/07/26 7:04:24 PM 38 7.0 16.0 61 50 75.1 76.3 29.926 7.26 0.0 28 0.00 0.00 0.00 0.00
05/07/26 7:05:34 PM 38 3.0 16.0 61 50 75.1 76.2 29.929 7.26 0.0 28 0.00 0.00 0.00 0.00
05/07/26 7:06:27 PM 35 3.0 16.0 61 50 75.1 76.1 29.927 7.26 0.0 26 0.00 0.00 0.00 0.00
05/07/26 7:07:19 PM 38 2.0 16.0 61 50 75.1 76.1 29.928 7.26 0.0 26 0.00 0.00 0.00 0.00
05/07/26 7:08:27 PM 31 9.0 16.0 61 51 75.1 76.0 29.927 7.26 0.0 26 0.00 0.00 0.00 0.00
05/07/26 7:09:20 PM 34 6.0 16.0 61 51 75.1 75.9 29.927 7.26 0.0 25 0.00 0.00 0.00 0.00
05/07/26 7:10:30 PM 31 6.0 16.0 61 51 75.1 75.7 29.927 7.26 0.0 23 0.00 0.00 0.00 0.00
05/07/26 7:11:23 PM 35 4.0 16.0 61 52 75.1 75.6 29.926 7.26 0.0 23 0.00 0.00 0.00 0.00
05/07/26 7:12:34 PM 36 4.0 16.0 61 52 75.1 75.5 29.925 7.26 0.0 21 0.00 0.00 0.00 0.00
05/07/26 7:13:26 PM 34 4.0 16.0 61 52 75.0 75.4 29.926 7.26 0.0 21 0.00 0.00 0.00 0.00
05/07/26 7:14:37 PM 37 1.0 16.0 61 52 75.0 75.4 29.928 7.26 0.0 19 0.00 0.00 0.00 0.00
05/07/26 7:15:29 PM 35 1.0 16.0 61 52 75.0 75.3 29.927 7.26 0.0 19 0.00 0.00 0.00 0.00
05/07/26 7:16:22 PM 38 3.0 16.0 61 52 75.0 75.2 29.926 7.26 0.0 18 0.00 0.00 0.00 0.00
05/07/26 7:17:35 PM 36 5.0 16.0 61 52 75.0 75.2 29.927 7.26 0.0 18 0.00 0.00 0.00 0.00
05/07/26 7:18:25 PM 32 6.0 16.0 61 52 75.0 75.1 29.927 7.26 0.0 16 0.00 0.00 0.00 0.00
05/07/26 7:19:36 PM 38 2.0 16.0 61 52 74.9 75.1 29.929 7.26 0.0 16 0.00 0.00 0.00 0.00
05/07/26 7:20:25 PM 32 5.0 16.0 61 52 75.0 75.0 29.929 7.26 0.0 14 0.00 0.00 0.00 0.00
05/07/26 7:21:18 PM 35 3.0 16.0 61 52 74.9 74.9 29.928 7.26 0.0 14 0.00 0.00 0.00 0.00
05/07/26 7:22:31 PM 30 5.0 16.0 61 53 74.9 74.9 29.928 7.26 0.0 12 0.00 0.00 0.00 0.00
05/07/26 7:23:24 PM 32 2.0 16.0 61 53 74.9 74.8 29.927 7.26 0.0 12 0.00 0.00 0.00 0.00
05/07/26 7:24:16 PM 36 2.0 16.0 61 53 74.9 74.8 29.928 7.26 0.0 12 0.00 0.00 0.00 0.00
05/07/26 7:25:24 PM 38 0.0 16.0 61 53 74.9 74.7 29.930 7.26 0.0 11 0.00 0.00 0.00 0.00
05/07/26 7:26:17 PM 38 3.0 16.0 61 53 74.9 74.7 29.929 7.26 0.0 11 0.00 0.00 0.00 0.00
05/07/26 7:27:27 PM 37 4.0 16.0 61 53 74.9 74.6 29.932 7.26 0.0 9 0.00 0.00 0.00 0.00
05/07/26 7:28:20 PM 38 5.0 16.0 61 53 74.9 74.6 29.930 7.26 0.0 9 0.00 0.00 0.00 0.00
05/07/26 7:29:31 PM 38 4.0 16.0 61 54 74.9 74.5 29.931 7.26 0.0 9 0.00 0.00 0.00 0.00
05/07/26 7:30:20 PM 35 2.0 16.0 61 54 74.9 74.4 29.930 7.26 0.0 7 0.00 0.00 0.00 0.00
05/07/26 7:31:31 PM 32 1.0 16.0 61 54 74.8 74.4 29.933 7.26 0.0 7 0.00 0.00 0.00 0.00
05/07/26 7:32:23 PM 32 2.0 16.0 61 54 74.9 74.4 29.934 7.26 0.0 7 0.00 0.00 0.00 0.00
05/07/26 7:33:37 PM 39 1.0 16.0 61 54 74.8 74.3 29.930 7.26 0.0 7 0.00 0.00 0.00 0.00
05/07/26 7:34:27 PM 37 2.0 16.0 61 54 74.7 74.3 29.934 7.26 0.0 5 0.00 0.00 0.00 0.00
05/07/26 7:35:34 PM 31 6.0 16.0 61 54 74.8 74.2 29.933 7.26 0.0 5 0.00 0.00 0.00 0.00
05/07/26 7:36:27 PM 36 4.0 16.0 61 54 74.7 74.2 29.934 7.26 0.0 5 0.00 0.00 0.00 0.00
05/07/26 7:37:17 PM 35 3.0 16.0 61 54 74.7 74.2 29.934 7.26 0.0 5 0.00 0.00 0.00 0.00
05/07/26 7:38:31 PM 36 4.0 16.0 61 54 74.7 74.0 29.936 7.26 0.0 0 0.00 0.00 0.00 0.00
05/07/26 7:39:23 PM 36 3.0 16.0 61 54 74.7 74.0 29.937 7.26 0.0 0 0.00 0.00 0.00 0.00
05/07/26 7:40:28 PM 34 3.0 16.0 61 54 74.7 73.9 29.935 7.26 0.0 0 0.00 0.00 0.00 0.00
05/07/26 7:41:21 PM 32 2.0 16.0 61 55 74.7 73.9 29.936 7.26 0.0 0 0.00 0.00 0.00 0.00
05/07/26 7:42:31 PM 35 1.0 16.0 61 55 74.6 73.8 29.937 7.26 0.0 0 0.00 0.00 0.00 0.00
05/07/26 7:43:24 PM 36 4.0 16.0 61 55 74.6 73.7 29.936 7.26 0.0 0 0.00 0.00 0.00 0.00
05/07/26 7:44:19 PM 31 5.0 16.0 61 55 74.6 73.6 29.935 7.26 0.0 0 0.00 0.00 0.00 0.00
05/07/26 7:45:51 PM 38 2.0 16.0 61 55 74.6 73.6 29.936 7.26 0.0 0 0.00 0.00 0.00 0.00
05/07/26 7:46:20 PM 36 3.0 16.0 61 55 74.6 73.5 29.936 7.26 0.0 0 0.00 0.00 0.00 0.00
05/07/26 7:47:33 PM 35 2.0 16.0 61 55 74.6 73.4 29.936 7.26 0.0 0 0.00 0.00 0.00 0.00
05/07/26 7:48:26 PM 36 2.0 16.0 61 56 74.6 73.4 29.936 7.26 0.0 0 0.00 0.00 0.00 0.00
05/07/26 7:49:18 PM 34 2.0 16.0 61 56 74.5 73.3 29.937 7.26 0.0 0 0.00 0.00 0.00 0.00
05/07/26 7:50:29 PM 38 2.0 16.0 61 56 74.5 73.3 29.938 7.26 0.0 0 0.00 0.00 0.00 0.00
05/07/26 7:51:22 PM 36 2.0 16.0 61 56 74.5 73.2 29.938 7.26 0.0 0 0.00 0.00 0.00 0.00
05/07/26 7:52:29 PM 36 4.0 16.0 61 56 74.5 73.2 29.939 7.26 0.0 0 0.00 0.00 0.00 0.00
05/07/26 7:53:22 PM 32 4.0 16.0 61 56 74.4 73.1 29.938 7.26 0.0 0 0.00 0.00 0.00 0.00
05/07/26 7:54:35 PM 38 4.0 16.0 61 56 74.4 73.1 29.939 7.26 0.0 0 0.00 0.00 0.00 0.00
05/07/26 7:55:28 PM 32 3.0 16.0 61 56 74.4 73.0 29.942 7.26 0.0 0 0.00 0.00 0.00 0.00
05/07/26 7:56:17 PM 34 4.0 16.0 61 56 74.4 73.0 29.941 7.26 0.0 0 0.00 0.00 0.00 0.00
05/07/26 7:57:28 PM 36 4.0 16.0 61 56 74.3 73.0 29.942 7.26 0.0 0 0.00 0.00 0.00 0.00
05/07/26 7:58:18 PM 31 1.0 16.0 61 56 74.3 72.9 29.941 7.26 0.0 0 0.00 0.00 0.00 0.00
05/07/26 7:59:31 PM 29 1.0 16.0 61 56 74.3 72.8 29.941 7.26 0.0 0 0.00 0.00 0.00 0.00
05/07/26 8:00:24 PM 36 0.0 16.0 61 57 74.3 72.8 29.946 7.26 0.0 0 0.00 0.00 0.00 0.00
05/07/26 8:01:35 PM 36 3.0 16.0 61 57 74.3 72.8 29.942 7.26 0.0 0 0.00 0.00 0.00 0.00
05/07/26 8:02:21 PM 35 3.0 16.0 61 57 74.3 72.7 29.944 7.26 0.0 0 0.00 0.00 0.00 0.00
05/07/26 8:03:35 PM 36 4.0 16.0 61 57 74.2 72.6 29.945 7.26 0.0 0 0.00 0.00 0.00 0.00
05/07/26 8:04:28 PM 32 4.0 16.0 61 57 74.2 72.6 29.946 7.26 0.0 0 0.00 0.00 0.00 0.00
05/07/26 8:05:17 PM 32 3.0 16.0 61 57 74.2 72.5 29.950 7.26 0.0 0 0.00 0.00 0.00 0.00
05/07/26 8:06:31 PM 37 5.0 16.0 61 57 74.2 72.5 29.948 7.26 0.0 0 0.00 0.00 0.00 0.00
05/07/26 8:07:23 PM 32 5.0 16.0 61 57 74.1 72.4 29.947 7.26 0.0 0 0.00 0.00 0.00 0.00
05/07/26 8:08:31 PM 34 3.0 16.0 61 57 74.2 72.3 29.947 7.26 0.0 0 0.00 0.00 0.00 0.00
05/07/26 8:09:23 PM 38 3.0 16.0 61 58 74.1 72.3 29.949 7.26 0.0 0 0.00 0.00 0.00 0.00
05/07/26 8:10:34 PM 32 0.0 16.0 61 58 74.1 72.2 29.950 7.26 0.0 0 0.00 0.00 0.00 0.00
05/07/26 8:11:27 PM 31 1.0 16.0 61 58 74.1 72.2 29.950 7.26 0.0 0 0.00 0.00 0.00 0.00
05/07/26 8:12:19 PM 38 2.0 16.0 61 58 74.0 72.1 29.951 7.26 0.0 0 0.00 0.00 0.00 0.00
05/07/26 8:13:24 PM 35 3.0 16.0 61 58 74.0 72.1 29.951 7.26 0.0 0 0.00 0.00 0.00 0.00
05/07/26 8:14:17 PM 35 2.0 16.0 61 58 74.0 72.0 29.951 7.26 0.0 0 0.00 0.00 0.00 0.00
05/07/26 8:15:30 PM 38 6.0 16.0 61 58 74.0 71.9 29.952 7.26 0.0 0 0.00 0.00 0.00 0.00
05/07/26 8:16:23 PM 34 3.0 16.0 61 58 74.0 71.7 29.954 7.26 0.0 0 0.00 0.00 0.00 0.00
05/07/26 8:17:34 PM 36 1.0 16.0 61 58 74.0 71.5 29.955 7.26 0.0 0 0.00 0.00 0.00 0.00
05/07/26 8:18:23 PM 35 0.0 16.0 61 59 73.9 71.5 29.955 7.26 0.0 0 0.00 0.00 0.00 0.00
05/07/26 8:19:34 PM 32 4.0 16.0 61 59 73.9 71.3 29.954 7.26 0.0 0 0.00 0.00 0.00 0.00
05/07/26 8:20:27 PM 34 3.0 16.0 61 59 73.9 71.3 29.954 7.26 0.0 0 0.00 0.00 0.00 0.00
05/07/26 8:21:19 PM 34 6.0 16.0 61 59 73.8 71.2 29.956 7.26 0.0 0 0.00 0.00 0.00 0.00
05/07/26 8:22:33 PM 36 2.0 16.0 61 59 73.8 71.2 29.955 7.26 0.0 0 0.00 0.00 0.00 0.00
05/07/26 8:23:23 PM 32 1.0 16.0 61 59 73.8 71.1 29.959 7.26 0.0 0 0.00 0.00 0.00 0.00
05/07/26 8:24:33 PM 36 3.0 16.0 61 59 73.8 71.1 29.960 7.26 0.0 0 0.00 0.00 0.00 0.00
05/07/26 8:25:23 PM 34 2.0 16.0 61 59 73.8 71.0 29.958 7.26 0.0 0 0.00 0.00 0.00 0.00
05/07/26 8:26:37 PM 36 2.0 16.0 61 60 73.7 71.0 29.959 7.26 0.0 0 0.00 0.00 0.00 0.00
05/07/26 8:27:27 PM 37 2.0 16.0 61 60 73.7 70.9 29.959 7.26 0.0 0 0.00 0.00 0.00 0.00
05/07/26 8:28:19 PM 34 3.0 16.0 61 60 73.7 70.9 29.959 7.26 0.0 0 0.00 0.00 0.00 0.00
05/07/26 8:29:27 PM 38 2.0 16.0 61 60 73.6 70.9 29.960 7.26 0.0 0 0.00 0.00 0.00 0.00
05/07/26 8:30:20 PM 38 1.0 16.0 61 60 73.6 70.8 29.960 7.26 0.0 0 0.00 0.00 0.00 0.00
05/07/26 8:31:30 PM 32 4.0 16.0 61 60 73.6 70.7 29.963 7.26 0.0 0 0.00 0.00 0.00 0.00
05/07/26 8:32:23 PM 32 2.0 16.0 61 60 73.6 70.7 29.961 7.26 0.0 0 0.00 0.00 0.00 0.00
05/07/26 8:33:36 PM 34 2.0 16.0 61 60 73.6 70.6 29.963 7.26 0.0 0 0.00 0.00 0.00 0.00
05/07/26 8:34:23 PM 36 1.0 16.0 61 60 73.6 70.6 29.959 7.26 0.0 0 0.00 0.00 0.00 0.00
05/07/26 8:35:37 PM 35 0.0 16.0 61 61 73.5 70.6 29.963 7.26 0.0 0 0.00 0.00 0.00 0.00
05/07/26 8:36:26 PM 37 0.0 16.0 61 61 73.5 70.5 29.963 7.26 0.0 0 0.00 0.00 0.00 0.00
05/07/26 8:37:19 PM 36 0.0 16.0 61 61 73.4 70.5 29.961 7.26 0.0 0 0.00 0.00 0.00 0.00
05/07/26 8:38:33 PM 32 0.0 16.0 61 61 73.3 70.4 29.965 7.26 0.0 0 0.00 0.00 0.00 0.00
05/07/26 8:39:22 PM 38 0.0 16.0 61 61 73.3 70.4 29.961 7.26 0.0 0 0.00 0.00 0.00 0.00
05/07/26 8:40:33 PM 38 0.0 16.0 61 61 73.3 70.4 29.964 7.26 0.0 0 0.00 0.00 0.00 0.00
05/07/26 8:41:22 PM 31 2.0 16.0 61 61 73.3 70.3 29.965 7.26 0.0 0 0.00 0.00 0.00 0.00
05/07/26 8:42:36 PM 35 1.0 16.0 61 61 73.3 70.3 29.965 7.26 0.0 0 0.00 0.00 0.00 0.00
05/07/26 8:43:29 PM 32 0.0 16.0 61 61 73.2 70.3 29.966 7.26 0.0 0 0.00 0.00 0.00 0.00
05/07/26 8:44:21 PM 37 0.0 16.0 61 61 73.3 70.2 29.967 7.26 0.0 0 0.00 0.00 0.00 0.00
05/07/26 8:45:29 PM 38 0.0 16.0 61 61 73.2 70.1 29.966 7.26 0.0 0 0.00 0.00 0.00 0.00
05/07/26 8:46:19 PM 35 0.0 16.0 61 61 73.2 70.1 29.970 7.26 0.0 0 0.00 0.00 0.00 0.00
05/07/26 8:47:32 PM 38 1.0 16.0 61 61 73.1 70.0 29.968 7.26 0.0 0 0.00 0.00 0.00 0.00
05/07/26 8:48:25 PM 38 1.0 16.0 61 61 73.1 70.0 29.970 7.26 0.0 0 0.00 0.00 0.00 0.00
05/07/26 8:49:15 PM 37 0.0 16.0 61 62 73.1 69.9 29.969 7.26 0.0 0 0.00 0.00 0.00 0.00
05/07/26 8:50:26 PM 37 1.0 16.0 61 62 73.1 69.9 29.970 7.26 0.0 0 0.00 0.00 0.00 0.00
05/07/26 8:51:15 PM 32 0.0 16.0 61 62 73.0 69.9 29.970 7.26 0.0 0 0.00 0.00 0.00 0.00
05/07/26 8:52:29 PM 39 1.0 16.0 61 62 73.0 69.8 29.969 7.26 0.0 0 0.00 0.00 0.00 0.00
05/07/26 8:53:22 PM 31 1.0 16.0 61 62 73.0 69.8 29.970 7.26 0.0 0 0.00 0.00 0.00 0.00
05/07/26 8:54:32 PM 35 1.0 16.0 61 62 73.0 69.7 29.972 7.26 0.0 0 0.00 0.00 0.00 0.00
05/07/26 8:55:25 PM 35 1.0 16.0 61 62 72.9 69.7 29.974 7.26 0.0 0 0.00 0.00 0.00 0.00
05/07/26 8:56:33 PM 34 2.0 16.0 61 62 72.9 69.6 29.971 7.26 0.0 0 0.00 0.00 0.00 0.00
05/07/26 8:57:22 PM 38 1.0 16.0 61 62 72.9 69.5 29.971 7.26 0.0 0 0.00 0.00 0.00 0.00
05/07/26 8:58:36 PM 35 2.0 16.0 61 62 72.8 69.5 29.974 7.26 0.0 0 0.00 0.00 0.00 0.00
05/07/26 8:59:28 PM 35 1.0 16.0 61 62 72.8 69.4 29.975 7.26 0.0 0 0.00 0.00 0.00 0.00
05/07/26 9:00:21 PM 38 0.0 16.0 61 63 72.8 69.4 29.974 7.26 0.0 0 0.00 0.00 0.00 0.00
05/07/26 9:01:29 PM 34 0.0 16.0 61 63 72.8 69.3 29.976 7.26 0.0 0 0.00 0.00 0.00 0.00
05/07/26 9:02:22 PM 38 0.0 16.0 61 63 72.7 69.3 29.977 7.26 0.0 0 0.00 0.00 0.00 0.00
05/07/26 9:03:35 PM 36 0.0 16.0 61 63 72.7 69.2 29.974 7.26 0.0 0 0.00 0.00 0.00 0.00
05/07/26 9:04:25 PM 39 0.0 16.0 61 63 72.7 69.2 29.974 7.26 0.0 0 0.00 0.00 0.00 0.00
05/07/26 9:05:18 PM 38 0.0 16.0 61 63 72.7 69.2 29.975 7.26 0.0 0 0.00 0.00 0.00 0.00
05/07/26 9:06:25 PM 36 0.0 16.0 61 63 72.7 69.1 29.974 7.26 0.0 0 0.00 0.00 0.00 0.00
05/07/26 9:07:18 PM 36 0.0 16.0 61 63 72.6 69.1 29.973 7.26 0.0 0 0.00 0.00 0.00 0.00
05/07/26 9:08:29 PM 36 0.0 16.0 61 63 72.6 69.0 29.975 7.26 0.0 0 0.00 0.00 0.00 0.00
05/07/26 9:09:21 PM 38 0.0 16.0 61 63 72.6 68.9 29.975 7.26 0.0 0 0.00 0.00 0.00 0.00
05/07/26 9:10:32 PM 38 0.0 16.0 61 63 72.5 68.9 29.975 7.26 0.0 0 0.00 0.00 0.00 0.00
05/07/26 9:11:25 PM 36 0.0 16.0 61 63 72.5 68.8 29.976 7.26 0.0 0 0.00 0.00 0.00 0.00
05/07/26 9:12:33 PM 36 0.0 16.0 61 63 72.5 68.8 29.979 7.26 0.0 0 0.00 0.00 0.00 0.00
05/07/26 9:13:25 PM 32 0.0 16.0 61 63 72.5 68.7 29.977 7.26 0.0 0 0.00 0.00 0.00 0.00
05/07/26 9:14:18 PM 38 0.0 16.0 61 64 72.4 68.7 29.975 7.26 0.0 0 0.00 0.00 0.00 0.00
05/07/26 9:15:32 PM 38 2.0 16.0 61 64 72.3 68.6 29.976 7.26 0.0 0 0.00 0.00 0.00 0.00
05/07/26 9:16:21 PM 38 2.0 16.0 61 64 72.3 68.5 29.978 7.26 0.0 0 0.00 0.00 0.00 0.00
05/07/26 9:17:29 PM 37 1.0 16.0 61 64 72.3 68.4 29.978 7.26 0.0 0 0.00 0.00 0.00 0.00
05/07/26 9:18:18 PM 38 0.0 16.0 61 64 72.2 68.3 29.977 7.26 0.0 0 0.00 0.00 0.00 0.00
05/07/26 9:19:32 PM 37 1.0 16.0 61 64 72.3 68.2 29.979 7.26 0.0 0 0.00 0.00 0.00 0.00
05/07/26 9:20:25 PM 36 1.0 16.0 61 64 72.2 68.2 29.976 7.26 0.0 0 0.00 0.00 0.00 0.00
05/07/26 9:21:15 PM 37 1.0 16.0 61 64 72.2 68.1 29.979 7.26 0.0 0 0.00 0.00 0.00 0.00
05/07/26 9:22:26 PM 38 1.0 16.0 61 65 72.1 68.0 29.978 7.26 0.0 0 0.00 0.00 0.00 0.00
05/07/26 9:23:15 PM 36 1.0 16.0 61 65 72.1 67.9 29.977 7.26 0.0 0 0.00 0.00 0.00 0.00
05/07/26 9:24:29 PM 36 0.0 16.0 61 65 72.1 67.9 29.978 7.26 0.0 0 0.00 0.00 0.00 0.00
05/07/26 9:25:19 PM 35 0.0 16.0 61 65 72.1 67.8 29.978 7.26 0.0 0 0.00 0.00 0.00 0.00
05/07/26 9:26:33 PM 38 1.0 16.0 61 66 72.0 67.7 29.981 7.26 0.0 0 0.00 0.00 0.00 0.00
05/07/26 9:27:23 PM 34 1.0 16.0 61 66 72.0 67.6 29.981 7.26 0.0 0 0.00 0.00 0.00 0.00
05/07/26 9:28:33 PM 34 2.0 16.0 61 66 71.9 67.6 29.979 7.26 0.0 0 0.00 0.00 0.00 0.00
05/07/26 9:29:23 PM 37 3.0 16.0 61 66 71.9 67.5 29.982 7.26 0.0 0 0.00 0.00 0.00 0.00
05/07/26 9:30:37 PM 38 2.0 16.0 61 66 71.9 67.4 29.979 7.26 0.0 0 0.00 0.00 0.00 0.00
05/07/26 9:31:27 PM 38 0.0 16.0 61 66 71.9 67.4 29.979 7.26 0.0 0 0.00 0.00 0.00 0.00
05/07/26 9:32:19 PM 35 0.0 16.0 61 66 71.8 67.3 29.981 7.26 0.0 0 0.00 0.00 0.00 0.00
05/07/26 9:33:27 PM 32 0.0 16.0 61 67 71.8 67.3 29.979 7.26 0.0 0 0.00 0.00 0.00 0.00
05/07/26 9:34:20 PM 34 0.0 16.0 61 67 71.8 67.2 29.978 7.26 0.0 0 0.00 0.00 0.00 0.00
05/07/26 9:35:31 PM 35 0.0 16.0 61 67 71.8 67.2 29.978 7.26 0.0 0 0.00 0.00 0.00 0.00
05/07/26 9:36:23 PM 36 0.0 16.0 61 67 71.8 67.2 29.982 7.26 0.0 0 0.00 0.00 0.00 0.00
05/07/26 9:37:37 PM 36 0.0 16.0 61 67 71.7 67.1 29.979 7.26 0.0 0 0.00 0.00 0.00 0.00
05/07/26 9:38:24 PM 38 0.0 16.0 61 67 71.7 67.1 29.981 7.26 0.0 0 0.00 0.00 0.00 0.00
05/07/26 9:39:17 PM 38 0.0 16.0 61 67 71.6 67.1 29.981 7.26 0.0 0 0.00 0.00 0.00 0.00
05/07/26 9:40:30 PM 35 0.0 16.0 61 67 71.7 67.1 29.983 7.26 0.0 0 0.00 0.00 0.00 0.00
05/07/26 9:41:20 PM 38 0.0 16.0 61 67 71.6 67.1 29.983 7.26 0.0 0 0.00 0.00 0.00 0.00
05/07/26 9:42:34 PM 35 0.0 16.0 61 67 71.6 67.0 29.983 7.26 0.0 0 0.00 0.00 0.00 0.00
05/07/26 9:43:26 PM 38 0.0 16.0 61 67 71.6 67.0 29.984 7.26 0.0 0 0.00 0.00 0.00 0.00
05/07/26 9:44:31 PM 38 0.0 16.0 61 67 71.5 66.9 29.984 7.26 0.0 0 0.00 0.00 0.00 0.00
05/07/26 9:45:48 PM 32 0.0 16.0 61 67 71.5 66.9 29.983 7.26 0.0 0 0.00 0.00 0.00 0.00
05/07/26 9:46:20 PM 38 0.0 16.0 61 67 71.5 66.8 29.986 7.26 0.0 0 0.00 0.00 0.00 0.00
05/07/26 9:47:30 PM 35 0.0 16.0 61 67 71.5 66.8 29.982 7.26 0.0 0 0.00 0.00 0.00 0.00
05/07/26 9:48:23 PM 36 0.0 16.0 61 67 71.5 66.7 29.982 7.26 0.0 0 0.00 0.00 0.00 0.00
05/07/26 9:49:31 PM 36 0.0 16.0 61 67 71.5 66.7 29.984 7.26 0.0 0 0.00 0.00 0.00 0.00
05/07/26 9:50:23 PM 36 0.0 16.0 61 67 71.4 66.7 29.985 7.26 0.0 0 0.00 0.00 0.00 0.00
05/07/26 9:51:34 PM 36 0.0 16.0 61 67 71.4 66.6 29.986 7.26 0.0 0 0.00 0.00 0.00 0.00
05/07/26 9:52:27 PM 35 0.0 16.0 61 67 71.4 66.6 29.984 7.26 0.0 0 0.00 0.00 0.00 0.00
05/07/26 9:53:19 PM 38 0.0 16.0 61 67 71.3 66.5 29.984 7.26 0.0 0 0.00 0.00 0.00 0.00
05/07/26 9:54:30 PM 35 0.0 16.0 61 67 71.3 66.5 29.985 7.26 0.0 0 0.00 0.00 0.00 0.00
05/07/26 9:55:20 PM 38 0.0 16.0 61 67 71.2 66.5 29.985 7.26 0.0 0 0.00 0.00 0.00 0.00
05/07/26 9:56:30 PM 38 0.0 16.0 61 67 71.3 66.4 29.983 7.26 0.0 0 0.00 0.00 0.00 0.00
05/07/26 9:57:24 PM 34 0.0 16.0 61 68 71.3 66.3 29.984 7.26 0.0 0 0.00 0.00 0.00 0.00
05/07/26 9:58:34 PM 35 0.0 16.0 61 68 71.2 66.3 29.986 7.26 0.0 0 0.00 0.00 0.00 0.00
05/07/26 9:59:27 PM 35 0.0 16.0 61 68 71.2 66.3 29.984 7.26 0.0 0 0.00 0.00 0.00 0.00
05/07/26 10:00:38 PM 32 0.0 16.0 61 68 71.2 66.2 29.985 7.26 0.0 0 0.00 0.00 0.00 0.00
05/07/26 10:01:30 PM 36 0.0 16.0 61 68 71.1 66.2 29.988 7.26 0.0 0 0.00 0.00 0.00 0.00
05/07/26 10:02:20 PM 32 0.0 16.0 61 68 71.1 66.2 29.989 7.26 0.0 0 0.00 0.00 0.00 0.00
05/07/26 10:03:34 PM 36 0.0 16.0 61 68 71.1 66.1 29.987 7.26 0.0 0 0.00 0.00 0.00 0.00
05/07/26 10:04:26 PM 34 0.0 16.0 61 68 71.0 66.1 29.990 7.26 0.0 0 0.00 0.00 0.00 0.00
05/07/26 10:05:19 PM 35 0.0 16.0 61 68 71.1 66.1 29.990 7.26 0.0 0 0.00 0.00 0.00 0.00
05/07/26 10:06:27 PM 38 0.0 16.0 61 68 71.0 66.0 29.990 7.26 0.0 0 0.00 0.00 0.00 0.00
05/07/26 10:07:17 PM 38 0.0 16.0 61 68 71.1 66.0 29.991 7.26 0.0 0 0.00 0.00 0.00 0.00
05/07/26 10:08:31 PM 38 0.0 16.0 61 68 71.1 65.9 29.991 7.26 0.0 0 0.00 0.00 0.00 0.00
05/07/26 10:09:23 PM 32 0.0 16.0 61 68 71.1 65.9 29.992 7.26 0.0 0 0.00 0.00 0.00 0.00
05/07/26 10:10:34 PM 35 0.0 16.0 61 69 71.1 65.8 29.992 7.26 0.0 0 0.00 0.00 0.00 0.00
05/07/26 10:11:21 PM 39 0.0 16.0 61 69 71.1 65.8 29.993 7.26 0.0 0 0.00 0.00 0.00 0.00
05/07/26 10:12:32 PM 34 0.0 16.0 61 69 71.2 65.7 29.993 7.26 0.0 0 0.00 0.00 0.00 0.00
05/07/26 10:13:24 PM 35 0.0 16.0 61 69 71.1 65.7 29.995 7.26 0.0 0 0.00 0.00 0.00 0.00
05/07/26 10:14:17 PM 32 0.0 16.0 61 69 71.2 65.7 29.996 7.26 0.0 0 0.00 0.00 0.00 0.00
05/07/26 10:15:34 PM 36 0.0 16.0 61 69 71.2 65.6 29.995 7.26 0.0 0 0.00 0.00 0.00 0.00
05/07/26 10:16:20 PM 38 0.0 16.0 61 69 71.2 65.6 29.995 7.26 0.0 0 0.00 0.00 0.00 0.00
05/07/26 10:17:31 PM 38 0.0 16.0 61 69 71.2 65.5 29.997 7.26 0.0 0 0.00 0.00 0.00 0.00
05/07/26 10:18:24 PM 36 0.0 16.0 61 69 71.3 65.4 29.995 7.26 0.0 0 0.00 0.00 0.00 0.00
05/07/26 10:19:17 PM 36 0.0 16.0 61 70 71.3 65.4 29.996 7.26 0.0 0 0.00 0.00 0.00 0.00
05/07/26 10:20:27 PM 38 0.0 16.0 61 70 71.3 65.3 29.998 7.26 0.0 0 0.00 0.00 0.00 0.00
05/07/26 10:21:20 PM 36 0.0 16.0 61 70 71.3 65.3 29.995 7.26 0.0 0 0.00 0.00 0.00 0.00
05/07/26 10:22:28 PM 38 0.0 16.0 61 70 71.3 65.2 29.997 7.26 0.0 0 0.00 0.00 0.00 0.00
05/07/26 10:23:20 PM 39 0.0 16.0 61 70 71.3 65.2 29.996 7.26 0.0 0 0.00 0.00 0.00 0.00
05/07/26 10:24:31 PM 32 0.0 16.0 61 70 71.4 65.2 29.998 7.26 0.0 0 0.00 0.00 0.00 0.00
05/07/26 10:25:24 PM 35 0.0 16.0 61 70 71.4 65.1 29.997 7.26 0.0 0 0.00 0.00 0.00 0.00
05/07/26 10:26:35 PM 38 0.0 16.0 61 70 71.4 65.1 29.997 7.26 0.0 0 0.00 0.00 0.00 0.00
05/07/26 10:27:22 PM 35 0.0 16.0 61 70 71.4 65.1 29.998 7.26 0.0 0 0.00 0.00 0.00 0.00
05/07/26 10:28:35 PM 38 0.0 16.0 61 70 71.4 65.0 29.998 7.26 0.0 0 0.00 0.00 0.00 0.00
05/07/26 10:29:25 PM 36 0.0 16.0 61 70 71.4 65.0 29.996 7.26 0.0 0 0.00 0.00 0.00 0.00
05/07/26 10:30:18 PM 35 0.0 16.0 61 70 71.5 65.0 29.997 7.26 0.0 0 0.00 0.00 0.00 0.00
05/07/26 10:31:29 PM 35 0.0 16.0 61 70 71.5 64.9 29.997 7.26 0.0 0 0.00 0.00 0.00 0.00
05/07/26 10:32:15 PM 35 0.0 16.0 61 70 71.5 64.9 29.997 7.26 0.0 0 0.00 0.00 0.00 0.00
05/07/26 10:33:29 PM 38 0.0 16.0 61 70 71.5 64.9 29.994 7.26 0.0 0 0.00 0.00 0.00 0.00
05/07/26 10:34:19 PM 34 0.0 16.0 61 70 71.5 64.9 29.995 7.26 0.0 0 0.00 0.00 0.00 0.00
05/07/26 10:35:33 PM 38 0.0 16.0 61 70 71.5 64.8 29.995 7.26 0.0 0 0.00 0.00 0.00 0.00
05/07/26 10:36:22 PM 35 0.0 16.0 61 70 71.5 64.8 29.995 7.26 0.0 0 0.00 0.00 0.00 0.00
05/07/26 10:37:15 PM 36 0.0 16.0 61 70 71.6 64.7 29.995 7.26 0.0 0 0.00 0.00 0.00 0.00
05/07/26 10:38:26 PM 36 0.0 16.0 61 70 71.6 64.7 29.994 7.26 0.0 0 0.00 0.00 0.00 0.00
05/07/26 10:39:16 PM 35 0.0 16.0 61 71 71.6 64.7 29.993 7.26 0.0 0 0.00 0.00 0.00 0.00
05/07/26 10:40:29 PM 38 0.0 16.0 61 71 71.6 64.6 29.992 7.26 0.0 0 0.00 0.00 0.00 0.00
05/07/26 10:41:22 PM 36 0.0 16.0 61 71 71.6 64.6 29.993 7.26 0.0 0 0.00 0.00 0.00 0.00
05/07/26 10:42:33 PM 35 0.0 16.0 61 71 71.6 64.5 29.993 7.26 0.0 0 0.00 0.00 0.00 0.00
05/07/26 10:43:20 PM 38 0.0 16.0 61 71 71.7 64.5 29.995 7.26 0.0 0 0.00 0.00 0.00 0.00
05/07/26 10:44:34 PM 36 0.0 16.0 61 70 71.7 64.5 29.994 7.26 0.0 0 0.00 0.00 0.00 0.00
05/07/26 10:45:26 PM 32 0.0 16.0 61 71 71.7 64.5 29.996 7.26 0.0 0 0.00 0.00 0.00 0.00
05/07/26 10:46:19 PM 34 0.0 16.0 61 71 71.7 64.4 29.994 7.26 0.0 0 0.00 0.00 0.00 0.00
05/07/26 10:47:30 PM 36 0.0 16.0 61 71 71.7 64.4 29.994 7.26 0.0 0 0.00 0.00 0.00 0.00
05/07/26 10:48:20 PM 38 0.0 16.0 61 71 71.7 64.3 29.994 7.26 0.0 0 0.00 0.00 0.00 0.00
05/07/26 10:49:30 PM 38 0.0 16.0 61 71 71.7 64.3 29.995 7.26 0.0 0 0.00 0.00 0.00 0.00
05/07/26 10:50:23 PM 38 0.0 16.0 61 71 71.7 64.3 29.994 7.26 0.0 0 0.00 0.00 0.00 0.00
05/07/26 10:51:34 PM 36 0.0 16.0 61 71 71.7 64.3 29.993 7.26 0.0 0 0.00 0.00 0.00 0.00
05/07/26 10:52:27 PM 38 0.0 16.0 61 72 71.7 64.2 29.993 7.26 0.0 0 0.00 0.00 0.00 0.00
05/07/26 10:53:20 PM 36 0.0 16.0 61 72 71.8 64.1 29.994 7.26 0.0 0 0.00 0.00 0.00 0.00
05/07/26 10:54:27 PM 35 0.0 16.0 61 72 71.7 64.1 29.995 7.26 0.0 0 0.00 0.00 0.00 0.00
05/07/26 10:55:20 PM 36 0.0 16.0 61 72 71.7 64.1 29.996 7.26 0.0 0 0.00 0.00 0.00 0.00
05/07/26 10:56:34 PM 35 0.0 16.0 61 72 71.8 64.0 29.993 7.26 0.0 0 0.00 0.00 0.00 0.00
05/07/26 10:57:24 PM 38 0.0 16.0 61 72 71.8 64.0 29.995 7.26 0.0 0 0.00 0.00 0.00 0.00
05/07/26 10:58:16 PM 35 0.0 16.0 61 72 71.8 64.0 29.993 7.26 0.0 0 0.00 0.00 0.00 0.00
05/07/26 10:59:24 PM 34 0.0 16.0 61 72 71.8 63.9 29.994 7.26 0.0 0 0.00 0.00 0.00 0.00
05/07/26 11:00:17 PM 35 0.0 16.0 61 72 71.8 63.9 29.995 7.26 0.0 0 0.00 0.00 0.00 0.00
05/07/26 11:01:31 PM 38 0.0 16.0 61 72 71.8 63.8 29.996 7.26 0.0 0 0.00 0.00 0.00 0.00
05/07/26 11:02:21 PM 36 0.0 16.0 61 72 71.8 63.8 29.994 7.26 0.0 0 0.00 0.00 0.00 0.00
05/07/26 11:03:35 PM 38 0.0 16.0 61 72 71.8 63.8 29.995 7.26 0.0 0 0.00 0.00 0.00 0.00
05/07/26 11:04:21 PM 36 0.0 16.0 61 72 71.8 63.7 29.993 7.26 0.0 0 0.00 0.00 0.00 0.00
05/07/26 11:05:32 PM 34 0.0 16.0 61 72 71.9 63.7 29.995 7.26 0.0 0 0.00 0.00 0.00 0.00
05/07/26 11:06:25 PM 35 0.0 16.0 61 72 71.9 63.7 29.994 7.26 0.0 0 0.00 0.00 0.00 0.00
05/07/26 11:07:18 PM 36 0.0 16.0 61 73 71.8 63.7 29.993 7.26 0.0 0 0.00 0.00 0.00 0.00
05/07/26 11:08:29 PM 34 0.0 16.0 61 73 71.9 63.6 29.994 7.26 0.0 0 0.00 0.00 0.00 0.00
05/07/26 11:09:22 PM 34 0.0 16.0 61 73 71.9 63.6 29.993 7.26 0.0 0 0.00 0.00 0.00 0.00
05/07/26 11:10:29 PM 36 0.0 16.0 61 73 71.9 63.6 29.993 7.26 0.0 0 0.00 0.00 0.00 0.00
05/07/26 11:11:22 PM 34 0.0 16.0 61 73 71.9 63.5 29.994 7.26 0.0 0 0.00 0.00 0.00 0.00
05/07/26 11:12:33 PM 38 0.0 16.0 61 73 71.9 63.5 29.995 7.26 0.0 0 0.00 0.00 0.00 0.00
05/07/26 11:13:26 PM 36 0.0 16.0 61 73 71.9 63.5 29.995 7.26 0.0 0 0.00 0.00 0.00 0.00
05/07/26 11:14:18 PM 35 0.0 16.0 61 73 71.9 63.4 29.994 7.26 0.0 0 0.00 0.00 0.00 0.00
05/07/26 11:15:50 PM 38 0.0 16.0 61 73 71.9 63.4 29.996 7.26 0.0 0 0.00 0.00 0.00 0.00
05/07/26 11:16:19 PM 36 0.0 16.0 61 73 71.9 63.4 29.994 7.26 0.0 0 0.00 0.00 0.00 0.00
05/07/26 11:17:30 PM 36 0.0 16.0 61 73 71.9 63.4 29.996 7.26 0.0 0 0.00 0.00 0.00 0.00
05/07/26 11:18:23 PM 34 0.0 16.0 61 73 71.9 63.3 29.996 7.26 0.0 0 0.00 0.00 0.00 0.00
05/07/26 11:19:36 PM 38 0.0 16.0 61 73 71.9 63.3 29.997 7.26 0.0 0 0.00 0.00 0.00 0.00
05/07/26 11:20:26 PM 34 0.0 16.0 61 73 71.9 63.2 29.997 7.26 0.0 0 0.00 0.00 0.00 0.00
05/07/26 11:21:34 PM 38 0.0 16.0 61 74 72.0 63.2 29.998 7.26 0.0 0 0.00 0.00 0.00 0.00
05/07/26 11:22:27 PM 36 0.0 16.0 61 74 71.9 63.2 29.999 7.26 0.0 0 0.00 0.00 0.00 0.00
05/07/26 11:23:20 PM 35 0.0 16.0 61 74 71.9 63.1 29.996 7.26 0.0 0 0.00 0.00 0.00 0.00
05/07/26 11:24:31 PM 34 0.0 16.0 61 74 71.9 63.1 29.996 7.26 0.0 0 0.00 0.00 0.00 0.00
05/07/26 11:25:23 PM 35 0.0 16.0 61 74 71.9 63.0 29.998 7.26 0.0 0 0.00 0.00 0.00 0.00
05/07/26 11:26:31 PM 38 0.0 16.0 61 74 72.0 63.0 29.996 7.26 0.0 0 0.00 0.00 0.00 0.00
05/07/26 11:27:21 PM 38 0.0 16.0 61 74 72.0 63.0 29.996 7.26 0.0 0 0.00 0.00 0.00 0.00
05/07/26 11:28:35 PM 38 0.0 16.0 61 74 72.0 62.9 29.998 7.26 0.0 0 0.00 0.00 0.00 0.00
05/07/26 11:29:25 PM 35 0.0 16.0 61 74 72.0 62.9 29.998 7.26 0.0 0 0.00 0.00 0.00 0.00
05/07/26 11:30:42 PM 35 0.0 16.0 61 74 72.0 62.9 29.999 7.26 0.0 0 0.00 0.00 0.00 0.00
05/07/26 11:31:31 PM 36 0.0 16.0 61 75 72.0 62.9 29.998 7.26 0.0 0 0.00 0.00 0.00 0.00
05/07/26 11:32:18 PM 35 0.0 16.0 61 75 72.0 62.9 29.999 7.26 0.0 0 0.00 0.00 0.00 0.00
05/07/26 11:33:29 PM 38 0.0 16.0 61 75 72.0 62.8 29.998 7.26 0.0 0 0.00 0.00 0.00 0.00
05/07/26 11:34:22 PM 36 0.0 16.0 61 75 72.0 62.8 29.999 7.26 0.0 0 0.00 0.00 0.00 0.00
05/07/26 11:35:33 PM 31 0.0 16.0 61 75 72.0 62.8 29.998 7.26 0.0 0 0.00 0.00 0.00 0.00
05/07/26 11:36:26 PM 38 0.0 16.0 61 75 72.0 62.8 29.998 7.26 0.0 0 0.00 0.00 0.00 0.00
05/07/26 11:37:34 PM 38 0.0 16.0 61 75 72.0 62.7 29.997 7.26 0.0 0 0.00 0.00 0.00 0.00
05/07/26 11:38:26 PM 35 0.0 16.0 61 75 72.0 62.7 30.000 7.26 0.0 0 0.00 0.00 0.00 0.00
05/07/26 11:39:19 PM 38 0.0 16.0 61 75 71.9 62.7 30.000 7.26 0.0 0 0.00 0.00 0.00 0.00
05/07/26 11:40:30 PM 38 0.0 16.0 61 75 72.0 62.7 30.000 7.26 0.0 0 0.00 0.00 0.00 0.00
05/07/26 11:41:23 PM 36 0.0 16.0 61 75 72.0 62.7 29.999 7.26 0.0 0 0.00 0.00 0.00 0.00
05/07/26 11:42:31 PM 38 0.0 16.0 61 75 72.0 62.6 30.000 7.26 0.0 0 0.00 0.00 0.00 0.00
05/07/26 11:43:21 PM 32 0.0 16.0 61 75 72.0 62.6 29.999 7.26 0.0 0 0.00 0.00 0.00 0.00
05/07/26 11:44:35 PM 36 0.0 16.0 61 75 72.0 62.6 30.001 7.26 0.0 0 0.00 0.00 0.00 0.00
05/07/26 11:45:28 PM 31 0.0 16.0 61 75 72.0 62.6 29.998 7.26 0.0 0 0.00 0.00 0.00 0.00
05/07/26 11:46:17 PM 36 0.0 16.0 61 75 71.9 62.6 30.001 7.26 0.0 0 0.00 0.00 0.00 0.00
05/07/26 11:47:31 PM 36 0.0 16.0 61 75 72.0 62.5 30.000 7.26 0.0 0 0.00 0.00 0.00 0.00
05/07/26 11:48:18 PM 36 0.0 16.0 61 75 72.0 62.5 30.001 7.26 0.0 0 0.00 0.00 0.00 0.00
05/07/26 11:49:29 PM 36 0.0 16.0 61 75 71.9 62.5 30.001 7.26 0.0 0 0.00 0.00 0.00 0.00
05/07/26 11:50:22 PM 35 0.0 16.0 61 75 72.0 62.4 30.001 7.26 0.0 0 0.00 0.00 0.00 0.00
05/07/26 11:51:33 PM 36 0.0 16.0 61 75 72.0 62.4 30.002 7.26 0.0 0 0.00 0.00 0.00 0.00
05/07/26 11:52:26 PM 38 0.0 16.0 61 75 72.0 62.3 30.000 7.26 0.0 0 0.00 0.00 0.00 0.00
05/07/26 11:53:33 PM 32 0.0 16.0 61 76 72.0 62.3 29.999 7.26 0.0 0 0.00 0.00 0.00 0.00
05/07/26 11:54:26 PM 36 0.0 16.0 61 76 72.0 62.3 30.001 7.26 0.0 0 0.00 0.00 0.00 0.00
05/07/26 11:55:19 PM 38 0.0 16.0 61 76 71.9 62.2 30.001 7.26 0.0 0 0.00 0.00 0.00 0.00
05/07/26 11:56:30 PM 39 0.0 16.0 61 76 71.9 62.2 29.999 7.26 0.0 0 0.00 0.00 0.00 0.00
05/07/26 11:57:22 PM 31 0.0 16.0 61 76 72.0 62.2 30.001 7.26 0.0 0 0.00 0.00 0.00 0.00
05/07/26 11:58:30 PM 38 0.0 16.0 61 76 72.0 62.1 30.001 7.26 0.0 0 0.00 0.00 0.00 0.00

University Police wind advisory reference

For campus closure information please call the campus Emergency Hotline at (909) 537-5999

© All rights reserved. Unauthorized duplication or distribution is prohibited

Never base important decisions on this or any weather information obtained from the Internet

California State University, San Bernardino
5500 University Parkway, San Bernardino, CA. 92407
Phone: (909) 537-5108, Email: Weather Webmaster
Last Updated: